[[{"header":{"parameterUnit":"m.s-1","parameterCategory":1,"la1":30.6,"la2":28.766,"lo1":-90.7593,"lo2":-88.6598,"dy":0.0162,"dx":0.0183,"nx":116,"ny":114,"refTime":"2024-03-29T06:00:00:Z","depth":0,"parameterNumber":2,"parameterNumberName":"U-component_of_WINDS"},"data":[0.0,0.0,0.0,0.0,0.0,0.0,0.0,0.0,0.0,0.0,0.0,0.0,0.0,0.0,0.0,0.0,0.0,0.0,0.0,0.0,0.0,0.0,0.0,0.0,0.0,0.0,0.0,0.0,0.0,0.0,0.0,0.0,0.0,0.0,0.0,0.0,0.0,0.0,0.0,0.0,0.0,0.0,0.0,0.0,0.0,0.0,0.0,0.0,0.0,0.0,0.0,0.0,0.0,0.0,0.0,0.0,0.0,0.0,0.0,0.0,0.0,0.0,0.0,0.0,0.0,0.0,0.0,0.0,0.0,0.0,0.0,0.0,0.0,0.0,0.0,0.0,0.0,0.0,0.0,0.0,0.0,0.0,0.0,0.0,0.0,0.0,0.0,0.0,0.0,0.0,0.0,0.0,0.0,0.0,0.0,0.0,0.0,0.0,0.0,0.0,0.0,0.0,0.0,0.0,0.0,0.0,0.0,0.0,0.0,0.0,0.0,0.0,0.0,0.0,0.0,0.0,0.0,0.0,0.0,0.0,0.0,0.0,0.0,0.0,0.0,0.0,0.0,0.0,0.0,0.0,0.0,0.0,0.0,0.0,0.0,0.0,0.0,0.0,0.0,0.0,0.0,0.0,0.0,0.0,0.0,0.0,0.0,0.0,0.0,0.0,0.0,0.0,0.0,0.0,0.0,0.0,0.0,0.0,0.0,0.0,0.0,0.0,0.0,0.0,0.0,0.0,0.0,0.0,0.0,0.0,0.0,0.0,0.0,0.0,0.0,0.0,0.0,0.0,0.0,0.0,0.0,0.0,0.0,0.0,0.0,0.0,0.0,0.0,0.0,0.0,0.0,0.0,0.0,0.0,0.0,0.0,0.0,0.0,0.0,0.0,0.0,0.0,0.0,0.0,0.0,0.0,0.0,0.0,0.0,0.0,0.0,0.0,0.0,0.0,0.0,0.0,0.0,0.0,0.0,0.0,0.0,0.0,0.0,0.0,0.0,0.0,0.0,0.0,0.0,0.0,0.0,0.0,0.0,0.0,0.0,0.0,0.0,0.0,0.0,0.0,0.0,0.0,0.0,0.0,0.0,0.0,0.0,0.0,0.0,0.0,0.0,0.0,0.0,0.0,0.0,0.0,0.0,0.0,0.0,0.0,0.0,0.0,0.0,0.0,0.0,0.0,0.0,0.0,0.0,0.0,0.0,0.0,0.0,0.0,0.0,0.0,0.0,0.0,0.0,0.0,0.0,0.0,0.0,0.0,0.0,0.0,0.0,0.0,0.0,0.0,0.0,0.0,0.0,0.0,0.0,0.0,0.0,0.0,0.0,0.0,0.0,0.0,0.0,0.0,0.0,0.0,0.0,0.0,0.0,0.0,0.0,0.0,0.0,0.0,0.0,0.0,0.0,0.0,0.0,0.0,0.0,0.0,0.0,0.0,0.0,0.0,0.0,0.0,0.0,0.0,0.0,0.0,0.0,0.0,0.0,0.0,0.0,0.0,0.0,0.0,0.0,0.0,0.0,0.0,0.0,0.0,0.0,0.0,0.0,0.0,0.0,0.0,0.0,0.0,0.0,0.0,0.0,0.0,0.0,0.0,0.0,0.0,0.0,0.0,0.0,0.0,0.0,0.0,0.0,0.0,0.0,0.0,0.0,0.0,0.0,0.0,0.0,0.0,0.0,0.0,0.0,0.0,0.0,0.0,0.0,0.0,0.0,0.0,0.0,0.0,0.0,0.0,0.0,0.0,0.0,0.0,0.0,0.0,0.0,0.0,0.0,0.0,0.0,0.0,0.0,0.0,0.0,0.0,0.0,0.0,0.0,0.0,0.0,0.0,0.0,0.0,0.0,0.0,0.0,0.0,0.0,0.0,0.0,0.0,0.0,0.0,0.0,0.0,0.0,0.0,0.0,0.0,0.0,0.0,0.0,0.0,0.0,0.0,0.0,0.0,0.0,0.0,0.0,0.0,0.0,0.0,0.0,0.0,0.0,0.0,0.0,0.0,0.0,0.0,0.0,0.0,0.0,0.0,0.0,0.0,0.0,0.0,0.0,0.0,0.0,0.0,0.0,0.0,0.0,0.0,0.0,0.0,0.0,0.0,0.0,0.0,0.0,0.0,0.0,0.0,0.0,0.0,0.0,0.0,0.0,0.0,0.0,0.0,0.0,0.0,0.0,0.0,0.0,0.0,0.0,0.0,0.0,0.0,0.0,0.0,0.0,0.0,0.0,0.0,0.0,0.0,0.0,0.0,0.0,0.0,0.0,0.0,0.0,0.0,0.0,0.0,0.0,0.0,0.0,0.0,0.0,0.0,0.0,0.0,0.0,0.0,0.0,0.0,0.0,0.0,0.0,0.0,0.0,0.0,0.0,0.0,0.0,0.0,0.0,0.0,0.0,0.0,0.0,0.0,0.0,0.0,0.0,0.0,0.0,0.0,0.0,0.0,0.0,0.0,0.0,0.0,0.0,0.0,0.0,0.0,0.0,0.0,0.0,0.0,0.0,0.0,0.0,0.0,0.0,0.0,0.0,0.0,0.0,0.0,0.0,0.0,0.0,0.0,0.0,0.0,0.0,0.0,0.0,0.0,0.0,0.0,0.0,0.0,0.0,0.0,0.0,0.0,0.0,0.0,0.0,0.0,0.0,0.0,0.0,0.0,0.0,0.0,0.0,0.0,0.0,0.0,0.0,0.0,0.0,0.0,0.0,0.0,0.0,0.0,0.0,0.0,0.0,0.0,0.0,0.0,0.0,0.0,0.0,0.0,0.0,0.0,0.0,0.0,0.0,0.0,0.0,0.0,0.0,0.0,0.0,0.0,0.0,0.0,0.0,0.0,0.0,0.0,0.0,0.0,0.0,0.0,0.0,0.0,0.0,0.0,0.0,0.0,0.0,0.0,0.0,0.0,0.0,0.0,0.0,0.0,0.0,0.0,0.0,0.0,0.0,0.0,0.0,0.0,0.0,0.0,0.0,0.0,0.0,0.0,0.0,0.0,0.0,0.0,0.0,0.0,0.0,0.0,0.0,0.0,0.0,0.0,0.0,0.0,0.0,0.0,0.0,0.0,0.0,0.0,0.0,0.0,0.0,0.0,0.0,0.0,0.0,0.0,0.0,0.0,0.0,0.0,0.0,0.0,0.0,0.0,0.0,0.0,0.0,0.0,0.0,0.0,0.0,0.0,0.0,0.0,0.0,0.0,0.0,0.0,0.0,0.0,0.0,0.0,0.0,0.0,0.0,0.0,0.0,0.0,0.0,0.0,0.0,0.0,0.0,0.0,0.0,0.0,0.0,0.0,0.0,0.0,0.0,0.0,0.0,0.0,0.0,0.0,0.0,0.0,0.0,0.0,0.0,0.0,0.0,0.0,0.0,0.0,0.0,0.0,0.0,0.0,0.0,0.0,0.0,0.0,0.0,0.0,0.0,0.0,0.0,0.0,0.0,0.0,0.0,0.0,0.0,0.0,0.0,0.0,0.0,0.0,0.0,0.0,0.0,0.0,0.0,0.0,0.0,0.0,0.0,0.0,0.0,0.0,0.0,0.0,0.0,0.0,0.0,0.0,0.0,0.0,0.0,0.0,0.0,0.0,0.0,0.0,0.0,0.0,0.0,0.0,0.0,0.0,0.0,0.0,0.0,0.0,0.0,0.0,0.0,0.0,0.0,0.0,0.0,0.0,0.0,0.0,0.0,0.0,0.0,0.0,0.0,0.0,0.0,0.0,0.0,0.0,0.0,0.0,0.0,0.0,0.0,0.0,0.0,0.0,0.0,0.0,0.0,0.0,0.0,0.0,0.0,0.0,0.0,0.0,0.0,0.0,0.0,0.0,0.0,0.0,0.0,0.0,0.0,0.0,0.0,0.0,0.0,0.0,0.0,0.0,0.0,0.0,0.0,0.0,0.0,0.0,0.0,0.0,0.0,0.0,0.0,0.0,0.0,0.0,0.0,0.0,0.0,0.0,0.0,0.0,0.0,0.0,0.0,0.0,0.0,0.0,0.0,0.0,0.0,0.0,0.0,0.0,0.0,0.0,0.0,0.0,0.0,0.0,0.0,0.0,0.0,0.0,0.0,0.0,0.0,0.0,0.0,0.0,0.0,0.0,0.0,0.0,0.0,0.0,0.0,0.0,0.0,0.0,0.0,0.0,0.0,0.0,0.0,0.0,0.0,0.0,0.0,0.0,0.0,0.0,0.0,0.0,0.0,0.0,0.0,0.0,0.0,0.0,0.0,0.0,0.0,0.0,0.0,0.0,0.0,0.0,0.0,0.0,0.0,0.0,0.0,0.0,0.0,0.0,0.0,0.0,0.0,0.0,0.0,0.0,0.0,0.0,0.0,0.0,0.0,0.0,0.0,0.0,0.0,0.0,0.0,0.0,0.0,0.0,0.0,0.0,0.0,0.0,0.0,0.0,0.0,0.0,0.0,0.0,0.0,0.0,0.0,0.0,0.0,0.0,0.0,0.0,0.0,0.0,0.0,0.0,0.0,0.0,0.0,0.0,0.0,0.0,0.0,0.0,0.0,0.0,0.0,0.0,0.0,0.0,0.0,0.0,0.0,0.0,0.0,0.0,0.0,0.0,0.0,0.0,0.0,0.0,0.0,0.0,0.0,0.0,0.0,0.0,0.0,0.0,0.0,0.0,0.0,0.0,0.0,0.0,0.0,0.0,0.0,0.0,0.0,0.0,0.0,0.0,0.0,0.0,0.0,0.0,0.0,0.0,0.0,0.0,0.0,0.0,0.0,0.0,0.0,0.0,0.0,0.0,0.0,0.0,0.0,0.0,0.0,0.0,0.0,0.0,0.0,0.0,0.0,0.0,0.0,0.0,0.0,0.0,0.0,0.0,0.0,0.0,0.0,0.0,0.0,0.0,0.0,0.0,0.0,0.0,0.0,0.0,0.0,0.0,0.0,0.0,0.0,0.0,0.0,0.0,0.0,0.0,0.0,0.0,0.0,0.0,0.0,0.0,0.0,0.0,0.0,0.0,0.0,0.0,0.0,0.0,0.0,0.0,0.0,0.0,0.0,0.0,0.0,0.0,0.0,0.0,0.0,0.0,0.0,0.0,0.0,0.0,0.0,0.0,0.0,0.0,0.0,0.0,0.0,0.0,0.0,0.0,0.0,0.0,0.0,0.0,0.0,0.0,0.0,0.0,0.0,0.0,0.0,0.0,0.0,0.0,0.0,0.0,0.0,0.0,0.0,0.0,0.0,0.0,0.0,0.0,0.0,0.0,0.0,0.0,0.0,0.0,0.0,0.0,0.0,0.0,0.0,0.0,0.0,0.0,0.0,0.0,0.0,0.0,0.0,0.0,0.0,0.0,0.0,0.0,0.0,0.0,0.0,0.0,0.0,0.0,0.0,0.0,0.0,0.0,0.0,0.0,0.0,0.0,0.0,0.0,0.0,0.0,0.0,0.0,0.0,0.0,0.0,0.0,0.0,0.0,0.0,0.0,0.0,0.0,0.0,0.0,0.0,0.0,0.0,0.0,0.0,0.0,0.0,0.0,0.0,0.0,0.0,0.0,0.0,0.0,0.0,0.0,0.0,0.0,0.0,0.0,0.0,0.0,0.0,0.0,0.0,0.0,0.0,0.0,0.0,0.0,0.0,0.0,0.0,0.0,0.0,0.0,0.0,0.0,0.0,0.0,0.0,0.0,0.0,0.0,0.0,0.0,0.0,0.0,0.0,0.0,0.0,0.0,0.0,0.0,0.0,0.0,0.0,0.0,0.0,0.0,0.0,0.0,0.0,0.0,0.0,0.0,0.0,0.0,0.0,0.0,0.0,0.0,0.0,0.0,0.0,0.0,0.0,0.0,0.0,0.0,0.0,0.0,0.0,0.0,0.0,0.0,0.0,0.0,0.0,0.0,0.0,0.0,0.0,0.0,0.0,0.0,0.0,0.0,0.0,0.0,0.0,0.0,0.0,0.0,0.0,0.0,0.0,0.0,0.0,0.0,0.0,0.0,0.0,0.0,0.0,0.0,0.0,0.0,0.0,0.0,0.0,0.0,0.0,0.0,0.0,0.0,0.0,0.0,0.0,0.0,0.0,0.0,0.0,0.0,0.0,0.0,0.0,0.0,0.0,0.0,0.0,0.0,0.0,0.0,-6.2136,0.0,0.0,0.0,0.0,0.0,0.0,0.0,0.0,0.0,0.0,0.0,0.0,0.0,0.0,0.0,0.0,0.0,0.0,0.0,0.0,0.0,0.0,0.0,0.0,-6.0781,-6.0781,-6.0781,-6.0781,-6.0781,-6.0781,0.0,0.0,0.0,0.0,0.0,-6.0127,-5.9704,-5.9511,-5.9511,-5.9511,-5.9704,-6.0127,-5.9704,-5.9511,-5.9511,0.0,0.0,0.0,0.0,0.0,0.0,0.0,0.0,0.0,0.0,0.0,0.0,0.0,0.0,0.0,0.0,0.0,0.0,0.0,0.0,0.0,0.0,0.0,0.0,0.0,0.0,0.0,0.0,0.0,0.0,0.0,0.0,0.0,0.0,0.0,0.0,0.0,0.0,0.0,0.0,0.0,0.0,0.0,0.0,0.0,0.0,0.0,0.0,0.0,0.0,0.0,0.0,0.0,0.0,0.0,0.0,0.0,0.0,0.0,0.0,0.0,0.0,0.0,0.0,0.0,0.0,0.0,0.0,0.0,0.0,0.0,-6.2921,0.0,0.0,0.0,0.0,0.0,0.0,0.0,0.0,0.0,0.0,0.0,0.0,0.0,0.0,0.0,0.0,0.0,0.0,0.0,0.0,0.0,-6.0781,-6.0781,-6.0781,-6.0781,-6.0781,-6.0781,-6.0781,-6.0781,-6.0781,0.0,0.0,-6.0781,-6.0781,-6.0781,-6.0781,-6.0781,-6.0781,-6.0935,-6.1089,-6.1243,-6.1243,-6.132,-6.1435,-6.1012,0.0,0.0,0.0,0.0,0.0,0.0,0.0,0.0,0.0,0.0,0.0,0.0,0.0,0.0,0.0,0.0,0.0,0.0,0.0,0.0,0.0,0.0,0.0,0.0,0.0,0.0,0.0,0.0,0.0,0.0,0.0,0.0,0.0,0.0,0.0,0.0,0.0,0.0,0.0,0.0,0.0,0.0,0.0,0.0,0.0,0.0,0.0,0.0,0.0,0.0,0.0,0.0,0.0,0.0,0.0,0.0,0.0,0.0,0.0,0.0,0.0,0.0,0.0,-6.5859,-6.6397,-6.7205,-6.7205,-6.7975,-6.9115,-6.6128,-6.4614,-6.42,0.0,0.0,0.0,0.0,0.0,0.0,0.0,0.0,0.0,0.0,0.0,0.0,0.0,0.0,0.0,0.0,0.0,0.0,0.0,0.0,-6.0781,-6.0781,-6.0781,-6.0781,-6.0781,-6.0781,-6.0781,-6.0781,-6.0781,-6.0781,-6.0781,-6.0781,-6.0781,-6.0781,-6.0781,-6.0781,-6.0781,-6.1562,-6.2281,-6.2974,-6.2974,-6.3358,-6.4012,-6.1781,-6.0781,-6.0781,0.0,0.0,0.0,0.0,0.0,0.0,0.0,0.0,0.0,0.0,0.0,0.0,0.0,0.0,0.0,0.0,0.0,0.0,0.0,0.0,0.0,0.0,0.0,0.0,0.0,0.0,0.0,0.0,0.0,0.0,0.0,0.0,0.0,0.0,0.0,0.0,0.0,0.0,0.0,0.0,0.0,-6.0781,-6.0781,0.0,0.0,0.0,0.0,0.0,0.0,0.0,0.0,0.0,0.0,0.0,0.0,0.0,0.0,-6.5897,-6.7859,-6.9244,-7.009,-7.0821,-7.1668,-7.2514,-7.2514,-7.2629,-7.2783,-7.1552,0.0,-6.7641,-6.6064,0.0,0.0,0.0,0.0,0.0,0.0,0.0,0.0,0.0,0.0,0.0,0.0,0.0,0.0,0.0,0.0,0.0,0.0,0.0,0.0,0.0,-6.1243,-6.1524,-6.1524,-6.2397,-6.2551,-6.1601,-6.1935,-6.1781,-6.0819,-6.0781,-6.0781,-6.0781,-6.0781,-6.1243,-6.2204,-6.3551,-6.4628,-6.5436,-6.5936,-6.6359,-6.6654,-6.483,-6.3092,-6.1512,-6.1012,0.0,0.0,0.0,0.0,0.0,0.0,0.0,0.0,0.0,0.0,0.0,0.0,0.0,0.0,0.0,0.0,0.0,0.0,0.0,0.0,0.0,0.0,0.0,0.0,0.0,0.0,0.0,0.0,0.0,0.0,0.0,0.0,0.0,0.0,0.0,0.0,0.0,0.0,0.0,-6.055,-6.0781,-6.0781,-6.0781,-6.0781,0.0,0.0,0.0,0.0,0.0,0.0,0.0,0.0,0.0,-6.6115,-6.7821,-6.9167,-7.0167,-7.1283,-7.2245,-7.3053,-7.3437,-7.4053,-7.4899,-7.4899,-7.5168,-7.5592,-7.4707,-7.3437,-7.1668,-6.8052,-6.5859,-6.4589,0.0,0.0,0.0,0.0,0.0,-6.2974,0.0,0.0,0.0,0.0,0.0,0.0,0.0,0.0,0.0,0.0,0.0,0.0,-6.1089,-6.1897,-6.2397,-6.2397,-6.3551,-6.3666,-6.2216,-6.2435,-6.2089,-6.0858,-6.0781,-6.0781,-6.0781,-6.1204,-6.2166,-6.3628,-6.559,-6.7051,-6.809,-6.8717,-6.9127,-6.9281,-6.7859,-6.5638,-6.2836,-6.1671,-6.0952,-6.0585,0.0,0.0,0.0,0.0,0.0,0.0,0.0,0.0,0.0,0.0,0.0,0.0,0.0,0.0,0.0,0.0,0.0,0.0,0.0,0.0,0.0,0.0,0.0,0.0,0.0,0.0,0.0,0.0,0.0,0.0,0.0,0.0,0.0,0.0,0.0,0.0,0.0,-6.0704,-6.105,-6.0819,-6.1012,-6.105,0.0,0.0,0.0,0.0,0.0,0.0,-6.3332,-6.559,-6.7628,-6.9321,-7.1014,-7.2514,-7.3783,-7.4245,-7.4899,-7.5668,-7.5899,-7.6476,-7.7284,-7.7284,-7.7553,-7.79,-7.7015,-7.6015,-7.4707,-7.0244,-6.7667,-6.632,-6.3974,-6.2947,-6.282,-6.3666,-6.3974,-6.4205,0.0,0.0,0.0,0.0,0.0,0.0,0.0,0.0,0.0,0.0,0.0,-6.1127,-6.1947,-6.2743,-6.3243,-6.3243,-6.332,-6.3012,-6.2178,-6.1358,-6.0896,-6.0781,-6.0781,-6.0781,-6.0781,-6.2358,-6.3628,-6.4551,-6.7051,-6.9129,-7.0706,-7.07,-7.1132,-7.1862,-7.0071,-6.7729,-6.4993,-6.2971,-6.1863,-6.1359,-6.0273,0.0,0.0,0.0,0.0,0.0,0.0,0.0,0.0,0.0,0.0,0.0,0.0,0.0,0.0,0.0,0.0,0.0,0.0,0.0,0.0,0.0,0.0,0.0,0.0,0.0,0.0,0.0,0.0,0.0,0.0,0.0,0.0,0.0,0.0,0.0,0.0,0.0,0.0,-6.0896,-6.1524,0.0,0.0,0.0,0.0,-6.1985,-6.2781,-6.432,-6.6705,-6.8552,-7.0283,-7.1937,-7.363,-7.4553,-7.463,-7.6284,-7.7515,-7.8323,-7.9169,-8.0015,-8.0823,-8.0823,-8.0439,-7.9631,-7.8746,-7.7438,-7.5745,-7.3053,-7.0475,-6.809,-6.6397,-6.5205,-6.4589,-6.5436,-6.5782,-6.6013,0.0,0.0,0.0,0.0,0.0,-6.0781,-6.0781,-6.0781,-6.0781,-6.0781,-6.0781,-6.132,-6.2704,-6.4128,-6.5397,-6.6513,-6.6577,-6.6013,-6.4628,-6.3205,-6.1935,-6.0858,-6.0781,-6.105,-6.1639,-6.3281,-6.5089,-6.7051,-6.959,-7.1678,-7.3289,-7.4373,-7.5019,-7.5187,-7.3701,-7.2227,-7.0497,-6.5394,-6.2694,-6.1667,-6.0033,-5.927,0.0,0.0,0.0,0.0,0.0,0.0,0.0,0.0,0.0,0.0,0.0,0.0,0.0,0.0,0.0,0.0,0.0,0.0,0.0,0.0,0.0,0.0,0.0,0.0,0.0,0.0,0.0,0.0,0.0,0.0,0.0,0.0,0.0,0.0,0.0,0.0,0.0,-6.3205,-6.4012,0.0,-6.482,-6.4859,-6.5205,-6.609,-6.7436,-6.8821,-7.0283,-7.1975,-7.3707,-7.5438,-7.6553,-7.7669,-7.8823,-7.9438,-7.99,-8.0169,-8.0477,-8.0785,-8.1093,-8.1093,-8.0631,-7.9785,-7.9477,-7.84,-7.6707,-7.5245,-7.2822,-6.986,-6.8167,-6.6974,-6.6244,-6.6551,-6.6667,-6.6821,0.0,0.0,0.0,0.0,-6.0491,-6.0358,-6.0358,-6.0358,-6.0358,-6.0358,-6.0627,-6.1666,-6.3935,-6.5436,-6.6974,-6.8706,-6.8321,-6.7244,-6.5551,-6.3589,-6.1973,-6.0858,-6.0781,-6.132,-6.2474,-6.4436,-6.6705,-6.9244,-7.1755,-7.3726,-7.505,-7.6101,-7.6744,-7.693,-7.602,-7.5187,-7.4081,-6.8711,-6.5216,-6.3049,-6.0829,-5.9709,-5.9346,0.0,0.0,0.0,0.0,0.0,0.0,0.0,0.0,0.0,0.0,0.0,0.0,0.0,0.0,0.0,0.0,0.0,0.0,0.0,0.0,0.0,0.0,0.0,0.0,0.0,0.0,0.0,0.0,0.0,0.0,0.0,0.0,0.0,0.0,0.0,-6.4589,-6.5743,-6.6898,-6.7782,-6.8321,-6.8359,-6.8744,-6.9629,-7.0975,-7.2283,-7.3399,-7.5053,-7.663,-7.8092,-7.8938,-7.9939,-8.1093,-8.1093,-8.1093,-8.1093,-8.1093,-8.1093,-8.1093,-8.1093,-8.0631,-7.9785,-7.9477,-7.8592,-7.7207,-7.6361,-7.4476,-7.1975,-7.0014,-6.8898,-6.8359,-6.809,-6.7975,-6.8013,0.0,0.0,0.0,-6.0161,-5.9843,-5.9473,-5.9473,-5.9473,-5.9511,-5.9511,-6.0281,-6.2127,-6.5551,-6.6667,-6.7859,-6.9629,-6.8167,-6.6436,-6.4743,-6.2243,-6.0819,-6.0819,-6.0858,-6.1666,-6.3397,-6.5897,-6.8436,-7.0975,-7.3442,-7.5088,-7.5918,-7.5797,-7.6174,-7.696,-7.6835,-7.6341,-7.5465,-7.2776,-6.9449,-6.5652,-6.2738,-6.145,-6.1085,0.0,0.0,0.0,0.0,0.0,0.0,0.0,0.0,0.0,0.0,0.0,0.0,0.0,0.0,0.0,0.0,0.0,0.0,0.0,0.0,0.0,0.0,0.0,0.0,0.0,0.0,0.0,0.0,0.0,0.0,0.0,0.0,0.0,-6.2178,-6.4397,-6.6667,-6.8359,-7.0052,-7.1052,-7.1091,-7.1091,-7.1475,-7.2322,-7.3206,-7.4437,-7.6053,-7.7707,-7.8977,-7.9823,-8.0669,-8.1093,-8.1093,-8.1093,-8.1093,-8.1093,-8.1093,-8.1093,-8.1093,-8.1093,-8.0592,-7.9708,-7.8861,-7.8015,-7.7169,-7.6322,-7.5476,-7.4437,-7.1937,-7.0975,-7.0821,-7.0014,-6.9706,-6.959,0.0,0.0,-5.9088,-5.8574,-5.9037,-5.9319,-5.8704,-5.9127,-5.9511,-5.9511,-6.0819,-6.3024,-6.6397,-6.809,-6.9667,-7.136,-6.9398,-6.7321,-6.5667,-6.2551,-6.1089,-6.1716,-6.2281,-6.3705,-6.6013,-6.7975,-7.0179,-7.2621,-7.4604,-7.5941,-7.6738,-7.7862,-7.8539,-7.87,-7.8256,-7.8123,-7.8024,-7.4698,-7.2327,-7.0379,-6.4836,-6.1874,-6.0691,0.0,0.0,0.0,0.0,0.0,0.0,0.0,0.0,0.0,0.0,0.0,0.0,0.0,0.0,0.0,0.0,0.0,0.0,0.0,0.0,0.0,0.0,0.0,0.0,0.0,0.0,0.0,0.0,0.0,0.0,0.0,0.0,-6.3897,-6.3897,-6.7167,-7.0167,-7.1898,-7.3591,-7.4861,-7.5476,-7.5553,-7.5861,-7.6707,-7.7592,-7.8554,-7.9631,-8.0131,-8.0477,-8.0746,-8.0977,-8.1093,-8.1093,-8.1093,-8.1093,-8.1093,-8.1093,-8.1093,-8.1093,-8.1093,-8.0285,-7.8823,-7.8592,-7.7669,-7.6284,-7.5438,-7.4938,-7.4591,-7.3283,-7.2399,-7.1745,-7.086,-7.0206,-6.959,0.0,-5.7644,-5.7947,-5.7639,-5.7953,-5.8127,-5.7808,-5.8473,-5.9011,-5.9011,-6.0819,-6.3371,-6.6705,-6.7705,-6.8936,-7.0975,-6.8475,-6.6244,-6.4897,-6.2627,-6.1704,-6.2551,-6.3743,-6.5743,-6.8629,-7.0052,-7.2126,-7.4896,-7.5895,-7.677,-7.7549,-7.8185,-7.882,-7.9403,-7.875,-7.8808,-7.9187,-7.6652,-7.4717,-7.2898,-6.8333,-6.511,-6.2929,-6.154,-6.0923,-6.0762,-6.0174,-6.0071,-6.0093,-5.935,0.0,0.0,0.0,0.0,0.0,0.0,0.0,0.0,0.0,0.0,0.0,0.0,0.0,0.0,0.0,0.0,0.0,0.0,0.0,0.0,0.0,0.0,0.0,0.0,-6.5166,-6.7128,-6.8167,-7.0437,-7.2899,-7.5322,-7.6784,-7.7938,-7.8823,-7.89,-7.9092,-7.9554,-8.0054,-8.0554,-8.1054,-8.1093,-8.1093,-8.1093,-8.1093,-8.1093,-8.1093,-8.1093,-8.1093,-8.1093,-8.1093,-8.09,-8.0554,-8.0554,-7.9785,0.0,-7.813,-7.7438,-7.6438,-7.5207,-7.4707,0.0,0.0,0.0,0.0,0.0,-6.986,-6.9052,0.0,-5.6313,-5.6584,-5.6964,-5.674,-5.6575,-5.6824,-5.7588,-5.8204,-5.828,-6.0435,-6.3217,-6.6436,-6.6282,-6.6859,-6.9206,-6.6474,-6.4205,-6.3243,-6.2666,-6.282,-6.382,-6.5628,-6.8129,-7.1398,-7.2322,-7.424,-7.7239,-7.7354,-7.7707,-7.8316,-7.7703,-7.8179,-7.9467,-7.882,-7.885,-7.9396,-7.8284,-7.6446,-7.4155,-7.2234,-6.9522,-6.6429,-6.4191,-6.3763,-6.4156,-6.273,-6.1781,-6.1029,-6.013,0.0,0.0,0.0,0.0,0.0,0.0,0.0,0.0,0.0,0.0,0.0,0.0,0.0,0.0,0.0,0.0,0.0,0.0,0.0,0.0,0.0,0.0,0.0,0.0,-6.7821,-7.0937,-7.3668,-7.4168,-7.5322,-7.8284,-7.94,-8.0246,-8.1016,-8.1093,-8.1093,-8.1093,-8.1093,-8.1093,-8.1093,0.0,0.0,0.0,0.0,-8.1093,-8.1093,-8.1093,-8.1093,-8.1093,-8.1093,-8.0631,-7.9823,-7.99,-7.9361,-7.8323,-7.7707,-7.7323,-7.7015,-7.5284,-7.4437,-7.413,-7.2745,-7.2129,-7.186,-7.0283,-6.9167,0.0,0.0,-5.5511,-5.5693,-5.5352,-5.5978,-5.6371,-5.6017,-5.6714,-5.7511,-5.8204,-5.9896,-6.2089,-6.4782,-6.5551,-6.6359,-6.7513,-6.5743,-6.3935,-6.2435,-6.3435,-6.5089,-6.7308,-6.9706,-7.2245,-7.4938,-7.5861,-7.6908,-7.8161,-7.8852,-7.8913,-7.8414,-7.9604,-7.9972,-7.9648,-7.9738,-7.9762,-7.9675,-7.7976,-7.6886,-7.608,-7.3369,-7.033,-6.7347,-6.6245,-6.5511,-6.4985,-6.4082,-6.369,-6.3211,-6.1251,-6.0484,-6.0137,-5.8843,-5.8828,0.0,0.0,0.0,0.0,0.0,0.0,0.0,0.0,0.0,0.0,0.0,0.0,0.0,0.0,0.0,0.0,0.0,0.0,0.0,-6.7051,-6.9937,-7.3091,-7.6976,-7.813,-7.8823,-7.9477,-8.0323,-8.09,-8.1093,-8.1093,-8.1093,-8.1093,-8.1093,-8.1093,-8.1093,-8.1093,0.0,-8.1093,-8.1093,-8.1093,-8.1093,-8.1093,-8.1093,-8.1093,0.0,0.0,-7.9823,-8.0516,-7.9631,-7.7553,-7.8054,-7.7476,-7.613,-7.4437,-7.2899,-7.1668,-7.2052,-7.1783,-7.1014,-7.0052,-6.9167,-6.8282,0.0,-5.4689,-5.4903,-5.4822,-5.5407,-5.5848,-5.5709,-5.6445,-5.733,-5.8204,-5.9742,-6.1589,-6.3743,-6.3974,-6.4166,-6.4563,-6.3012,-6.205,-6.2101,-6.4436,-6.6974,-6.9552,-7.2514,-7.5091,-7.7207,-7.7669,-7.8485,-7.9659,-7.9745,-7.9937,-8.0312,-8.0322,-8.0568,-8.0975,-8.0221,-8.0064,-8.0258,-7.8728,-7.7816,-7.7088,-7.467,-7.2496,-7.055,-6.9376,-6.8536,-6.7959,-6.7358,-6.6679,-6.5798,-6.4062,-6.2798,-6.1745,-6.055,-6.0191,-5.999,0.0,0.0,0.0,0.0,0.0,0.0,0.0,0.0,0.0,0.0,0.0,0.0,0.0,0.0,-6.0935,-6.132,0.0,-6.6513,-7.0321,-7.2706,-7.5284,-7.8669,-7.99,-8.0439,-8.0439,-8.0823,-8.1093,-8.1093,-8.1093,-8.1093,-8.1093,-8.1093,-8.1093,-8.1093,-8.1093,-8.1093,-8.1093,-8.1093,-8.1093,-8.1093,-8.1093,-8.1093,-8.1093,-8.1093,-8.0631,-7.9823,-7.9785,-7.8861,-7.7284,-7.7246,-7.6784,-7.5899,-7.463,-7.3091,-7.1591,-7.2014,-7.1398,-7.0206,-6.936,-6.8513,-6.7628,0.0,-5.4184,-5.4397,-5.4746,-5.5009,-5.5326,-5.5671,-5.6291,-5.7049,-5.7934,-5.9358,-6.0819,-6.2192,-6.1897,-6.1524,-6.1358,-6.0358,-6.0473,-6.2204,-6.5474,-6.8629,-7.1514,-7.4745,-7.7284,-7.8977,-7.9015,-7.9715,-8.1189,-8.06,-8.0946,-8.2188,-8.0907,-8.0939,-8.2016,-8.0591,-8.0229,-8.0558,-7.9632,-7.8709,-7.7617,-7.5939,-7.4742,-7.378,-7.2426,-7.1488,-7.0791,-7.0091,-6.8741,-6.7085,-6.5784,-6.4117,-6.2485,-6.1826,-6.1311,-6.0804,-5.9866,-5.9658,0.0,0.0,0.0,0.0,0.0,0.0,0.0,0.0,0.0,-5.905,-6.005,-6.1627,-6.3089,-6.3897,-6.6821,-7.0167,-7.3245,-7.5284,-7.7323,-7.9708,-8.0669,-8.1093,-8.1093,-8.1093,-8.1093,-8.1093,-8.1093,-8.1093,-8.1093,-8.1093,-8.1093,-8.1093,-8.1093,-8.1093,-8.1093,-8.1093,-8.1093,-8.1093,-8.1093,-8.1093,-8.1093,-8.1093,-8.0554,-7.9515,-7.9015,-7.813,-7.7015,-7.6284,-7.5899,-7.5707,-7.4976,-7.3707,-7.2206,-7.2206,-7.1283,-6.9821,-6.8975,-6.809,-6.7244,0.0,-5.4557,-5.4397,-5.4746,-5.4821,-5.505,-5.5599,-5.578,-5.6165,-5.7022,-5.7973,-5.8665,-5.8858,-5.9435,-5.9511,-5.8781,-5.9896,-6.1358,-6.3051,-6.6359,-7.0052,-7.4091,-7.6823,-7.9015,-8.0785,-8.0823,-8.1246,-8.2154,-8.2054,-8.2131,-8.2269,-8.2093,-8.1747,-8.1246,-8.1038,-8.0622,-8.0065,-7.9964,-7.9198,-7.7987,-7.7033,-7.5928,-7.472,-7.4247,-7.2899,-7.1038,-6.9587,-6.7292,-6.473,-6.3171,-6.1807,-6.0791,-6.068,-6.0946,-6.1095,-6.019,-5.9731,-5.9126,-5.7647,-5.6593,-5.6055,-5.6703,-5.6945,-5.7407,0.0,0.0,-6.0973,-6.2551,-6.4243,-6.5705,-6.6513,-6.9475,-7.2399,-7.4245,-7.663,-7.8861,-8.0708,-8.1054,-8.1093,-8.1093,-8.1093,-8.1093,-8.1093,-8.1093,-8.1093,-8.1093,-8.1093,-8.1093,-8.1093,-8.1093,-8.1093,-8.1093,-8.1093,-8.1093,-8.1093,-8.1093,-8.1093,-8.1093,-8.1093,-8.0246,-7.8669,-7.9361,-7.8361,-7.613,-7.6053,-7.5553,-7.4861,-7.4745,-7.3707,-7.2206,-7.2206,-7.1591,-7.0667,-6.986,-6.9013,-6.8129,0.0,0.0,-5.4196,-5.4716,-5.4952,-5.5211,-5.566,-5.5703,-5.6011,-5.6907,-5.733,-5.7742,-5.8242,-5.8165,-5.7896,-5.755,-5.8665,-6.0704,-6.3858,-6.7705,-7.1745,-7.6015,-7.8631,-8.0362,-8.1093,-8.1093,-8.1246,-8.1593,-8.1593,-8.1823,-8.2285,-8.1823,-8.167,-8.1785,-8.1238,-8.0788,-8.0467,-8.0142,-7.9654,-7.9034,-7.7952,-7.6593,-7.497,-7.3378,-7.1016,-6.8506,-6.8592,-6.7128,0.0,-6.2902,-6.1807,-6.1071,-6.0316,-6.0121,-5.9977,-5.9136,-5.8847,-5.8516,-5.7308,-5.6742,-5.656,-5.6907,-5.8099,-5.9523,-6.0742,-6.205,-6.3474,-6.5166,-6.6898,-6.8513,-6.9821,-7.2437,-7.4976,0.0,-7.8246,-7.9708,-8.0939,-8.0669,-7.9977,-7.9015,-7.89,-7.9477,-8.0977,-8.1093,-8.1093,-8.1093,-8.1093,-8.1093,-8.1093,-8.1093,-8.1093,-8.1093,-8.1093,-8.1093,-8.1093,-8.1093,-8.1093,-8.1093,-8.1093,-8.0439,-7.9246,-7.9092,-7.7938,-7.6015,-7.6015,-7.5515,-7.4707,-7.4707,-7.3707,-7.2206,-7.2206,-7.1668,-7.0783,-7.0014,-6.9167,-6.8282,0.0,0.0,0.0,-5.4685,-5.4995,-5.5301,-5.5621,-5.5703,-5.5934,-5.656,-5.6868,-5.7253,-5.7857,-5.7165,-5.6637,-5.6637,-5.7434,-5.955,-6.332,-6.7282,-7.1437,-7.5707,-7.8554,-8.0362,-8.1093,-8.1093,-8.1323,-8.1785,-8.1554,-8.1862,-8.2631,-8.1823,-8.1747,-8.2247,-8.1375,-8.091,-8.0809,-8.0391,-8.0083,-7.982,-7.8592,-7.6701,-7.435,-7.1977,-6.8679,-6.5448,-6.6373,-6.5342,-6.3226,-6.1594,-6.0825,-6.047,-5.9749,-5.9407,-5.9204,-5.8528,-5.8092,-5.7689,-5.7143,-5.7165,-5.7522,-5.8215,-5.9973,-6.182,-6.3178,-6.4589,-6.6128,-6.7782,-6.9321,-7.0821,-7.2283,-7.463,-7.6746,-7.7977,-7.9285,-8.0285,-8.0708,-7.9785,-7.8554,-7.7092,-7.6322,-7.6784,-7.9092,-7.9785,-8.0246,-8.0708,-8.0746,-8.0862,-8.1093,-8.1093,-8.1093,-8.1093,-8.1093,-8.1093,-8.1093,-8.1093,-8.1093,-8.1093,-8.1093,-8.0516,-7.94,-7.8323,-7.713,-7.6015,-7.6015,-7.563,-7.5053,-7.5053,-7.4053,-7.2552,-7.2552,-7.186,-7.0821,-7.0244,-6.936,-6.8282,0.0,0.0,0.0,0.0,-5.4806,-5.5023,-5.5599,-5.5703,-5.5703,-5.5742,-5.6483,-5.7022,-5.706,-5.6252,-5.5742,-5.5742,-5.656,-5.8138,-6.0742,-6.4128,-6.7936,-7.2168,-7.5592,-7.8554,-8.1054,-8.1093,-8.19,-8.3516,-8.267,-8.2708,-8.3516,-8.267,-8.2285,-8.2247,-8.1439,-8.1007,-8.0871,-8.0826,-8.043,-7.982,-7.8879,-7.6186,-7.256,-7.0506,-6.6673,-6.2367,-6.2517,-6.0763,-5.8274,-5.794,-5.7774,-5.7844,-5.8591,-5.9112,-5.9331,-5.8994,-5.7769,-5.6626,-5.6917,-5.7627,-5.8858,-6.132,-6.2589,-6.3897,-6.6359,-6.7628,-6.8783,-7.0437,-7.1514,-7.2399,-7.3322,-7.5553,-7.7284,-7.7323,-7.9438,-8.0785,-7.9939,-7.84,-7.7053,-7.613,-7.386,-7.3014,0.0,-7.6438,-7.8092,-7.9708,-7.9862,-8.0208,-8.1054,-8.1093,-8.1093,-8.1093,-8.1093,-8.1093,-8.1093,-8.1093,-8.1093,-8.1093,-8.1093,-8.0208,-7.8477,-7.6823,-7.6053,-7.6015,-7.6015,-7.5976,-7.5976,-7.5976,-7.4976,-7.3476,-7.3476,-7.2399,-7.0898,-7.086,-6.9821,-6.8282,0.0,0.0,0.0,0.0,0.0,-5.5237,-5.5621,-5.5703,-5.5703,-5.5703,-5.5972,0.0,0.0,0.0,0.0,0.0,-5.6522,-5.8099,-6.0627,-6.4012,-6.7013,-6.959,-7.4014,-7.6553,-7.6861,-7.8515,-7.9631,-8.0208,-8.0516,-8.0516,-8.0246,-8.1093,-8.1208,-8.0669,-8.0977,-8.1045,-8.0849,-8.0344,-7.9002,-7.7134,-7.5986,-7.2846,-6.8621,-6.6556,-6.3448,-6.0059,0.0,-5.7791,-5.6753,-5.5635,-5.5562,-5.5992,-5.5959,-5.6404,-5.6871,-5.6798,-5.6798,-5.6986,-5.7681,-5.9319,-6.1166,-6.2551,-6.4359,-6.6205,-6.7628,-6.8629,-6.959,-7.0667,-7.0706,-7.0629,-7.0937,-7.2129,-7.3437,-7.4591,-7.6938,-7.8477,-7.8169,-7.813,-7.6515,-7.2322,-7.2052,0.0,0.0,0.0,0.0,-7.8746,-7.8938,-7.9554,-8.1016,-8.1093,-8.1093,-8.1093,-8.1093,-8.1093,-8.1093,-8.1093,-8.1093,-8.1093,-7.9939,-7.9054,-7.8438,-7.6746,-7.5668,-7.5168,-7.5745,-7.5361,-7.4399,-7.4938,-7.4168,-7.2629,-7.2629,-7.1937,-7.0898,-7.0898,-7.0206,-6.9129,0.0,0.0,0.0,0.0,0.0,0.0,0.0,0.0,0.0,0.0,0.0,0.0,0.0,0.0,0.0,0.0,0.0,-5.7368,-5.9319,-6.205,-6.4359,-6.609,-7.0167,-7.2399,-7.2437,-7.4053,-7.5053,-7.5361,-7.5938,-7.5899,-7.5399,-7.6784,-7.7323,-7.7092,-7.7669,-7.8023,-7.8208,-7.7378,-7.6094,-7.4382,-7.2592,-6.9467,-6.5565,-6.3345,-6.0601,0.0,-5.6466,-5.585,-5.5586,-5.4613,-5.4678,-5.5157,-5.4857,-5.5094,-5.5585,-5.6017,-5.6686,-5.7639,-5.9219,-6.1281,-6.332,-6.4782,-6.659,-6.8321,-6.9475,-6.9937,-7.0283,-7.0783,-6.9744,-6.8667,-6.8398,-6.9013,-6.9898,-7.1014,-7.336,-7.5245,-7.5861,-7.5322,-7.3822,-7.0937,-7.0206,-6.9436,0.0,0.0,0.0,-7.6861,-7.7707,-7.8823,-8.0554,-8.0939,-8.1093,-8.1093,-8.1093,-8.1093,-8.1093,-8.1093,-8.0939,-8.0631,-7.9169,-7.8376,-7.8015,-7.663,-7.5707,-7.5207,-7.5745,-7.5399,-7.4437,-7.4938,-7.4168,-7.2706,-7.2976,-7.2206,-7.0937,-7.1245,-7.0667,-6.9629,0.0,0.0,0.0,0.0,0.0,0.0,0.0,0.0,0.0,0.0,0.0,0.0,0.0,0.0,0.0,0.0,0.0,0.0,-5.6868,-5.8511,-6.0165,-6.1755,-6.4359,-6.6474,-6.8052,-6.8205,-6.8667,-6.9436,-6.9475,-6.9475,-6.9398,-7.0244,-7.1052,-7.1822,-7.186,-7.236,-7.3115,-7.216,-7.1747,-7.1425,-6.879,-6.6047,-6.3298,-6.0814,-5.8197,-5.5744,-5.5355,-5.5009,-5.4761,-5.4806,-5.5019,-5.5286,-5.5288,-5.5352,-5.5606,-5.6725,-5.7503,-5.8604,-6.1464,-6.3474,-6.5397,-6.7859,-6.909,-7.009,-7.1629,-7.1321,-7.0667,-7.0552,-6.8552,-6.659,0.0,0.0,-6.6859,-6.7051,-6.9244,-7.1514,-7.3245,-7.0821,-6.9667,0.0,0.0,0.0,0.0,0.0,0.0,-7.4399,0.0,-7.7977,-7.9708,-8.0631,-8.1093,-8.1093,-8.1093,-8.1093,-8.1093,-8.1054,-8.0631,-7.9785,-7.8861,-7.8015,-7.7284,-7.6399,-7.5976,-7.5938,-7.5976,-7.5976,-7.5938,-7.5976,-7.5014,-7.3591,-7.4361,-7.3129,-7.1014,-7.1822,-7.1129,-6.9744,0.0,0.0,0.0,0.0,0.0,0.0,0.0,0.0,0.0,0.0,0.0,0.0,0.0,0.0,0.0,0.0,0.0,0.0,-5.6011,-5.7665,-5.8511,-5.833,-6.1935,-6.3897,-6.3705,-6.5551,-6.632,-6.5897,-6.6551,-6.6205,-6.4974,-6.6474,-6.6936,-6.6551,-6.7205,-6.7975,-6.8667,-6.7846,-6.6718,-6.5423,-6.3772,-6.1319,-5.8579,-5.7628,-5.6611,-5.5644,-5.5585,-5.552,-5.5437,-5.5211,-5.5605,-5.6103,-5.5712,-5.6049,-5.6752,-5.7692,-5.8927,-6.0594,-6.3269,-6.5667,-6.7744,-6.9052,-6.9552,-6.9629,-6.9436,-6.8706,-6.7513,-6.5628,-6.4243,-6.3101,0.0,0.0,0.0,-6.659,-6.9244,0.0,-7.3245,-7.4399,0.0,-7.1514,0.0,-7.1091,-6.9821,-7.0629,0.0,0.0,-7.5707,-7.7361,-7.9669,-8.0631,-8.1093,-8.1093,-8.1093,-8.1093,-8.1093,-8.0477,-8.0015,-7.9785,-7.8323,-7.7476,-7.7284,-7.6399,-7.5668,-7.5091,-7.5707,-7.563,-7.5091,-7.5745,-7.5014,-7.3514,-7.3745,-7.2629,-7.0937,-7.1168,-7.0975,-7.0591,0.0,0.0,0.0,0.0,0.0,0.0,0.0,0.0,0.0,0.0,0.0,0.0,0.0,0.0,0.0,0.0,0.0,0.0,0.0,-5.6626,-5.6934,-5.6445,-5.8704,-5.9742,-5.9292,-6.0704,-6.1358,-6.1243,-6.1358,-6.1127,-6.055,-6.1127,-6.155,-6.1858,-6.2358,-6.3205,-6.4282,-6.3435,-6.2512,0.0,0.0,-5.8387,-5.6675,-5.6091,-5.5631,-5.5263,-5.5461,-5.5588,-5.5731,-5.598,0.0,-5.6801,-5.7236,-5.7703,-5.8396,-6.0012,-6.1704,-6.3589,-6.6167,-6.8436,-7.0206,-7.0667,-7.0244,-6.936,-6.8129,-6.659,-6.482,-6.2666,-6.1243,0.0,-5.9781,-5.9704,0.0,0.0,0.0,0.0,-7.1475,-7.3053,-7.363,0.0,-7.2783,0.0,-7.1975,-7.2437,-7.363,0.0,-7.6284,-7.7515,-7.9669,-8.0631,-8.1093,-8.1093,-8.1093,-8.1093,-8.1093,-8.0246,-7.9823,-7.9785,-7.8438,-7.763,-7.7284,-7.6784,-7.6092,-7.5284,0.0,-7.5707,-7.5322,-7.5784,-7.5207,-7.4053,-7.4437,-7.3553,-7.2091,-7.2437,-7.2091,-7.1514,0.0,0.0,0.0,0.0,0.0,0.0,0.0,0.0,0.0,0.0,-5.578,-5.5703,0.0,0.0,0.0,0.0,0.0,0.0,0.0,0.0,-5.5703,-5.5703,-5.5703,-5.5703,-5.5703,-5.5703,-5.6011,-5.6676,-5.5895,-5.5857,-5.6483,-5.5703,-5.6165,-5.7627,-5.7627,-5.8473,-5.9896,-5.9165,-5.8896,-5.8858,-5.7407,-5.6656,-5.6333,0.0,-5.5159,-5.4966,-5.5262,-5.5497,-5.5857,-5.683,-5.7253,-5.7599,-5.9165,-5.9819,-6.0512,-6.3051,-6.4974,-6.6782,-6.936,-7.1168,-7.2322,-7.2206,-7.086,-6.9052,-6.7205,-6.4782,-6.2474,-6.0666,0.0,-5.8165,-5.828,-5.8319,-5.8973,-6.0973,0.0,-6.5974,-6.9398,-7.0052,-7.1321,-7.4361,-7.363,-7.3399,-7.4745,-7.4437,-7.5091,-7.7284,-7.7553,-7.8284,-7.9708,-8.0631,-8.1093,-8.1093,-8.1093,-8.1093,-8.1093,-8.0246,-7.9746,-7.9631,-7.8861,-7.8092,-7.7284,-7.74,-7.6976,-7.6169,0.0,0.0,-7.6015,-7.6015,-7.5476,-7.4784,-7.5515,-7.4861,-7.3591,-7.4284,-7.3553,-7.2322,0.0,0.0,0.0,0.0,0.0,0.0,0.0,0.0,0.0,0.0,-5.6137,-5.5703,0.0,0.0,0.0,0.0,0.0,0.0,0.0,0.0,0.0,-5.5703,-5.5703,-5.5703,-5.5703,-5.5703,-5.5434,-5.4934,-5.478,-5.4434,-5.3857,-5.3703,-5.378,-5.4087,-5.4087,-5.4664,-5.5588,-5.5434,-5.5742,-5.6319,-5.6049,-5.5874,-5.5841,-5.5687,0.0,0.0,-5.5599,-5.5671,-5.5934,-5.755,-5.8511,-5.9242,-6.0242,-6.155,-6.3128,-6.5705,-6.7167,-6.8513,-7.1052,-7.2514,-7.3091,-7.236,-7.0398,-6.8013,-6.559,-6.3051,0.0,0.0,-5.7445,-5.7434,-5.8165,-5.8319,-5.955,-6.332,-6.4936,-6.6859,-7.0206,-7.1937,-7.3322,0.0,-7.5707,-7.6245,0.0,0.0,0.0,0.0,0.0,0.0,-7.9785,-8.0631,-8.1093,-8.1093,-8.1093,-8.1093,-8.1093,-8.0246,-7.9438,-7.8707,-7.8554,-7.8092,-7.7323,-7.7977,-7.7861,-7.7053,0.0,0.0,-7.6015,-7.6015,-7.5476,-7.4707,-7.4861,-7.4361,-7.3514,-7.3654,-7.3053,-7.2206,0.0,0.0,0.0,0.0,0.0,0.0,0.0,-5.6714,-5.7176,-5.7627,-5.7319,-5.6896,-5.6445,-5.678,-5.6703,0.0,0.0,0.0,0.0,0.0,0.0,0.0,0.0,0.0,-5.5703,-5.5703,-5.5742,-5.578,0.0,-5.4511,-5.4472,-5.3626,-5.3433,-5.3895,-5.3895,-5.4357,-5.5126,-5.5126,-5.5357,-5.5703,-5.5703,-5.5703,-5.5703,0.0,0.0,0.0,0.0,-5.5703,-5.5972,-5.7703,-5.8819,-5.9742,-6.105,-6.2627,-6.4474,-6.7013,-6.8706,-7.036,-7.336,-7.4476,-7.4476,-7.3206,-7.0629,-6.7513,-6.4089,0.0,0.0,0.0,-5.6329,-5.6588,-5.7473,-5.7973,0.0,-6.2166,-6.4089,-6.6244,-6.9206,-7.1475,0.0,-7.4553,-7.5822,0.0,0.0,0.0,0.0,0.0,0.0,0.0,-8.0439,-8.0862,-8.09,-8.0439,-8.0862,-8.09,-8.0439,-8.0015,-7.9823,-7.9862,-7.94,-7.8977,-7.8592,-7.9015,-7.8707,-7.79,-7.7476,0.0,-7.663,-7.6207,-7.5745,-7.5399,-7.5399,-7.513,-7.4822,-7.4822,-7.3976,-7.2937,0.0,0.0,0.0,0.0,0.0,0.0,-5.6868,-5.7176,-5.7588,-5.8434,-5.8704,-5.8511,-5.7627,-5.7973,-5.7742,0.0,0.0,0.0,0.0,0.0,0.0,0.0,0.0,0.0,0.0,0.0,0.0,0.0,0.0,0.0,0.0,0.0,0.0,0.0,0.0,0.0,-5.5703,-5.5703,-5.5703,0.0,0.0,0.0,0.0,0.0,0.0,0.0,0.0,-5.5857,-5.5934,-5.7511,-5.8588,-5.9473,-6.0858,-6.282,-6.5051,-6.7436,-6.9436,-7.1552,-7.463,-7.5745,-7.5553,-7.3707,-7.0783,-6.7282,-6.3063,-6.0127,0.0,-5.6049,-5.5857,-5.6242,-5.7126,-5.7973,-5.9127,0.0,-6.2743,-6.4936,-6.7513,-7.0052,-7.2283,0.0,-7.5438,0.0,0.0,0.0,0.0,0.0,0.0,0.0,-8.0746,-8.0631,-8.04,-8.0092,-8.0554,-8.0592,-8.0092,-7.99,-8.0131,-8.0823,-8.0131,-7.9823,-7.9823,-7.9977,-7.9592,-7.8707,-7.79,0.0,0.0,-7.6361,-7.6015,-7.6015,-7.6015,-7.6015,-7.6015,-7.6015,-7.5053,-7.3822,0.0,0.0,0.0,0.0,0.0,0.0,-5.6868,-5.7665,-5.8473,-5.9281,-6.0089,-6.0242,-5.9358,-5.8704,-5.8242,0.0,0.0,0.0,0.0,0.0,0.0,0.0,0.0,0.0,0.0,0.0,0.0,0.0,0.0,0.0,0.0,0.0,0.0,0.0,0.0,0.0,0.0,-5.5703,0.0,0.0,0.0,0.0,0.0,0.0,0.0,0.0,0.0,-5.6368,-5.5857,-5.6791,0.0,-5.8434,-5.8588,-6.1396,-6.4936,-6.6705,0.0,0.0,-7.3206,-7.4861,-7.5399,-7.2937,-7.036,-6.7282,-6.3063,0.0,-5.7819,-5.6049,-5.6329,-5.7137,-5.8011,-5.8858,-5.9973,-6.1716,-6.2178,-6.3217,-6.5782,-6.8321,-7.0552,-7.2206,0.0,0.0,0.0,0.0,0.0,0.0,0.0,0.0,0.0,-7.9169,-7.9438,-8.0939,-8.0285,-8.0246,-8.0977,-8.0208,-7.9862,-7.9939,-7.9862,-7.9823,-7.9823,-8.0631,-8.0516,-7.9631,0.0,0.0,0.0,-7.6361,-7.6015,-7.6015,-7.6015,-7.6015,-7.6015,-7.6015,-7.5399,-7.4514,0.0,0.0,0.0,0.0,0.0,0.0,-5.755,-5.8088,-5.8781,-6.0127,-6.0589,-6.0666,-6.0319,-6.0012,-5.9396,-5.8396,0.0,0.0,0.0,0.0,0.0,0.0,0.0,0.0,0.0,0.0,-5.778,-5.778,-5.8127,0.0,0.0,0.0,0.0,0.0,0.0,0.0,0.0,0.0,0.0,0.0,0.0,0.0,0.0,0.0,0.0,0.0,0.0,0.0,-5.7319,-5.7665,0.0,0.0,-5.7665,-5.9011,0.0,0.0,-6.6628,-6.9321,-7.2629,-7.4361,-7.463,-7.2052,-6.9898,-6.7167,-6.2397,0.0,-5.8088,-5.7396,-5.7126,-5.7291,-5.8127,-5.8973,-5.9742,-6.0435,-6.0973,0.0,-6.4051,-6.5667,-6.7821,0.0,0.0,0.0,0.0,0.0,0.0,0.0,0.0,0.0,0.0,-7.8438,-7.8592,-7.8823,-7.9438,-7.9708,-7.9554,-8.0246,-8.0592,-8.0592,-8.0592,-8.0592,-8.0592,-8.0939,-8.09,-8.0516,0.0,0.0,0.0,-7.6553,-7.6015,-7.6015,-7.6015,-7.6015,-7.6015,-7.6015,-7.5438,-7.4668,0.0,0.0,0.0,0.0,0.0,-5.6203,-5.7703,-5.8127,-5.8819,-6.0242,-6.0627,-6.0781,-6.0781,-6.0781,-6.0319,-5.9127,-5.955,0.0,0.0,0.0,0.0,0.0,0.0,0.0,0.0,0.0,-5.8665,-5.8665,-5.8896,-5.905,0.0,0.0,0.0,0.0,0.0,0.0,0.0,0.0,0.0,0.0,0.0,0.0,0.0,0.0,0.0,0.0,0.0,0.0,0.0,0.0,0.0,-5.8165,-5.7291,-5.7434,-5.8473,-6.1358,-6.3974,-6.6859,-7.0898,-7.2591,-7.2745,-7.0667,-6.8898,-6.6474,0.0,0.0,-5.8588,-5.8357,-5.8011,-5.7934,-5.855,-5.9319,-5.9896,-5.9896,-6.0396,-6.1281,-6.2743,-6.3897,0.0,0.0,0.0,0.0,0.0,0.0,0.0,0.0,0.0,0.0,0.0,-7.7438,-7.7861,-7.8015,-7.8707,-7.9131,-7.9246,-7.9977,-8.0592,-8.1093,-8.0823,-8.0862,-8.1093,-8.0823,-8.0708,-8.0631,0.0,0.0,0.0,-7.6592,-7.6015,-7.6015,-7.6015,-7.6015,-7.6015,-7.6015,-7.563,-7.5053,0.0,0.0,0.0,0.0,0.0,-5.6011,-5.6868,-5.7742,-5.8588,-5.9396,-6.0242,-6.0781,-6.0781,-6.0781,-6.0781,-6.0781,-6.0781,0.0,0.0,0.0,0.0,0.0,0.0,0.0,0.0,0.0,-5.9473,-5.9473,-6.0358,-6.0781,-6.0742,-5.9896,-5.905,0.0,0.0,0.0,0.0,0.0,0.0,0.0,0.0,0.0,-5.9473,0.0,0.0,0.0,0.0,0.0,0.0,0.0,0.0,0.0,0.0,-5.7022,-5.7368,-5.905,-6.1358,-6.4077,-6.7513,-6.909,-6.9552,-6.8667,-6.7167,-6.5013,0.0,-6.0127,-5.9281,-5.8473,-5.8934,-5.9473,-5.9473,-6.0204,-6.0781,-6.0781,-6.0781,-6.1089,-6.1985,-6.3551,0.0,0.0,0.0,0.0,0.0,0.0,0.0,0.0,0.0,0.0,0.0,-7.6015,-7.7169,-7.9708,-7.8169,-7.8515,-8.1054,-7.9361,-7.94,-8.1093,-8.0246,-8.0285,-8.1054,-8.0208,-7.9823,0.0,0.0,0.0,0.0,-7.6361,-7.6015,-7.6015,-7.6015,-7.6015,-7.6015,-7.6015,-7.5976,-7.5861,0.0,0.0,0.0,0.0,0.0,0.0,-5.6868,-5.7742,-5.8588,-5.9396,-6.0242,-6.0781,-6.0781,-6.0781,-6.0781,-6.0781,-6.0781,0.0,0.0,0.0,0.0,0.0,0.0,0.0,0.0,-6.0242,-6.0396,-6.0396,-6.0666,-6.0781,-6.0781,-6.0512,-5.9627,-5.828,-5.8011,0.0,0.0,0.0,0.0,0.0,0.0,-5.9011,-5.9588,0.0,0.0,0.0,0.0,0.0,0.0,0.0,0.0,0.0,0.0,0.0,0.0,-5.9165,-6.0473,-6.2204,-6.5051,-6.6859,-6.759,-6.6167,-6.5397,-6.4282,-6.1435,-6.0127,-5.9588,-5.9935,-5.9742,-5.9665,-6.0281,-6.0589,-6.0781,-6.0781,-6.0781,0.0,0.0,0.0,0.0,0.0,0.0,0.0,0.0,0.0,0.0,0.0,0.0,0.0,0.0,-7.6015,-7.663,-7.8054,-7.7592,-7.8246,-8.0208,-7.9669,-7.9977,-8.1093,-8.0823,-8.0823,-8.1054,-8.0208,0.0,0.0,0.0,0.0,0.0,-7.6361,-7.6015,-7.6015,-7.6015,-7.6015,-7.6015,-7.6015,-7.6015,-7.5976,0.0,0.0,0.0,0.0,0.0,0.0,-5.6445,-5.7511,-5.8473,-5.8973,-6.0089,-6.0781,-6.0781,-6.0781,-6.0781,-6.0781,-6.0781,0.0,0.0,0.0,0.0,0.0,0.0,0.0,-6.0781,-6.0781,-6.0781,-6.0781,-6.0781,-6.0781,-6.0781,-6.0781,-6.005,-5.8742,-5.8434,-5.7511,0.0,0.0,0.0,0.0,-5.8973,-5.9704,-6.005,0.0,0.0,0.0,0.0,0.0,0.0,0.0,0.0,0.0,0.0,0.0,0.0,0.0,-5.9896,-6.0858,-6.3435,-6.4666,-6.5051,-6.4282,-6.3897,-6.3166,-6.1243,-6.0396,-6.0127,-6.0704,-6.0358,-6.0165,-6.0704,-6.0781,-6.0781,-6.0781,-6.0781,0.0,0.0,0.0,0.0,0.0,0.0,0.0,0.0,0.0,0.0,0.0,0.0,0.0,0.0,0.0,-7.6861,-7.7707,-7.7438,-7.8092,-7.9785,-7.9823,-8.0246,-8.1093,-8.1093,-8.0939,-8.0592,-7.9708,0.0,0.0,0.0,0.0,0.0,-7.6207,-7.6015,-7.6015,-7.6015,-7.6015,-7.6015,-7.6015,-7.6015,-7.6015,0.0,0.0,0.0,0.0,0.0,0.0,0.0,-5.7242,-5.8319,-5.8396,-5.9781,-6.0781,-6.0781,-6.0781,-6.0781,-6.0781,-6.0781,0.0,0.0,0.0,0.0,0.0,0.0,0.0,-6.0781,-6.0781,-6.0781,-6.0781,-6.0781,-6.0781,-6.0781,-6.0781,-6.0319,-5.9473,-5.8704,-5.7896,-5.7099,-5.7137,-5.7627,-5.8473,-5.9281,-6.0089,0.0,0.0,0.0,0.0,0.0,0.0,0.0,0.0,0.0,0.0,0.0,0.0,0.0,0.0,0.0,0.0,0.0,-6.2589,-6.2178,-6.2935,-6.2551,-6.1793,-6.0973,-6.0781,0.0,-6.0781,-6.0781,-6.0781,-6.0781,-6.0781,-6.0781,-6.0781,0.0,0.0,0.0,0.0,0.0,0.0,0.0,0.0,0.0,0.0,0.0,0.0,0.0,0.0,0.0,0.0,-7.7553,-7.8284,-7.7669,-7.8092,-7.9785,-7.9669,-8.0092,-8.1016,-8.0939,-8.0516,-7.9785,-7.8823,0.0,0.0,0.0,0.0,0.0,-7.6015,-7.6015,-7.6015,-7.6015,-7.6015,-7.6015,-7.6015,-7.6015,-7.6015,0.0,0.0,0.0,0.0,0.0,0.0,0.0,0.0,0.0,0.0,-6.0127,-6.0781,-6.0781,-6.0781,-6.0781,0.0,0.0,0.0,0.0,0.0,0.0,0.0,0.0,0.0,-6.0781,-6.0781,-6.0781,-6.0781,-6.0781,-6.0781,-6.0781,-6.0781,-6.0319,-5.9473,-5.9319,-5.8781,-5.805,-5.8665,-5.9011,-5.9281,-6.0165,-6.0627,0.0,0.0,0.0,0.0,-6.0781,-6.0781,0.0,0.0,0.0,0.0,0.0,0.0,0.0,0.0,-6.0473,-6.0627,-6.1204,0.0,-6.1127,-6.1358,-6.1243,-6.105,0.0,-6.0781,-6.0781,-6.0781,-6.0781,-6.0781,-6.0781,-6.0781,0.0,0.0,0.0,0.0,0.0,0.0,0.0,0.0,0.0,0.0,0.0,0.0,0.0,0.0,0.0,0.0,0.0,0.0,-7.6399,-7.6592,-7.7053,-7.8092,-7.9785,-7.8515,-7.8631,-8.0092,-7.9438,-7.9361,-7.9746,-7.8246,0.0,0.0,0.0,0.0,-7.6015,-7.6015,-7.6015,-7.6015,-7.6015,-7.6015,-7.6015,-7.6015,-7.6015,-7.6015,0.0,0.0,0.0,0.0,0.0,0.0,0.0,0.0,0.0,0.0,-6.0242,-6.0781,-6.0781,-6.0781,-6.0781,0.0,0.0,0.0,0.0,0.0,0.0,0.0,0.0,-6.0781,-6.0781,-6.0781,-6.0781,-6.0781,-6.0781,-6.0781,-6.0781,-6.0781,-6.055,-6.0089,-5.9665,-5.905,-5.8357,-5.9165,-5.9511,-5.9588,-6.0435,0.0,0.0,0.0,0.0,0.0,-6.0781,-6.0781,0.0,-6.0781,-6.0781,-6.0781,0.0,0.0,0.0,0.0,-6.0781,-6.0781,-6.0781,-6.0781,-6.0781,-6.0781,-6.0781,-6.0781,-6.0781,-6.0781,-6.0781,-6.0781,-6.0781,-6.0781,-6.0781,0.0,0.0,0.0,0.0,0.0,0.0,0.0,0.0,0.0,0.0,0.0,0.0,0.0,0.0,0.0,0.0,0.0,0.0,0.0,-7.6592,-7.6592,-7.6669,-7.7323,-7.8631,-7.813,-7.8323,-7.9208,-7.8707,-7.8554,-7.8631,-7.7707,0.0,0.0,0.0,0.0,-7.6015,-7.6015,-7.6015,-7.6015,-7.6015,-7.6015,-7.6015,-7.6015,-7.6015,-7.6015,0.0,0.0,0.0,0.0,0.0,0.0,0.0,0.0,0.0,0.0,0.0,0.0,0.0,0.0,0.0,0.0,0.0,0.0,0.0,0.0,0.0,0.0,-6.0781,-6.0781,-6.0781,-6.0781,-6.0781,-6.0781,-6.105,-6.1166,-6.1166,-6.1166,-6.105,-6.0781,-6.0012,-5.9319,-5.8742,-5.9396,-5.9704,-5.9742,-6.0512,0.0,0.0,0.0,0.0,0.0,0.0,0.0,0.0,-6.0781,-6.0781,-6.0781,-6.0781,0.0,0.0,0.0,0.0,0.0,-6.0781,-6.0781,-6.0781,-6.0781,-6.0781,-6.0781,-6.0781,-6.0781,-6.0781,-6.0781,-6.0781,-6.0781,-6.0781,-6.0781,0.0,0.0,0.0,0.0,0.0,0.0,0.0,0.0,0.0,0.0,0.0,0.0,0.0,0.0,0.0,0.0,0.0,0.0,0.0,-7.7092,-7.6399,-7.6361,-7.7092,-7.7784,-7.8169,-7.8323,-7.8169,-7.7823,-7.7284,-7.7169,-7.6707,0.0,0.0,0.0,-7.6015,-7.6015,-7.6015,-7.6015,-7.6015,-7.6015,-7.6015,-7.6015,-7.6015,-7.6015,0.0,0.0,0.0,0.0,0.0,0.0,0.0,0.0,0.0,0.0,0.0,0.0,0.0,0.0,0.0,0.0,0.0,0.0,0.0,0.0,0.0,-6.0781,-6.0781,-6.0781,-6.0781,-6.0781,-6.0781,-6.0781,-6.2204,-6.2935,-6.2935,-6.2935,-6.2166,-6.0781,-6.0666,-6.0512,-6.0435,-6.055,-6.0589,-6.0589,-6.0742,0.0,0.0,0.0,0.0,0.0,0.0,0.0,0.0,-6.0781,-6.0781,-6.0781,-6.0781,0.0,0.0,0.0,0.0,0.0,-6.0781,-6.0781,-6.0781,-6.0781,-6.0781,-6.0781,-6.0781,-6.0781,-6.0781,-6.0781,-6.0781,-6.0781,-6.0781,-6.0781,-6.0781,0.0,0.0,0.0,0.0,0.0,0.0,0.0,0.0,0.0,0.0,0.0,0.0,0.0,0.0,0.0,0.0,0.0,0.0,-7.6207,-7.6053,-7.6053,-7.6207,-7.6322,-7.6746,-7.7476,-7.6746,-7.6707,-7.7284,-7.6553,-7.613,0.0,0.0,-7.6015,-7.6015,-7.6015,-7.6015,-7.6015,-7.6015,-7.6015,-7.6015,-7.6015,-7.6015,-7.6015,0.0,0.0,0.0,0.0,0.0,0.0,0.0,0.0,0.0,0.0,0.0,0.0,0.0,0.0,0.0,0.0,0.0,0.0,0.0,0.0,-6.0781,-6.0781,-6.0781,-6.0781,-6.0781,-6.0781,-6.1243,-6.2166,-6.3397,-6.4243,-6.4666,-6.3743,-6.2397,-6.0781,-6.0781,-6.0781,-6.0781,-6.0781,-6.0781,-6.0781,0.0,0.0,0.0,0.0,0.0,0.0,0.0,0.0,0.0,0.0,-6.0781,-6.0781,-6.0781,0.0,0.0,0.0,0.0,0.0,-6.0746,-6.0685,-6.0572,-6.0746,-6.0781,-6.0781,-6.0781,-6.0781,-6.0781,-6.0781,-6.0781,-6.0781,0.0,0.0,-6.1781,-6.2704,0.0,0.0,0.0,0.0,0.0,0.0,0.0,0.0,0.0,0.0,0.0,0.0,0.0,0.0,0.0,0.0,0.0,0.0,-7.6015,-7.6015,-7.6015,-7.6015,-7.6207,-7.6592,-7.6207,-7.6207,-7.6592,-7.6169,-7.6015,-7.6015,0.0,-7.6015,-7.6015,-7.6015,-7.6015,-7.6015,-7.6015,-7.6015,-7.6015,-7.6015,-7.6015,-7.6015,0.0,0.0,0.0,0.0,0.0,0.0,0.0,0.0,0.0,0.0,0.0,0.0,0.0,0.0,0.0,0.0,0.0,0.0,0.0,-6.0781,-6.0781,-6.0781,-6.0781,-6.0781,-6.0781,-6.1396,-6.2435,-6.3897,-6.5359,-6.609,-6.6128,-6.4628,-6.282,-6.0781,-6.0781,-6.0781,-6.0781,-6.0781,-6.0781,-6.0781,0.0,0.0,0.0,0.0,0.0,0.0,0.0,0.0,0.0,0.0,0.0,0.0,0.0,0.0,0.0,-6.0781,-6.0559,-6.0362,-6.0722,-6.0559,-6.0362,-6.0722,-6.0781,-6.0781,-6.0781,-6.0781,-6.0781,-6.0781,-6.0781,-6.0781,0.0,-6.1524,0.0,0.0,0.0,0.0,0.0,0.0,0.0,0.0,0.0,0.0,0.0,0.0,0.0,0.0,0.0,0.0,0.0,0.0,0.0,0.0,-7.5707,-7.5707,-7.5707,-7.5515,-7.563,-7.6015,-7.6015,-7.6015,-7.6015,-7.6015,-7.6015,-7.6015,-7.6015,-7.6015,-7.6015,-7.6015,-7.6015,-7.5976,-7.5784,-7.5707,-7.5707,-7.5938,-7.6015,-7.6015,0.0,0.0,0.0,0.0,0.0,0.0,0.0,0.0,0.0,0.0,0.0,0.0,0.0,0.0,0.0,0.0,0.0,0.0,0.0,-6.0781,-6.0781,-6.0781,-6.0781,-6.0781,-6.0781,-6.3128,-6.4782,-6.5705,-6.8898,-6.9283,-6.6974,-6.6128,-6.3974,-6.0781,-6.0781,-6.0781,-6.0781,-6.0781,-6.0781,-6.0781,-6.0781,0.0,0.0,0.0,0.0,0.0,0.0,0.0,0.0,0.0,0.0,0.0,0.0,0.0,-6.0781,-6.0781,-6.0559,-6.0362,-6.0722,-6.0559,-6.0362,-6.0722,-6.0781,-6.0781,-6.0781,-6.0781,-6.0781,-6.0781,-6.0781,-6.0781,0.0,-6.1524,0.0,0.0,0.0,0.0,0.0,0.0,0.0,0.0,0.0,0.0,0.0,0.0,0.0,0.0,0.0,0.0,0.0,0.0,0.0,0.0,0.0,-7.4784,-7.4784,-7.4053,-7.4476,-7.6015,-7.6015,-7.6015,-7.6015,-7.6015,-7.6015,-7.6015,-7.6015,-7.6015,-7.6015,-7.6015,-7.6015,-7.5938,-7.513,-7.4784,-7.4899,-7.5707,-7.6015,-7.6015,0.0,0.0,0.0,0.0,0.0,0.0,0.0,0.0,0.0,0.0,0.0,0.0,0.0,0.0,0.0,0.0,0.0,0.0,0.0,-6.0781,-6.0781,-6.0781,-6.0781,-6.0781,-6.0781,-6.3281,-6.6051,-6.9013,-6.9783,-6.9398,-6.7859,-6.5436,-6.3051,-6.0781,-6.0781,-6.0781,-6.0781,-6.0781,-6.0781,-6.0781,-6.0781,-6.0781,0.0,0.0,0.0,0.0,0.0,0.0,0.0,0.0,-6.0781,-6.0781,-6.0781,-6.0781,-6.0757,-6.0546,-6.039,-6.0321,-6.043,-6.039,-6.0362,-6.0722,-6.0781,-6.0935,-6.1473,-6.1787,-6.19,-6.1668,-6.2247,-6.2705,0.0,0.0,0.0,0.0,0.0,0.0,0.0,0.0,0.0,0.0,0.0,0.0,0.0,0.0,0.0,0.0,0.0,0.0,0.0,0.0,0.0,0.0,0.0,-7.3976,-7.3976,-7.3654,-7.3822,-7.4437,-7.4938,-7.5207,-7.5207,-7.5745,-7.5707,-7.5207,-7.5207,-7.5207,-7.5207,-7.5207,-7.5207,-7.5168,-7.4822,-7.4707,-7.4822,-7.5668,-7.5668,-7.5284,0.0,0.0,0.0,0.0,0.0,0.0,0.0,0.0,0.0,0.0,0.0,0.0,0.0,0.0,0.0,0.0,0.0,0.0,-6.0781,-6.0781,-6.0781,-6.0781,-6.0781,-6.1166,-6.1973,-6.4243,-6.7051,-7.0514,-7.0783,-6.9783,-6.7552,-6.4936,-6.2666,-6.0781,-6.0781,-6.0781,-6.0781,-6.0781,-6.0781,-6.0781,-6.0781,-6.0781,0.0,0.0,0.0,0.0,0.0,0.0,0.0,0.0,-6.0781,-6.0781,-6.0781,-6.0781,-6.0734,-6.039,-6.0237,-6.0179,-6.0265,-6.0223,-6.0251,-6.0697,-6.0722,-6.0929,-6.2043,-6.2522,-6.2639,-6.2388,-6.3102,-6.3688,-6.336,0.0,0.0,0.0,0.0,0.0,0.0,0.0,0.0,0.0,0.0,0.0,0.0,0.0,0.0,0.0,0.0,0.0,0.0,0.0,0.0,0.0,0.0,0.0,-7.3091,-7.2822,-7.2822,-7.3091,-7.3668,-7.4053,-7.4361,-7.4938,-7.4899,-7.4322,-7.4322,-7.4322,-7.4361,-7.4591,-7.4553,-7.4322,-7.4322,-7.4322,-7.4437,-7.5284,-7.5399,-7.5207,0.0,0.0,0.0,0.0,0.0,0.0,0.0,0.0,-6.0781,-6.0781,-6.0781,0.0,0.0,0.0,0.0,0.0,0.0,0.0,-6.0781,-6.0781,-6.0781,-6.0781,-6.0781,-6.1973,-6.4512,-6.6205,-6.7936,-6.9706,-7.2206,-7.086,-6.5859,-6.4974,-6.3205,-6.0819,-6.0781,-6.0781,-6.0819,-6.0781,-6.0781,-6.0781,-6.0781,-6.0781,-6.0781,0.0,0.0,0.0,0.0,0.0,0.0,0.0,-6.0781,-6.0781,-6.0781,-6.0781,-6.0734,-6.039,-6.0076,-5.989,-6.0208,-6.0076,-5.9984,-6.0622,-6.0546,-6.0752,-6.2419,-6.2733,-6.2733,-6.2815,-6.309,-6.332,-6.3308,-6.3346,0.0,0.0,0.0,0.0,0.0,0.0,0.0,0.0,0.0,0.0,0.0,0.0,0.0,0.0,0.0,0.0,0.0,0.0,0.0,0.0,0.0,0.0,-7.2168,-7.1321,-7.1321,-7.2168,-7.2168,-7.2629,-7.35,-7.3514,-7.3514,-7.35,-7.35,-7.35,-7.3553,-7.4361,-7.4207,-7.3514,-7.35,-7.35,-7.3591,-7.4399,-7.5245,-7.5976,0.0,0.0,0.0,0.0,0.0,0.0,0.0,0.0,-6.0781,-6.0781,-6.0781,0.0,0.0,0.0,0.0,0.0,0.0,0.0,-6.0781,-6.0781,-6.0781,-6.0781,-6.0781,-6.1166,-6.1897,-6.4166,-6.7051,-7.0552,-7.0129,-6.8244,-6.4936,-6.2897,-6.1858,-6.1678,-6.105,-6.1127,-6.1678,-6.105,-6.0781,-6.0781,-6.0781,-6.0781,-6.0781,0.0,0.0,0.0,0.0,0.0,0.0,0.0,0.0,0.0,-6.0781,-6.0781,-6.0734,-6.039,-6.039,-6.0481,-6.0335,-6.039,-6.0546,-6.0746,-6.0955,-6.1215,-6.1482,-6.195,-6.2911,-6.4955,-6.5263,-6.5282,-6.5859,0.0,0.0,0.0,0.0,0.0,0.0,0.0,0.0,0.0,0.0,0.0,0.0,0.0,0.0,0.0,0.0,0.0,0.0,0.0,0.0,0.0,0.0,0.0,-7.1283,-7.1014,-7.1014,-7.1283,-7.1283,-7.1745,-7.2591,-7.3206,-7.3168,-7.2591,-7.2591,-7.2591,-7.2591,-7.2822,-7.3168,-7.3437,-7.2822,-7.2591,-7.2706,-7.3553,-7.363,-7.3399,0.0,0.0,0.0,0.0,0.0,0.0,0.0,0.0,-6.0781,-6.0781,-6.0781,-6.0781,0.0,0.0,0.0,0.0,0.0,0.0,-6.0781,-6.0781,-6.0781,-6.0781,-6.0781,-6.1089,-6.1781,-6.3628,-6.5667,-6.7898,-6.7552,-6.609,-6.3589,-6.2358,-6.1897,-6.2101,-6.1897,-6.1897,-6.2062,-6.1562,-6.1127,-6.0781,-6.0781,-6.0781,-6.0781,0.0,0.0,0.0,0.0,0.0,0.0,0.0,0.0,0.0,-6.0781,-6.0781,-6.071,-6.0237,-6.0335,-6.0533,-6.0194,-6.0335,-6.0597,-6.0597,-6.0933,-6.1324,-6.1435,-6.2652,-6.4537,0.0,-6.727,-6.68,-6.7299,0.0,0.0,0.0,0.0,0.0,0.0,0.0,0.0,0.0,0.0,0.0,0.0,0.0,0.0,0.0,0.0,0.0,0.0,0.0,0.0,0.0,0.0,0.0,-7.0437,-7.0437,-7.0591,-7.0898,-7.0591,-7.086,-7.1706,-7.2245,-7.2168,-7.1668,-7.1668,-7.186,-7.2168,-7.1822,-7.2206,-7.2899,-7.2014,-7.1898,-7.2245,-7.2783,-7.286,-7.2783,0.0,0.0,-6.0781,-6.0781,0.0,0.0,0.0,0.0,-6.0781,-6.0781,-6.0781,-6.0781,0.0,0.0,0.0,0.0,0.0,0.0,0.0,-6.0781,-6.0781,-6.0781,-6.0781,-6.1512,-6.3051,-6.3858,-6.3858,-6.3089,-6.4897,-6.4474,-6.1985,-6.282,-6.2858,-6.2255,-6.2897,-6.282,-6.2216,-6.2062,-6.1524,-6.0781,-6.0781,-6.0781,-6.0781,-6.0781,0.0,0.0,0.0,0.0,0.0,0.0,0.0,0.0,-6.0781,-6.0781,-6.0697,-6.0076,-6.0121,-6.0279,-5.9984,-6.0159,-6.045,-6.0346,-6.0677,-6.1296,-6.2311,-6.4355,-6.6754,-6.9399,0.0,-6.798,0.0,0.0,0.0,0.0,0.0,0.0,0.0,0.0,0.0,0.0,0.0,0.0,0.0,0.0,0.0,0.0,0.0,0.0,0.0,0.0,0.0,0.0,0.0,0.0,-6.959,-6.9667,-7.0052,0.0,-7.0052,-7.009,-7.0783,-7.086,-7.0898,-7.0898,-7.0898,-7.136,-7.2014,-7.1245,-7.136,-7.2014,-7.1206,-7.136,-7.2091,-7.2091,-7.2591,-7.3283,0.0,0.0,-6.0781,-6.0781,0.0,0.0,0.0,0.0,0.0,-6.0781,-6.0781,0.0,0.0,0.0,0.0,0.0,0.0,0.0,0.0,-6.0781,-6.0781,-6.0781,-6.0781,-6.0973,-6.132,-6.1512,-6.1512,-6.1358,-6.3705,-6.3589,-6.1089,-6.1973,-6.2589,-6.3012,-6.2551,-6.2589,-6.2974,-6.1627,-6.0973,-6.0781,-6.0781,-6.0781,-6.0781,-6.0781,-6.0781,0.0,0.0,0.0,0.0,0.0,0.0,0.0,-6.0781,-6.0781,-6.0757,-6.061,-6.066,-6.0685,-6.0597,-6.1121,-6.1505,-6.0554,-6.0942,-6.2184,-6.4646,-6.5626,-6.6263,-6.7114,-6.8607,0.0,0.0,0.0,0.0,0.0,0.0,0.0,0.0,0.0,0.0,0.0,0.0,0.0,0.0,0.0,0.0,0.0,0.0,0.0,0.0,0.0,0.0,0.0,0.0,-6.8667,-6.8667,-6.936,-6.9783,0.0,-6.9783,-6.9783,-6.9975,-7.0591,-7.0898,-7.0898,-7.0898,-7.1014,-7.1168,-7.0975,-7.1014,-7.1168,-7.0975,-7.1014,-7.1168,-7.1168,-7.1283,-7.1475,0.0,0.0,0.0,0.0,0.0,0.0,0.0,0.0,0.0,0.0,0.0,0.0,0.0,0.0,0.0,0.0,0.0,0.0,0.0,0.0,-6.0781,-6.0781,-6.0781,-6.0781,-6.0781,-6.0781,-6.0781,-6.0781,-6.2127,-6.2089,-6.0819,-6.1678,-6.2512,-6.3269,-6.2858,-6.2897,-6.3243,-6.1973,-6.1166,-6.0781,-6.0781,-6.0781,-6.0781,-6.0781,-6.0781,-6.0781,-6.0781,0.0,0.0,0.0,0.0,0.0,0.0,0.0,-6.0757,-6.0597,-6.0685,-6.0757,-6.0597,-6.1005,-6.1427,-6.1232,0.0,-6.2096,-6.4558,-6.5464,-6.5748,-6.5951,0.0,0.0,0.0,0.0,0.0,0.0,0.0,0.0,0.0,0.0,0.0,0.0,0.0,0.0,0.0,0.0,0.0,0.0,0.0,0.0,0.0,0.0,0.0,0.0,-6.7782,-6.7782,-6.7782,-6.8244,-6.8667,-6.909,-6.8667,-6.8667,-6.909,-6.9513,-7.0129,-7.0898,-7.0475,-7.0552,-7.0898,-7.0898,-7.0898,-7.0898,-7.0898,-7.0898,-7.0898,-7.0898,-7.0898,-7.0898,0.0,0.0,0.0,0.0,0.0,0.0,0.0,0.0,0.0,0.0,0.0,0.0,0.0,0.0,0.0,0.0,0.0,0.0,0.0,0.0,0.0,-6.0781,-6.0781,-6.0781,-6.0781,-6.0781,-6.0781,-6.0781,-6.0781,-6.0781,-6.0819,-6.1678,-6.2474,-6.3089,-6.3089,-6.3089,-6.3051,-6.2204,-6.1447,-6.0781,-6.0781,-6.0781,-6.0781,-6.0781,-6.0781,-6.0781,-6.0781,-6.0781,-6.0781,-6.0781,0.0,0.0,0.0,0.0,-6.0746,-6.0481,-6.0572,-6.0734,-6.0481,-6.0507,-6.0916,-6.2124,-6.1824,0.0,-6.3796,-6.4778,-6.5188,0.0,0.0,0.0,0.0,0.0,0.0,0.0,0.0,0.0,0.0,0.0,0.0,0.0,0.0,0.0,0.0,0.0,0.0,0.0,0.0,0.0,0.0,0.0,-6.6013,-6.6859,-6.6898,-6.6898,-6.6898,-6.7013,-6.7475,-6.8167,-6.7436,-6.7475,-6.8167,-6.8052,-6.8898,-7.0437,-6.9937,-7.009,-7.0706,-7.0821,-7.0898,-7.0898,-7.0898,-7.0898,-7.0898,-7.0898,-7.0898,-7.0898,0.0,0.0,0.0,0.0,0.0,0.0,0.0,0.0,0.0,0.0,-6.0781,-6.0781,0.0,0.0,0.0,0.0,0.0,0.0,-6.0781,0.0,0.0,-6.0781,-6.0781,-6.0781,-6.0781,-6.0781,-6.0781,-6.0781,-6.0781,-6.0781,-6.0819,-6.1678,-6.2178,-6.2255,-6.2255,-6.2255,-6.2216,-6.132,-6.0896,-6.0781,-6.0781,-6.0781,-6.0781,-6.0781,-6.0781,-6.0781,-6.0781,-6.0781,-6.0781,-6.0781,-6.0781,0.0,0.0,0.0,-6.0781,-6.0746,-6.0757,-6.0781,-6.0746,-6.0335,-6.0491,0.0,-6.2237,-6.1794,0.0,0.0,-6.4441,0.0,0.0,0.0,0.0,0.0,0.0,0.0,0.0,0.0,0.0,0.0,0.0,0.0,0.0,0.0,0.0,0.0,0.0,0.0,0.0,0.0,0.0,-6.4823,-6.4852,-6.6013,-6.6051,-6.6051,-6.6051,-6.6744,-6.7167,-6.7282,-6.7167,-6.7167,-6.7244,-6.6551,-6.7167,-6.8783,-6.9436,-6.9744,-6.9898,-7.0591,-7.0898,-7.0898,-7.0898,-7.0898,-7.0898,-7.0898,-7.0898,-7.0898,0.0,0.0,0.0,0.0,0.0,0.0,0.0,0.0,0.0,0.0,0.0,-6.0781,0.0,0.0,0.0,-6.0781,-6.0781,-6.0781,-6.0781,-6.0781,-6.0781,-6.0781,-6.0781,-6.0781,-6.0781,-6.0781,-6.0781,-6.0781,-6.0781,-6.0781,-6.0819,-6.1678,-6.232,-6.2743,-6.2293,-6.2358,-6.2704,-6.1858,-6.1243,-6.0781,-6.0781,-6.0781,-6.0781,-6.0781,-6.0781,-6.0781,-6.0781,-6.0781,-6.0781,-6.0781,-6.0781,-6.0781,-6.0781,0.0,0.0,0.0,-6.0781,-6.0757,-6.0572,-6.0179,-6.0139,0.0,-6.1497,-6.1592,-6.3072,0.0,0.0,0.0,0.0,0.0,0.0,0.0,0.0,0.0,0.0,0.0,0.0,0.0,0.0,0.0,0.0,0.0,0.0,0.0,0.0,0.0,0.0,0.0,-6.3546,-6.3886,-6.4426,-6.5154,-6.5628,-6.5897,-6.5897,-6.6244,-6.6319,-6.6078,-6.6078,-6.5953,-6.5765,-6.5868,-6.6821,-6.8385,-6.8282,-6.8783,-6.9744,-7.009,-7.0475,-7.0898,-7.0898,-7.0898,-7.0898,-7.0898,-7.0898,-7.0898,0.0,0.0,0.0,0.0,0.0,0.0,0.0,0.0,0.0,0.0,0.0,0.0,0.0,0.0,0.0,0.0,-6.0781,-6.0781,-6.0781,-6.0781,-6.0781,-6.0781,-6.0781,-6.0781,-6.0781,-6.0781,-6.0781,-6.0781,-6.0781,-6.0781,-6.0819,-6.1485,-6.232,-6.3281,-6.2666,-6.2743,-6.3231,-6.2435,-6.1716,-6.1089,-6.0896,-6.0781,-6.0781,-6.0781,-6.0781,-6.0781,-6.0781,-6.0781,-6.0781,-6.0781,-6.0781,-6.0781,-6.0781,-6.0781,0.0,0.0,0.0,-6.061,-6.0362,0.0,-5.9933,-6.0469,-6.0843,-6.1267,0.0,0.0,0.0,0.0,0.0,0.0,0.0,0.0,0.0,0.0,0.0,0.0,0.0,0.0,0.0,0.0,0.0,0.0,0.0,0.0,0.0,0.0,0.0,0.0,-6.2176,-6.3121,-6.3858,-6.4269,-6.532,-6.5782,-6.5551,-6.5679,-6.5566,-6.5137,-6.5253,-6.5089,-6.4734,-6.5527,-6.6513,-6.7599,-6.7256,-6.7975,-6.9398,-6.9629,-7.0167,-7.0898,-7.0898,-7.0898,-7.0898,-7.0898,-7.0898,-7.0898,0.0,0.0,0.0,0.0,0.0,0.0,0.0,0.0,0.0,0.0,0.0,0.0,-6.0781,-6.0781,-6.0781,-6.0781,-6.0781,-6.0781,-6.0781,-6.0781,-6.0781,-6.0781,-6.0781,0.0,-6.0781,-6.0781,-6.0781,-6.0781,-6.0781,-6.0781,-6.0781,-6.0858,-6.1743,-6.3308,-6.3281,-6.3281,-6.3231,-6.2435,-6.2062,-6.1947,-6.1127,-6.0781,-6.0781,-6.0781,-6.0781,-6.0781,-6.0781,-6.0781,-6.0781,-6.0781,-6.0781,-6.0781,-6.0781,-6.0781,-6.0781,0.0,0.0,0.0,0.0,-6.0076,0.0,-6.08,-6.0732,0.0,0.0,0.0,0.0,0.0,0.0,0.0,0.0,0.0,0.0,0.0,0.0,0.0,0.0,0.0,0.0,0.0,0.0,0.0,0.0,0.0,0.0,0.0,0.0,0.0,-6.2105,-6.2324,-6.2681,-6.3334,-6.5013,-6.5513,-6.4666,-6.5116,-6.5121,-6.4734,-6.5105,-6.5089,-6.4734,-6.5527,-6.5753,-6.5535,-6.6638,-6.7628,-6.8552,-6.936,-7.0167,-7.0898,-7.0898,-7.0898,-7.0898,-7.0898,-7.0898,-7.0898,0.0,0.0,0.0,0.0,0.0,0.0,0.0,0.0,0.0,0.0,0.0,0.0,0.0,-6.0781,-6.0781,-6.0781,-6.0781,-6.0781,-6.0781,-6.0781,-6.0781,-6.0781,-6.0781,-6.0781,-6.0781,-6.0781,-6.0781,-6.0781,-6.0781,-6.0781,-6.0819,-6.1358,-6.2243,-6.3281,-6.2743,-6.282,-6.3231,-6.2435,-6.1793,-6.1243,-6.0935,-6.0781,-6.0781,-6.0781,-6.0781,-6.0858,0.0,0.0,0.0,0.0,0.0,0.0,0.0,0.0,0.0,0.0,-6.0559,-6.0293,0.0,0.0,0.0,-6.0151,-6.0353,-6.0661,0.0,0.0,0.0,0.0,0.0,0.0,0.0,0.0,0.0,0.0,0.0,0.0,0.0,0.0,0.0,0.0,0.0,0.0,0.0,0.0,0.0,0.0,0.0,0.0,-6.0627,-6.17,-6.2628,-6.3295,-6.4753,-6.5259,-6.4664,-6.462,-6.4501,-6.4369,-6.4539,-6.4369,-6.4029,-6.5041,-6.5299,-6.5014,-6.6465,-6.7282,-6.7628,-6.8513,-6.936,-7.0167,-7.0706,-7.0898,-7.0898,-7.0898,-7.0898,-7.0898,0.0,0.0,0.0,-6.0403,0.0,-6.0781,-6.0781,-6.0781,-6.0781,-6.0781,0.0,0.0,0.0,0.0,-6.0781,-6.0781,-6.0781,-6.0781,-6.0781,-6.0781,-6.0781,-6.0781,-6.0781,-6.0781,-6.0781,-6.0512,-6.0512,-6.0781,-6.0512,-6.0512,-6.0819,-6.1408,-6.2089,-6.2858,-6.2012,-6.2589,-6.4089,-6.2974,-6.2166,-6.1589,-6.1012,-6.0781,-6.0819,-6.1127,-6.1243,0.0,0.0,0.0,0.0,0.0,0.0,0.0,0.0,0.0,0.0,0.0,0.0,0.0,-6.0165,0.0,0.0,0.0,-5.9811,-6.0135,0.0,0.0,0.0,0.0,0.0,0.0,0.0,0.0,0.0,0.0,0.0,0.0,0.0,0.0,0.0,0.0,0.0,0.0,0.0,0.0,0.0,0.0,0.0,0.0,-5.9571,-6.1173,-6.2618,-6.3747,-6.436,-6.466,-6.4519,-6.431,-6.4128,-6.3984,-6.4149,-6.3984,-6.3647,-6.5093,-6.5509,-6.5244,-6.6845,-6.7552,-6.759,-6.8475,-6.936,-7.0167,-7.0706,-7.0898,-7.0898,-7.0898,-7.0898,-7.0898,-5.8415,-5.9065,-5.9601,-5.9601,-6.0241,-6.0757,-6.0757,-6.0757,-6.0769,-6.0769,0.0,0.0,0.0,0.0,0.0,-6.0781,-6.0781,-6.0781,-6.0781,-6.0781,-6.0781,-6.0781,-6.0781,-6.0781,-6.0781,-5.9973,-5.9935,-6.0781,-5.9935,-5.9973,-6.0781,-6.0781,-6.1281,-6.2062,-6.1216,-6.2704,-6.5705,-6.3974,-6.3281,-6.3128,-6.1512,-6.0896,-6.1012,-6.187,0.0,0.0,-6.4051,-6.4628,0.0,-6.4589,0.0,0.0,0.0,0.0,0.0,0.0,0.0,0.0,0.0,0.0,0.0,0.0,0.0,0.0,-5.9215,0.0,0.0,0.0,0.0,0.0,0.0,0.0,0.0,0.0,0.0,0.0,0.0,0.0,0.0,0.0,0.0,0.0,0.0,0.0,0.0,0.0,0.0,-5.8882,-5.9178,-6.0811,-6.2617,-6.4605,-6.3923,-6.3727,-6.4189,-6.4189,-6.3984,-6.3602,-6.3984,-6.4,-6.3721,-6.5682,-6.6352,-6.6099,-6.7697,-6.841,-6.8487,-6.9346,-7.0167,-7.086,-7.0898,-7.0898,-7.0898,-7.0898,-7.0898,-7.0898,-5.8986,-5.9397,-5.9739,-5.9739,-5.9915,-6.0091,-6.0091,-6.0091,-6.0179,0.0,0.0,0.0,-6.0769,-6.0781,-6.0781,-6.0781,-6.0781,-6.0781,-6.0781,-6.0781,-6.0781,-6.0781,-6.0781,-6.0781,-6.0781,-6.055,-6.055,-6.0781,-6.055,-6.055,-6.0781,-6.0781,-6.1281,-6.2101,-6.187,-6.2589,-6.3935,-6.2897,-6.2435,-6.2435,-6.2551,-6.2974,0.0,0.0,0.0,0.0,0.0,-6.5128,-6.4589,0.0,-6.4012,-6.3051,0.0,0.0,-6.1169,0.0,0.0,-5.9571,-5.9777,0.0,0.0,0.0,0.0,0.0,-5.9571,-5.914,0.0,0.0,0.0,0.0,0.0,0.0,0.0,0.0,0.0,0.0,0.0,0.0,0.0,0.0,0.0,0.0,0.0,0.0,0.0,0.0,-5.9255,-5.9479,-5.9215,-6.1032,-6.2764,-6.4274,-6.4123,-6.3944,-6.3764,-6.3764,-6.3714,-6.3602,-6.3736,-6.4011,-6.4516,-6.5339,-6.5991,-6.6495,-6.7804,-6.8396,-6.8485,-6.9333,-6.9821,-7.009,-7.0667,-7.0898,-7.0898,-7.0898,-7.0898,-7.0898,-5.8689,-5.9027,-5.9341,-5.9341,-5.9534,-5.9836,-6.016,-5.9966,-5.9988,0.0,0.0,0.0,-6.1757,-6.155,-6.1331,-6.1331,-6.0877,-6.0634,-6.0781,-6.0685,-6.0634,-6.0781,-6.0781,-6.0781,-6.0781,-6.0435,-6.0435,-6.0781,-6.0435,-6.0435,-6.0781,-6.0781,-6.105,-6.1562,-6.1562,-6.182,-6.2281,-6.2512,-6.2397,-6.2139,-6.2589,0.0,0.0,-6.432,-6.4589,0.0,0.0,0.0,-6.5705,-6.6051,-6.5051,0.0,0.0,0.0,0.0,0.0,0.0,-5.9467,-5.9537,-5.9379,-5.9234,0.0,0.0,0.0,-5.929,-5.9024,-5.876,0.0,0.0,0.0,0.0,0.0,0.0,0.0,0.0,0.0,0.0,0.0,0.0,0.0,0.0,0.0,0.0,0.0,0.0,0.0,-5.9478,-6.0104,-6.0499,-6.1655,-6.28,-6.3904,-6.3942,-6.383,-6.3602,-6.3602,-6.3602,-6.3602,-6.3602,-6.4025,-6.4828,-6.5577,-6.6387,-6.7196,-6.8412,-6.8925,-6.9001,-6.948,-6.9696,-6.9766,-7.057,-7.0791,-7.0652,-7.0857,-7.0898,-7.0898,0.0,-5.8391,-5.8652,-5.8652,-5.9159,-5.9842,-6.0597,-6.021,-6.0122,0.0,-6.1317,-6.2013,-6.318,-6.2589,-6.2101,-6.2101,-6.1032,-6.0494,-6.0769,-6.052,-6.0494,-6.0781,-6.0757,-6.0757,-6.0781,-5.9988,-5.9988,-6.0781,-6.0012,-6.005,-6.0781,-6.0781,-6.0781,-6.0781,-6.0781,-6.0781,-6.0896,-6.2397,-6.2704,-6.2255,-6.2447,-6.2524,0.0,0.0,-6.4897,-6.5089,-6.6551,-6.7051,-6.7051,-6.7744,-6.6354,0.0,0.0,0.0,0.0,0.0,-5.9831,-5.9677,-5.9365,-5.929,-5.9233,0.0,0.0,0.0,-5.8846,-5.8772,-5.8698,0.0,0.0,0.0,0.0,0.0,0.0,0.0,0.0,0.0,0.0,0.0,0.0,0.0,0.0,0.0,0.0,0.0,-5.8698,-5.8698,-5.9478,-6.0645,-6.245,-6.245,-6.2784,-6.3565,-6.3602,-6.3602,-6.3602,-6.3602,-6.3602,-6.3602,-6.3713,-6.4159,-6.4976,-6.6229,-6.7208,-6.8034,-6.9106,-6.9567,-6.9567,-6.9606,-6.9664,-6.9777,-7.0501,-7.0547,-7.0288,-7.0622,-7.0777,-7.0805,-5.8327,-5.8378,-5.8465,-5.8465,-5.9091,-5.9701,-5.9971,-6.011,-6.0397,-6.0918,-6.1583,-6.231,-6.3192,-6.2589,-6.2101,-6.2101,-6.1245,-6.0734,-6.0781,-6.0734,-6.0734,-6.0781,-6.0546,-6.0533,-6.0781,-6.038,-6.038,-6.0781,-6.0627,-6.0627,-6.0781,-6.0781,-6.0781,-6.0781,-6.0781,-6.0781,-6.0819,-6.1166,0.0,-6.3205,-6.4589,0.0,-6.5243,-6.6244,-6.659,-6.6667,-6.6974,-6.6667,-6.6051,-6.5513,-6.5436,-6.5205,0.0,0.0,0.0,0.0,0.0,0.0,0.0,0.0,0.0,0.0,0.0,0.0,-5.9664,-5.9181,-5.8698,0.0,0.0,0.0,0.0,0.0,0.0,0.0,0.0,0.0,0.0,0.0,0.0,0.0,0.0,0.0,0.0,0.0,-5.8698,-5.8698,-5.9478,-6.0905,-6.3267,-6.2747,-6.2784,-6.3565,-6.3602,-6.3602,-6.3602,-6.3602,-6.3602,-6.3602,-6.4248,-6.5013,-6.5868,-6.6779,-6.7607,-6.8389,-6.8633,-6.8717,-6.874,-6.9069,-6.9388,-6.9721,-6.9869,-6.9887,-6.9833,-6.9905,-7.0116,-7.0416,-5.8179,-5.8179,-5.8238,-5.8305,-5.8681,-5.9176,-5.973,-5.9573,-5.9933,-6.1523,-6.2698,-6.3623,-6.4225,-6.3732,-6.3166,-6.2743,-6.1748,-6.1224,-6.1435,-6.0891,-6.061,-6.0781,-6.0622,-6.061,-6.0781,-6.066,-6.061,-6.0781,-6.0781,-6.0781,-6.0781,-6.0781,-6.0781,-6.0781,-6.0781,-6.105,-6.1473,-6.1897,-6.232,-6.282,-6.4089,0.0,-6.5936,-6.6359,-6.6513,-6.6513,-6.6513,-6.6513,-6.6243,-6.4599,-6.4728,0.0,0.0,-6.2385,-6.2108,0.0,-6.0675,-6.0231,0.0,0.0,0.0,-6.1113,0.0,0.0,0.0,-5.9292,-5.8698,0.0,0.0,0.0,0.0,0.0,0.0,0.0,0.0,0.0,0.0,0.0,0.0,0.0,0.0,0.0,0.0,0.0,-5.9069,-5.9887,-6.0704,-6.1856,-6.3527,-6.323,-6.3193,-6.3602,-6.3602,-6.3602,-6.3602,-6.3602,-6.3802,-6.4173,-6.4619,-6.5496,-6.6722,-6.7131,-6.7763,-6.8481,-6.8481,-6.8481,-6.8506,-6.8693,-6.8908,-6.9134,-6.9528,-6.9567,-6.9408,-6.9625,-6.9833,-6.9995,-5.7997,-5.7997,-5.8042,-5.8133,-5.8371,-5.8814,-5.959,-5.9181,-5.9706,-6.216,-6.3462,-6.4432,-6.51,-6.4665,-6.4205,-6.382,-6.2592,-6.2054,-6.2538,-6.1352,-6.0674,-6.0819,-6.0734,-6.0734,-6.0781,-6.0734,-6.0734,-6.0781,-6.0781,-6.0781,-6.0781,-6.0781,-6.0781,-6.0819,-6.0973,-6.137,-6.1908,-6.2897,0.0,-6.2909,0.0,-6.4551,-6.5667,-6.6013,-6.6103,-6.6012,-6.5767,-6.6085,-6.6322,-6.441,0.0,-6.4839,-6.2879,-6.2184,0.0,0.0,0.0,0.0,0.0,0.0,0.0,0.0,0.0,-6.0333,0.0,0.0,0.0,0.0,0.0,0.0,0.0,0.0,0.0,0.0,0.0,0.0,0.0,0.0,0.0,0.0,0.0,0.0,0.0,0.0,-5.9738,-6.1113,-6.1967,-6.2747,-6.3565,-6.3602,-6.3602,-6.3602,-6.3602,-6.3602,-6.3602,-6.375,-6.4136,-6.4805,-6.5125,-6.6017,-6.7317,-6.7465,-6.7887,-6.8481,-6.8481,-6.8481,-6.8481,-6.8481,-6.8481,-6.8578,-6.9219,-6.9282,-6.9003,-6.9365,-6.9508,-6.9587,-5.7997,-5.7997,-5.7997,-5.802,-5.8644,-5.9168,-5.9417,-5.9696,-6.0623,-6.2519,-6.2536,-6.2977,-6.4501,-6.3949,-6.4051,-6.5474,-6.4064,-6.3437,-6.4282,-6.2796,-6.1565,-6.0819,-6.052,-6.0507,-6.0781,-6.052,-6.0507,-6.0781,-6.0781,-6.0781,-6.0781,-6.0781,-6.0781,-6.0819,-6.1601,-6.1601,-6.105,0.0,-6.4128,0.0,-6.5551,-6.5243,0.0,-6.6397,-6.679,-6.6361,-6.5259,-6.4913,-6.4934,0.0,-6.4658,-6.4713,0.0,-6.3871,-6.3232,0.0,0.0,0.0,0.0,0.0,0.0,0.0,-6.2747,0.0,0.0,0.0,0.0,0.0,0.0,0.0,0.0,0.0,0.0,0.0,0.0,0.0,0.0,0.0,0.0,0.0,0.0,0.0,0.0,0.0,0.0,-6.1187,-6.1967,-6.2747,-6.3565,-6.3602,-6.3602,-6.3602,-6.3602,-6.3602,-6.3602,-6.4285,-6.4693,-6.4805,-6.6314,-6.7131,-6.7317,-6.8036,-6.8407,-6.8481,-6.8481,-6.8481,-6.8481,-6.8481,-6.8481,-6.8506,-6.8589,-6.8589,-6.8565,-6.8613,-6.884,-6.9176,-5.7997,-5.7997,-5.802,-5.8088,-5.8773,-5.9223,-5.891,-6.0305,-6.1628,-6.2273,-6.331,-6.4546,-6.5938,-6.5565,0.0,-6.65,0.0,-6.4551,0.0,0.0,-6.1716,-6.0819,-6.1146,-6.1172,-6.0819,-6.1146,-6.1184,-6.0781,-6.0781,-6.0781,-6.0781,-6.0781,-6.0781,-6.0819,-6.1716,0.0,-6.232,0.0,-6.4474,0.0,0.0,0.0,0.0,-6.6455,-6.6719,-6.6522,-6.5998,-6.6086,-6.6362,0.0,-6.5237,0.0,0.0,0.0,0.0,0.0,0.0,0.0,0.0,0.0,0.0,0.0,0.0,0.0,-6.1967,0.0,-6.0555,0.0,0.0,0.0,0.0,0.0,0.0,0.0,0.0,0.0,0.0,0.0,0.0,0.0,0.0,0.0,0.0,0.0,0.0,0.0,0.0,-6.2747,-6.3565,-6.3602,-6.3602,-6.3602,-6.3602,-6.3825,-6.4285,-6.4619,-6.5287,-6.6253,-6.6982,-6.754,-6.7999,-6.8333,-6.8481,-6.8481,-6.8481,-6.8481,-6.8481,-6.8481,-6.8481,-6.8481,-6.8481,-6.8481,-6.8481,-6.8481,-6.8589,-6.874,-5.7997,-5.7997,-5.802,-5.8111,-5.8612,-5.8864,-5.8474,-6.0098,-6.141,-6.1463,-6.2986,0.0,-6.6275,-6.651,0.0,0.0,-6.723,-6.6167,0.0,0.0,-6.2166,0.0,0.0,0.0,0.0,-6.1562,-6.1435,-6.0781,-6.0781,-6.0935,-6.1127,-6.0896,-6.105,-6.1512,-6.2166,-6.2743,-6.3346,0.0,-6.5089,-6.5436,-6.7321,-6.7268,-6.6151,-6.6742,-6.6804,-6.6582,-6.6369,-6.6666,-6.6906,-6.5399,-6.5113,0.0,-6.3951,0.0,0.0,0.0,0.0,0.0,-6.2896,0.0,0.0,0.0,0.0,0.0,0.0,0.0,0.0,0.0,0.0,0.0,0.0,0.0,0.0,0.0,0.0,0.0,0.0,0.0,0.0,0.0,0.0,0.0,0.0,0.0,0.0,0.0,-6.1819,0.0,-6.3267,-6.349,-6.3602,-6.3602,-6.3825,-6.4233,-6.4768,-6.525,-6.6128,-6.7317,-6.754,-6.7948,-6.8481,-6.8481,-6.8481,-6.8481,-6.8481,-6.8481,-6.8481,-6.8481,-6.8481,-6.8432,-6.8481,-6.8481,-6.8432,-6.8481,-6.8481,-6.8481,-5.7997,-5.7997,-5.7997,-5.7997,-5.8033,-5.8079,-5.8179,-5.8535,-5.9126,-6.005,0.0,0.0,0.0,0.0,0.0,0.0,0.0,-6.8667,-6.9436,0.0,-6.3231,0.0,0.0,-6.1204,0.0,0.0,-6.0819,-6.0781,-6.0781,-6.1243,-6.2062,-6.1166,-6.1666,-6.3243,-6.3231,-6.3281,-6.3423,-6.5128,-6.632,-6.7013,-6.709,-6.6929,-6.6667,0.0,-6.7263,-6.6482,-6.571,0.0,0.0,-6.4062,-6.3661,0.0,0.0,0.0,0.0,0.0,0.0,0.0,0.0,0.0,0.0,-6.3602,0.0,0.0,0.0,0.0,-6.2153,0.0,0.0,0.0,0.0,0.0,0.0,-6.0088,0.0,0.0,0.0,0.0,0.0,0.0,0.0,0.0,0.0,0.0,0.0,-6.0035,-6.1484,0.0,-6.245,-6.3193,-6.3602,-6.3602,-6.4382,-6.4768,-6.4805,-6.6425,-6.7243,-6.7317,-6.8097,-6.8506,-6.8481,-6.8481,-6.8481,-6.8481,-6.8481,-6.8481,-6.8481,-6.8481,-6.8408,-6.8309,-6.8432,-6.8408,-6.8309,-6.8457,-6.8481,-6.8481,-5.7997,-5.8437,-5.8621,-5.8107,-5.8437,-5.8851,-5.8966,-5.9441,-6.0588,0.0,0.0,0.0,0.0,-7.0722,-7.1192,0.0,0.0,-6.9904,-6.7752,-6.6221,0.0,0.0,0.0,-6.2666,0.0,0.0,0.0,0.0,-6.0781,-6.1243,-6.2101,-6.1204,-6.1396,-6.2512,0.0,-6.282,0.0,0.0,0.0,0.0,0.0,-6.6038,-6.6957,0.0,0.0,-6.5492,-6.6007,-6.5841,0.0,-6.5603,-6.5098,-6.4419,-6.4419,-6.4048,-6.3527,-6.297,-6.3193,0.0,0.0,0.0,-6.3602,-6.3602,0.0,0.0,0.0,0.0,0.0,0.0,0.0,0.0,0.0,0.0,-6.271,-6.2413,-6.1871,0.0,0.0,0.0,0.0,0.0,0.0,0.0,0.0,0.0,0.0,-5.9903,-6.0964,-6.1856,0.0,-6.3156,-6.3602,-6.3602,-6.4359,-6.5065,-6.5645,-6.6664,-6.748,-6.8073,-6.8297,-6.8408,-6.8481,-6.8481,-6.8481,-6.8481,-6.8481,-6.8481,-6.8481,-6.8408,-6.8334,-6.8383,-6.8952,-6.9137,-6.9038,-6.8643,-6.8816,-6.9373,-5.8437,-5.8621,-5.8621,-5.8107,-5.8437,-5.8814,-5.8929,0.0,0.0,0.0,-6.6403,0.0,-7.337,0.0,-7.4035,0.0,-7.3668,-7.1591,-6.8709,-6.7381,0.0,-6.3538,-6.3627,0.0,0.0,0.0,0.0,0.0,0.0,-6.1504,-6.2746,-6.1608,-6.1735,-6.2974,0.0,-6.282,-6.3346,0.0,-6.4628,0.0,0.0,-6.5462,0.0,0.0,-6.5603,-6.5035,0.0,-6.5406,-6.5056,-6.5453,-6.5061,-6.4359,-6.4359,-6.4025,-6.3527,-6.297,-6.3193,-6.349,-6.297,-6.323,0.0,0.0,-6.3602,0.0,-6.3602,0.0,0.0,0.0,0.0,0.0,0.0,0.0,0.0,-6.3602,-6.2933,-6.2004,0.0,-6.0778,0.0,0.0,0.0,0.0,0.0,0.0,-5.9754,-5.9515,-6.0555,-6.1447,0.0,0.0,-6.375,-6.4025,-6.4828,-6.5682,-6.6537,-6.7172,-6.7839,-6.8481,-6.8358,-6.8358,-6.8481,-6.8481,-6.8481,-6.8518,-6.8729,-6.8878,-6.8853,-6.8728,-6.8678,-6.8715,-6.9272,-6.952,-6.9482,-6.9385,-6.967,-7.019,-5.9148,-5.851,-5.7997,0.0,-5.8033,0.0,0.0,0.0,-6.3373,0.0,-6.7695,-7.1103,-7.3449,-7.4695,-7.6079,-7.7737,-7.5656,-7.3707,-7.2395,-6.9184,0.0,0.0,-6.3749,-6.2734,-6.3245,0.0,0.0,0.0,0.0,0.0,-6.3955,-6.2228,-6.255,-6.4526,-6.3641,0.0,-6.3346,-6.3334,-6.3795,-6.4564,-6.5436,-6.5087,-6.4015,-6.3938,0.0,-6.4978,-6.4351,-6.4099,-6.4019,-6.3758,-6.3639,-6.3602,-6.3653,-6.3639,-6.3602,-6.3602,-6.3602,-6.3602,-6.3602,-6.3602,-6.3602,-6.3602,0.0,0.0,0.0,0.0,-6.3602,0.0,0.0,0.0,0.0,0.0,0.0,-6.3602,-6.2933,-6.1856,0.0,0.0,0.0,0.0,0.0,0.0,0.0,0.0,-5.9627,-5.8772,-6.0258,-6.1187,0.0,0.0,0.0,-6.4768,-6.5682,-6.6537,-6.7317,-6.7951,-6.8358,-6.8481,-6.8358,-6.8358,-6.8481,-6.8481,-6.8518,-6.8568,-6.9186,-6.9506,-6.9506,-6.9352,-6.9299,-6.9326,-6.948,-6.9631,-6.9804,-7.0647,-7.0932,-7.097,-5.8437,-5.8143,-5.818,0.0,-5.84,-5.8263,0.0,0.0,0.0,0.0,-7.1096,-7.4229,-7.7711,-7.805,-7.7861,-7.7427,-7.6764,0.0,0.0,0.0,0.0,-6.8808,-6.7202,-6.5268,-6.2968,-6.3115,0.0,-6.1137,0.0,0.0,-6.3567,-6.1305,-6.1645,-6.4102,0.0,0.0,-6.4269,-6.3997,-6.3632,-6.3302,-6.3783,-6.3616,0.0,0.0,-6.125,-6.1878,-6.288,-6.2677,-6.2215,-6.3944,-6.4085,-6.3713,-6.4308,-6.4062,-6.3602,-6.3602,-6.3602,-6.3602,-6.3602,-6.3602,-6.3602,-6.3602,-6.3602,-6.3602,0.0,0.0,0.0,0.0,0.0,0.0,0.0,0.0,0.0,0.0,0.0,0.0,0.0,0.0,0.0,-6.2116,0.0,0.0,0.0,-6.1001,-6.0258,-5.8809,-6.0258,-6.1187,0.0,0.0,0.0,-6.4768,-6.6239,-6.7094,-6.7317,-6.7876,-6.8284,-6.8481,-6.8284,-6.8234,-6.8334,-6.8334,-6.8617,-6.9071,-6.9267,-6.9377,-6.9352,-6.9221,-6.9184,-6.9352,-7.0006,-7.1124,-7.2381,-7.1998,-7.1849,-7.1923,-5.8621,-5.851,0.0,-5.9575,0.0,0.0,-6.0568,0.0,0.0,-6.8784,-7.2312,0.0,-7.7808,-7.9124,-7.9418,-7.836,-7.7452,0.0,-7.4226,0.0,0.0,-6.9794,-6.7959,-6.5947,-6.3625,-6.3314,0.0,-6.2271,0.0,0.0,-6.4668,-6.2629,-6.2552,-6.4221,0.0,-6.4333,-6.4577,-6.4013,-6.3472,-6.2974,-6.263,0.0,0.0,-6.0598,-5.9964,-5.9866,-6.1137,-6.1177,-6.0964,-6.3044,-6.3453,-6.323,-6.4025,-6.3973,-6.3602,-6.3602,-6.3602,-6.3602,-6.3602,-6.3602,-6.3602,-6.3602,-6.3602,-6.3602,-6.3602,-6.3602,-6.3602,0.0,0.0,0.0,0.0,0.0,0.0,0.0,0.0,0.0,0.0,0.0,0.0,0.0,0.0,0.0,0.0,-6.0988,-6.0151,-5.9271,-6.0401,0.0,0.0,0.0,0.0,-6.5217,-6.6229,-6.7083,-6.763,-6.7924,-6.8208,-6.8408,-6.8158,-6.8132,-6.8284,-6.8604,-6.8934,-6.9336,-6.9985,-7.0069,-6.9774,-6.9981,-6.9934,-6.98,-7.0692,-7.1907,-7.3151,-7.2706,-7.2574,-7.2674,-5.9368,0.0,0.0,0.0,0.0,0.0,0.0,-6.4348,0.0,-6.8377,0.0,-7.5689,-7.6107,-7.8755,-8.0189,-7.9443,0.0,-7.6004,-7.4613,-7.3088,-7.1673,-7.034,-6.7899,-6.5982,-6.4718,-6.323,0.0,0.0,0.0,0.0,-6.5752,-6.4318,0.0,0.0,0.0,0.0,0.0,-6.3629,-6.3117,0.0,-6.1844,-6.121,-6.0711,-6.0433,-5.9661,-5.8809,-5.9515,-5.9791,-6.0184,-6.1856,-6.2413,-6.2562,-6.3379,-6.3602,-6.3602,-6.3602,-6.3602,-6.3602,-6.3602,-6.3602,-6.3602,-6.3602,-6.3602,-6.3602,-6.3602,-6.3602,-6.3602,-6.3602,-6.3602,0.0,0.0,0.0,0.0,0.0,0.0,0.0,0.0,0.0,0.0,0.0,0.0,0.0,0.0,0.0,0.0,0.0,0.0,0.0,0.0,0.0,0.0,0.0,-6.6182,0.0,-6.8146,0.0,-6.8183,-6.8284,-6.8055,-6.8092,-6.8419,-6.9019,-6.9384,-6.9616,-7.0808,-7.0974,-7.0459,-7.0973,-7.0891,-7.0551,-7.1488,-7.2317,-7.2982,-7.2982,-7.3037,-7.3118,-6.0199,0.0,0.0,0.0,0.0,-6.482,-6.5878,-6.8703,-7.1008,-7.177,-7.4724,-7.6818,-7.6954,-7.7787,-7.8148,-7.7678,-7.7295,0.0,0.0,0.0,0.0,-7.339,-7.0954,-6.8241,-6.525,-6.4199,-6.2819,0.0,0.0,0.0,-6.3051,-6.2139,0.0,0.0,0.0,0.0,-6.3698,-6.3397,0.0,-6.0471,-6.1215,-6.0675,-5.9495,-5.944,-5.9118,-5.8735,-5.8884,-5.9367,-6.0184,-6.1856,-6.2413,-6.2562,-6.3379,-6.3602,-6.3602,-6.3602,-6.3602,-6.3602,-6.3602,-6.3602,-6.3602,-6.3602,-6.3602,-6.3602,-6.3602,-6.3602,-6.3602,-6.3602,-6.3602,-6.3602,-6.3602,0.0,0.0,0.0,0.0,0.0,0.0,0.0,0.0,0.0,0.0,0.0,0.0,0.0,0.0,0.0,0.0,0.0,0.0,0.0,0.0,0.0,0.0,0.0,0.0,0.0,0.0,-6.8284,-6.8158,-6.8362,-6.8947,-6.9068,-6.9797,-7.0937,-7.0533,-7.0652,-7.1092,-7.055,-7.0707,-7.1388,-7.2373,-7.2871,-7.2982,-7.2807,-7.2779,-7.2807,0.0,0.0,0.0,0.0,0.0,0.0,0.0,-7.1435,0.0,-7.1328,-7.3304,-7.4894,-7.4913,-7.6968,-7.81,-7.753,-7.6869,-7.6395,-7.6233,-7.4825,-7.3741,-7.3135,-7.0299,0.0,-6.5694,-6.4176,-6.3112,-6.2636,0.0,0.0,-6.3488,-6.3116,0.0,-6.3842,0.0,-6.4854,0.0,0.0,0.0,-6.0685,-6.0632,-6.0063,-5.9178,-5.9006,-5.8845,-5.8698,-5.8698,-5.8958,-5.9552,-6.1224,-6.1781,-6.2004,-6.323,-6.3602,-6.3602,-6.3602,-6.3602,-6.3602,-6.3602,-6.3602,-6.3602,-6.3602,-6.3602,-6.3579,-6.3511,-6.3511,-6.3488,-6.3419,-6.3396,-6.3373,-6.3289,-6.3419,0.0,0.0,0.0,0.0,0.0,0.0,0.0,0.0,0.0,0.0,0.0,0.0,0.0,0.0,0.0,0.0,0.0,0.0,0.0,0.0,0.0,0.0,0.0,0.0,0.0,-6.8107,-6.7978,-6.8305,-6.9115,-6.9475,-7.0239,-7.1293,-7.1321,-7.1321,-7.1256,-7.0881,-7.1202,-7.2059,-7.2548,-7.276,-7.2732,-7.2638,-7.261,-7.261,0.0,-6.305,0.0,0.0,-6.8757,0.0,-7.0754,-7.2811,-7.341,-7.0846,-7.2222,-7.3382,-7.3194,-7.6453,-7.8341,-7.7515,-7.6631,-7.587,-7.5338,-7.3387,-7.2208,-7.2081,-6.9115,-6.7011,-6.6007,-6.3829,-6.3036,0.0,0.0,0.0,0.0,0.0,0.0,0.0,0.0,0.0,0.0,0.0,-6.2571,-6.0929,-6.0037,-5.9432,-5.9046,-5.8784,-5.8698,-5.8698,-5.8698,-5.8698,-5.8921,-6.0407,-6.1038,-6.1484,-6.3082,-6.3602,-6.3602,-6.3602,-6.3602,-6.3602,-6.3602,-6.3602,-6.3602,-6.3602,-6.3602,-6.3579,-6.3488,-6.3428,-6.3382,-6.3265,-6.3194,-6.3147,-6.3026,-6.3194,0.0,0.0,0.0,0.0,0.0,0.0,0.0,0.0,0.0,0.0,0.0,0.0,0.0,0.0,0.0,0.0,0.0,0.0,0.0,0.0,0.0,0.0,-6.782,0.0,-6.7952,0.0,-6.7978,-6.8466,-6.9355,-7.0055,-7.0807,-7.1578,-7.2055,-7.1908,-7.1293,-7.1505,-7.1945,-7.2496,-7.2496,-7.2496,-7.2496,-7.2496,-7.2496,-7.2496,0.0,0.0,0.0,0.0,0.0,0.0,0.0,-7.2329,-7.3398,-7.3075,-7.4502,-7.5235,-7.4491,-7.6518,-7.7539,-7.6689,-7.6897,-7.6586,-7.5385,-7.4752,-7.3569,-7.1748,-6.9526,-6.7617,-6.6007,-6.3558,-6.1949,0.0,0.0,0.0,0.0,0.0,0.0,0.0,0.0,0.0,0.0,-6.0745,-5.9938,-5.94,-5.9308,-5.9064,-5.8739,-5.8698,-5.8698,-5.8698,-5.8698,-5.8698,-5.8846,-5.9738,-6.0555,-6.1484,-6.3082,-6.3602,-6.3602,-6.3602,-6.3602,-6.3602,-6.3602,-6.3602,-6.3602,-6.3602,-6.3602,-6.3579,-6.3579,-6.3579,-6.3534,-6.3419,-6.3265,-6.3147,-6.3026,-6.3123,-6.3194,0.0,0.0,0.0,0.0,0.0,0.0,0.0,0.0,0.0,0.0,0.0,0.0,0.0,0.0,0.0,0.0,0.0,0.0,-6.584,0.0,-6.7271,-6.8234,-6.8158,0.0,-6.7926,-6.8609,-6.9328,-7.0027,-7.0844,-7.1651,-7.2349,-7.1725,-7.1394,-7.1329,-7.2092,-7.2422,-7.2496,-7.2496,-7.2496,-7.2496,-7.2496,-7.2496,-7.2496,0.0,0.0,0.0,0.0,0.0,0.0,0.0,-7.3681,-7.3956,-7.3473,-7.4175,-7.4599,-7.4262,-7.5467,-7.615,-7.5812,-7.5449,-7.5058,-7.4549,-7.2987,-7.1691,-7.0855,-6.8403,-6.6748,-6.609,-6.3331,-6.1864,0.0,0.0,0.0,0.0,0.0,0.0,0.0,0.0,-6.083,-6.021,-6.0416,-6.0025,-5.9215,-5.9215,-5.9006,-5.8698,-5.8698,-5.8698,-5.8698,-5.8698,-5.8698,-5.8846,-5.9627,-6.0147,-6.0704,-6.2376,-6.2896,-6.297,-6.3453,-6.3602,-6.3602,-6.3602,-6.3602,-6.3602,-6.3602,-6.3602,-6.3579,-6.3511,-6.3488,-6.3465,-6.3289,-6.3171,-6.3051,-6.3002,-6.3051,-6.3051,0.0,0.0,0.0,0.0,0.0,0.0,0.0,0.0,0.0,0.0,0.0,0.0,0.0,0.0,0.0,0.0,0.0,0.0,-6.5767,0.0,-6.6636,-6.8055,-6.7952,-6.8104,-6.8502,-6.8833,-6.9651,-7.0844,-7.1174,-7.1762,-7.2496,-7.2165,-7.2018,-7.2055,-7.2386,-7.2496,-7.2496,-7.2496,-7.2496,-7.2496,-7.2496,-7.2496,-7.2496,-6.9056,0.0,-7.0993,0.0,-7.3474,-7.4067,-7.4227,-7.4253,-7.4067,-7.3473,-7.3653,-7.391,-7.4172,-7.5041,-7.5549,-7.5324,-7.4839,-7.441,-7.4024,-7.1944,-7.0638,-7.048,-6.7654,0.0,-6.6091,-6.335,-6.1994,-6.2199,-6.167,0.0,0.0,0.0,0.0,0.0,-6.0516,-6.0281,-5.9457,-6.0076,-5.9833,-5.9064,-5.9064,-5.8925,-5.8698,-5.8698,-5.8698,-5.8698,-5.8698,-5.8698,-5.8809,-5.9367,-5.9552,-5.9887,-6.1819,-6.2413,-6.2562,-6.3379,-6.3602,-6.3602,-6.3602,-6.3602,-6.3602,-6.3602,-6.3602,-6.3579,-6.3488,-6.3465,-6.3419,-6.3255,-6.3099,-6.3002,-6.2953,-6.2953,-6.2929,0.0,0.0,0.0,0.0,0.0,0.0,0.0,0.0,-6.3218,-6.3147,0.0,0.0,0.0,0.0,0.0,0.0,0.0,0.0,0.0,0.0,0.0,0.0,0.0,-6.8348,-6.8898,-6.9376,-7.022,-7.1293,-7.1541,-7.1982,-7.2496,-7.2496,-7.2496,-7.2496,-7.2496,-7.2496,-7.2496,-7.2496,-7.2496,-7.2496,-7.2496,-7.2496,-7.2496,-7.1246,-7.1088,-7.1353,-7.4089,-7.3824,-7.3252,-7.341,-7.3435,-7.3435,-7.3398,-7.3398,-7.3696,-7.4513,-7.5745,-7.615,-7.5361,-7.5701,-7.5409,-7.4093,-7.2493,-7.1364,0.0,0.0,-6.6091,-6.6091,-6.3676,-6.2183,-6.1692,0.0,0.0,-5.9234,0.0,0.0,-5.9865,-5.9069,-5.9181,-5.985,-5.9069,-5.8698,-5.8698,-5.8698,-5.8698,-5.8698,-5.8698,-5.8698,-5.8698,-5.8698,-5.8698,-5.8698,-5.8735,-5.8735,-5.9144,-6.1633,-6.2413,-6.2562,-6.3379,-6.3602,-6.3602,-6.3602,-6.3602,-6.3602,-6.3602,-6.3602,-6.3602,-6.3579,-6.3579,-6.3511,-6.3242,-6.3099,-6.2953,-6.283,-6.2805,-6.283,-6.2978,0.0,0.0,0.0,0.0,0.0,0.0,-6.3242,-6.3289,-6.3026,0.0,0.0,0.0,0.0,0.0,0.0,0.0,0.0,-6.5469,-6.6279,0.0,-6.7863,-6.8576,-6.8898,-6.8935,-7.0513,-7.1256,-7.1329,-7.2129,-7.2496,-7.2496,-7.2496,-7.2496,-7.2496,-7.2496,-7.2496,-7.2496,-7.2496,-7.2496,-7.2496,-7.2496,-7.2496,-7.2496,-7.2563,-7.296,-7.3458,-7.4423,-7.4795,-7.4805,-7.4301,-7.4216,-7.4004,-7.3473,-7.3398,-7.351,-7.3744,-7.4148,-7.4287,0.0,-7.34,-7.2815,0.0,-7.0818,-6.9966,-7.0056,-6.7539,-6.6216,-6.6475,-6.3817,-6.207,-6.1363,0.0,0.0,0.0,-5.9414,-5.9282,-5.9069,-5.8809,-5.8846,-5.9069,-5.8809,-5.8698,-5.8698,-5.8698,-5.8698,-5.8698,-5.8698,-5.8698,-5.8698,-5.8698,-5.8698,-5.8698,-5.8698,-5.8698,-5.9032,-6.0964,-6.1596,-6.1856,-6.3193,-6.3602,-6.3602,-6.3602,-6.3602,-6.3579,-6.3488,-6.3488,-6.3465,-6.3349,-6.3349,-6.3326,-6.3231,-6.3099,-6.3002,-6.2953,-6.2855,-6.2805,-6.2855,0.0,0.0,0.0,0.0,0.0,0.0,0.0,-6.2953,0.0,-6.3026,0.0,0.0,0.0,0.0,0.0,0.0,0.0,0.0,-6.6228,0.0,-6.7863,-6.8576,-6.9192,-6.9743,-7.0807,-7.1615,-7.2129,-7.2386,-7.2496,-7.2496,-7.2496,-7.2496,-7.2496,-7.2496,-7.2496,-7.2496,-7.2496,-7.2496,-7.2496,-7.2496,-7.2496,-7.2496,-7.3009,-7.3498,-7.3885,-7.3993,-7.4455,-7.463,-7.4147,-7.4126,-7.3967,-7.3473,-7.3138,-7.2952,-7.2952,-7.2666,0.0,-7.2915,-7.2261,-7.1682,-7.1345,-7.0097,-6.9297,-6.924,-6.7232,-6.6044,-6.6004,0.0,0.0,-6.167,-6.0914,-6.0151,-5.9335,-5.9335,-5.9096,-5.8698,-5.8698,-5.8698,-5.8698,-5.8698,-5.8698,-5.8698,-5.8698,-5.8698,-5.8698,-5.8698,-5.8698,-5.8698,-5.8698,-5.8698,-5.8698,-5.8698,-5.8698,-5.8958,-6.0295,-6.0964,-6.1521,-6.3156,-6.3602,-6.3602,-6.3602,-6.3557,-6.3511,-6.3405,-6.3359,-6.3289,-6.3194,-6.3194,-6.3208,-6.3123,-6.3051,-6.2978,-6.2929,-6.2855,-6.278,-6.278,0.0,-6.278,0.0,0.0,0.0,0.0,0.0,0.0,0.0,-6.3137,0.0,0.0,0.0,0.0,0.0,0.0,0.0,-6.5962,-6.6617,0.0,-6.782,-6.8843,-6.9596,-7.011,-7.1211,-7.2018,-7.2496,-7.2496,-7.2496,-7.2496,-7.2496,-7.2496,-7.2496,-7.2496,-7.2496,-7.2496,-7.2496,-7.2496,-7.2496,-7.2496,-7.2496,-7.2496,-7.2723,-7.2899,0.0,0.0,-7.3118,0.0,-7.3199,-7.3257,-7.3361,-7.3398,-7.2655,-7.2172,-7.2283,-7.1478,-7.1255,-7.206,0.0,0.0,0.0,-7.0041,-6.9286,-6.8591,-6.6945,0.0,-6.4948,-6.4048,-6.3193,-6.2339,-6.063,-5.9441,-5.8698,-5.8698,-5.8698,-5.8698,-5.8698,-5.8698,-5.8698,-5.8698,-5.8698,-5.8698,-5.8698,-5.8698,-5.8698,-5.8698,-5.8698,-5.8698,-5.8698,-5.8698,-5.8698,-5.8698,-5.8698,-5.8846,-5.9643,-6.0481,-6.1447,-6.3044,-6.3565,-6.3602,-6.3602,-6.3511,-6.3382,-6.3382,-6.3265,-6.3147,-6.3147,-6.3147,-6.3123,-6.3002,-6.3002,-6.2953,-6.2805,-6.278,-6.278,-6.278,-6.278,-6.278,-6.278,0.0,0.0,0.0,0.0,0.0,0.0,-6.353,-6.3358,0.0,0.0,0.0,0.0,0.0,-6.5798,-6.6476,-6.7283,-6.7724,-6.776,-6.9302,-7.0146,-7.0293,-7.1798,-7.2496,-7.2496,-7.2496,-7.2496,-7.2496,-7.2496,-7.2496,-7.2496,-7.2496,-7.2496,-7.2496,-7.2496,-7.2496,-7.2496,-7.2496,-7.2496,-7.2496,0.0,0.0,-7.3064,-7.3278,-7.3252,-7.3225,-7.3357,-7.2852,-7.2692,-7.3324,-7.2109,-7.1701,-7.2964,-7.1812,-7.097,-7.1218,-7.066,-7.0215,-7.0004,-6.9224,-6.886,-6.8952,-6.7118,-6.6164,-6.624,-6.451,-6.2933,-6.1484,-5.9812,-5.8884,-5.8698,-5.8698,-5.8698,-5.8698,-5.8698,-5.8698,-5.8698,-5.8698,-5.8698,-5.8698,-5.8698,-5.8698,-5.8698,-5.8698,-5.8698,-5.8698,-5.8698,-5.8698,-5.8698,-5.8698,-5.8698,-5.8846,-5.9643,-6.0035,-6.0555,-6.2227,-6.3119,-6.3602,-6.3602,-6.3511,-6.3359,-6.3265,-6.3051,-6.288,-6.288,-6.288,-6.288,-6.2855,-6.283,-6.283,-6.2805,-6.278,-6.278,-6.278,-6.278,-6.278,-6.278,0.0,0.0,0.0,-6.3443,-6.392,-6.4104,-6.3957,-6.392,0.0,0.0,0.0,0.0,0.0,-6.5694,-6.6476,-6.7283,-6.7981,-6.8605,-6.9596,-7.0734,-7.1945,-7.2312,-7.2496,-7.2496,-7.2496,-7.2496,-7.2496,-7.2496,-7.2496,-7.2496,-7.2496,-7.2496,-7.2496,-7.2496,-7.2496,-7.2496,-7.2496,-7.2496,-7.2496,-7.2918,-7.2982,-7.3037,-7.3199,-7.3225,-7.3225,-7.3305,-7.2975,-7.2915,-7.3361,-7.2295,-7.1849,-7.2767,-7.1701,-7.0747,-7.0375,-6.993,-6.9521,-6.9187,-6.8741,-6.8254,-6.7748,-6.6677,-6.5835,-6.5304,-6.4182,-6.2822,-6.1187,-6.0295,-5.9441,-5.8698,-5.8698,-5.8698,-5.8698,-5.8698,-5.8698,-5.8698,-5.8698,-5.8698,-5.8698,-5.8698,-5.8698,-5.8698,-5.8698,-5.8698,-5.8698,-5.8698,-5.8698,-5.8698,-5.8698,-5.8698,-5.8772,-5.9218,-5.9887,-6.0593,-6.1113,-6.2116,-6.3156,-6.3527,-6.3511,-6.3336,-6.3147,-6.3002,-6.288,-6.2805,-6.278,-6.278,-6.278,-6.278,-6.278,-6.278,-6.278,-6.278,-6.278,-6.278,-6.278,-6.278,-6.278,0.0,-6.278,-6.3576,-6.4237,-6.4604,-6.464,-6.4787,-6.5154,0.0,0.0,-6.5778,-6.5852,-6.6219,-6.7026,-6.7467,-6.8091,-6.8898,-7.0073,-7.1284,-7.2496,-7.2496,-7.2496,-7.2496,-7.2496,-7.2496,-7.2496,-7.2496,-7.2496,-7.2496,-7.2496,-7.2496,-7.2496,-7.2496,-7.2496,-7.2496,-7.2496,-7.2496,-7.2496,-7.2927,-7.3001,-7.3037,-7.3064,-7.3145,-7.3199,-7.3225,-7.322,-7.3287,-7.3398,-7.2555,-7.2098,-7.2358,-7.1478,-7.0672,-7.014,-6.9855,-6.9335,-6.8556,-6.8481,-6.7887,-6.6537,-6.6239,-6.5422,-6.401,-6.349,-6.2524,-6.1001,-6.089,-6.011,-5.8698,-5.8698,-5.8698,-5.8698,-5.8698,-5.8698,-5.8698,-5.8698,-5.8698,-5.8698,-5.8698,-5.8698,-5.8698,-5.8698,-5.8698,-5.8698,-5.8698,-5.8698,-5.8698,-5.8698,-5.8698,-5.8698,-5.8698,-5.9701,-6.0741,-6.0258,-6.1113,-6.2376,-6.3044,-6.3214,-6.3187,-6.3038,-6.3002,-6.2978,-6.283,-6.278,-6.278,-6.278,-6.278,-6.278,-6.278,-6.278,-6.278,-6.278,-6.278,-6.278,-6.278,0.0,-6.2853,-6.2989,-6.3759,-6.4604,-6.5411,-6.5485,-6.5778,-6.6439,-6.5742,0.0,0.0,-6.6512,-6.688,-6.765,-6.7687,-6.8128,-6.9082,-7.0697,-7.1835,-7.2496,-7.2496,-7.2496,-7.2496,-7.2496,-7.2496,-7.2496,-7.2496,-7.2496,-7.2496,-7.2496,-7.2496,-7.2496,-7.2496,-7.2496,-7.2496,-7.2496,-7.2496,-7.2532,-7.4006,-7.3589,-7.3199,-7.3331,-7.3278,-7.3252,-7.332,-7.2815,-7.2655,-7.3324,-7.2072,-7.1663,-7.3064,-7.1849,-7.1143,-7.1738,-7.0512,-6.9335,-6.8556,-6.8481,-6.8394,-6.8134,-6.6834,-6.5979,-6.5719,-6.3007,-6.1113,-6.011,-5.9441,-5.8958,-5.8698,-5.8698,-5.8698,-5.8698,-5.8698,-5.8698,-5.8698,-5.8698,-5.8698,-5.8698,-5.8698,-5.8698,-5.8698,-5.8698,-5.8698,-5.8698,-5.8698,-5.8698,-5.8698,-5.8698,-5.8698,-5.8698,-5.8698,-5.8884,-5.9367,-6.063,-6.1187,-6.141,-6.1558,-6.1953,-6.2484,-6.2891,-6.3002,-6.2978,-6.283,-6.278,-6.278,-6.278,-6.278,-6.278,-6.278,-6.278,-6.278,-6.278,-6.278,-6.278,0.0,0.0,-6.3062,-6.3796,-6.4604,-6.5448,-6.6256,-6.6329,-6.6366,-6.6476,-6.5742,-6.5668,-6.6476,-6.6512,-6.688,-6.765,-6.7687,-6.8385,-6.9889,-7.1505,-7.2386,-7.2496,-7.2496,-7.2496,-7.2496,-7.2496,-7.2496,-7.2496,-7.2496,-7.2496,-7.2496,-7.2496,-7.2496,-7.2496,-7.2496,-7.2496,-7.2496,-7.2496,-7.2496,-7.2606,-7.3656,-7.3818,-7.3813,-7.3447,-7.3357,-7.3331,-7.3372,-7.3101,-7.299,-7.3361,-7.2741,-7.2555,-7.3298,-7.2704,-7.2035,-7.1552,-7.0809,-6.9818,-6.8556,-6.8481,-6.8134,-6.7243,-6.65,-6.5682,-6.4791,-6.2859,-6.1447,-6.0593,-5.9775,-5.9144,-5.8698,-5.8698,-5.8698,-5.8698,-5.8698,-5.8698,-5.8698,-5.8698,-5.8698,-5.8698,-5.8698,-5.8698,-5.8698,-5.8698,-5.8698,-5.8698,-5.8698,-5.8698,-5.8698,-5.8698,-5.8698,-5.8698,-5.8698,-5.9329,-6.011,-6.0407,-6.1447,-6.2487,-6.2487,-6.2658,-6.2891,-6.3073,-6.3051,-6.2978,-6.283,-6.278,-6.278,-6.278,-6.278,-6.278,-6.278,-6.278,-6.278,-6.278,-6.278,0.0,0.0,-6.278,-6.3135,-6.398,-6.4824,-6.5632,-6.6402,-6.688,-6.7136,-6.7136,-6.6806,-6.6733,-6.7136,-6.7136,-6.732,-6.7687,-6.8531,-6.9559,-7.0734,-7.1908,-7.2496,-7.2496,-7.2496,-7.2496,-7.2496,-7.2496,-7.2496,-7.2496,-7.2496,-7.2496,-7.2496,-7.2496,-7.2496,-7.2496,-7.2496,-7.2496,-7.2496,-7.2496,-7.2789,-7.3193,-7.361,-7.3939,-7.4163,-7.3744,-7.3547,-7.3398,-7.3398,-7.3398,-7.3398,-7.3398,-7.3398,-7.3398,-7.3398,-7.3398,-7.2889,-7.1589,-7.1118,-7.0375,-6.9113,-6.8704,-6.7874,-6.6462,-6.6017,-6.5013,-6.3379,-6.2747,-6.193,-6.089,-6.0221,-5.9515,-5.8698,-5.8698,-5.8698,-5.8698,-5.8698,-5.8698,-5.8698,-5.8698,-5.8698,-5.8735,-5.8921,-5.8995,-5.8995,-5.8995,-5.8995,-5.8958,-5.8772,-5.8698,-5.8698,-5.8698,-5.8698,-5.8698,-5.8698,-5.968,-6.0772,-6.029,-6.1752,-6.3474,-6.3356,-6.3214,-6.3137,-6.3181,-6.3099,-6.2978,-6.283,-6.278,-6.278,-6.278,-6.278,-6.278,-6.278,-6.278,-6.278,-6.278,0.0,0.0,0.0,-6.2989,-6.3429,-6.4273,-6.5081,-6.5888,-6.6696,-6.732,-6.7687,-6.7687,-6.7687,-6.7687,-6.7687,-6.7687,-6.7898,-6.8238,-6.9449,-7.0477,-7.1293,-7.2092,-7.2496,-7.2496,-7.2496,-7.2496,-7.2496,-7.2496,-7.2496,-7.2496,-7.2496,-7.2496,-7.2496,-7.2496,-7.2496,-7.2496,-7.2496,-7.2496,-7.2532,-7.2716,-7.3156,-7.3744,-7.4911,-7.4164,-7.3548,-7.4349,-7.3892,-7.3398,-7.3398,-7.3398,-7.3398,-7.3398,-7.3398,-7.3398,-7.3398,-7.3398,-7.3335,-7.3224,-7.1812,-7.0858,-7.071,-6.9335,-6.8134,-6.7243,-6.5719,-6.4136,-6.2524,-6.245,-6.1633,-5.9998,-5.9903,-5.9515,-5.8698,-5.8698,-5.8698,-5.8698,-5.8698,-5.8698,-5.8698,-5.8698,-5.8698,-5.8772,-5.9515,-5.9791,-5.9791,-5.9791,-5.9791,-5.9717,-5.8995,-5.8698,-5.8698,-5.8698,-5.8698,-5.8698,-5.8698,-5.9208,-5.9937,-6.07,-6.2017,-6.3117,-6.2606,-6.2398,-6.2433,-6.307,-6.3099,-6.2978,-6.283,-6.278,-6.278,-6.278,-6.278,-6.278,-6.278,-6.278,-6.278,-6.278,0.0,0.0,-6.278,-6.3503,-6.431,-6.5118,-6.5925,-6.6733,-6.7504,-6.765,-6.7687,-6.7687,-6.7687,-6.7687,-6.7687,-6.7687,-6.8385,-6.9889,-7.0036,-7.0477,-7.1293,-7.2092,-7.2496,-7.2496,-7.2496,-7.2496,-7.2496,-7.2496,-7.2496,-7.2496,-7.2496,-7.2496,-7.2496,-7.2496,-7.2496,-7.2496,-7.2496,-7.2496,-7.2606,-7.334,-7.3634,-7.3891,-7.37,-7.385,-7.3892,-7.376,-7.3543,-7.3398,-7.3398,-7.3398,-7.3398,-7.3398,-7.3398,-7.3398,-7.3398,-7.3398,-7.2964,-7.1961,-7.1292,-7.0487,-6.9484,-6.8816,-6.7924,-6.6611,-6.5436,-6.4285,-6.3193,-6.2673,-6.1856,-6.0704,-6.0184,-5.9515,-5.8698,-5.8698,-5.8698,-5.8698,-5.8698,-5.8698,-5.8698,-5.8698,-5.8698,-5.8772,-5.9589,-5.9903,-5.994,-6.0518,-6.0704,-6.0593,-5.9775,-5.942,-5.9346,-5.8762,-5.8969,-5.9399,-5.9307,-6.0174,-6.1396,-6.2142,-6.2738,-6.3158,-6.2979,-6.2798,-6.2778,-6.3001,-6.2978,-6.2855,-6.2805,-6.278,-6.278,-6.278,-6.278,-6.278,-6.278,-6.278,-6.278,-6.278,0.0,-6.2989,-6.3539,-6.387,-6.4567,-6.5888,-6.6329,-6.6806,-6.7614,-6.7687,-6.7687,-6.7687,-6.7687,-6.7687,-6.7687,-6.7687,-6.8421,-7.0036,-7.011,-7.0734,-7.2055,-7.2349,-7.2496,-7.2496,-7.2496,-7.2496,-7.2496,-7.2496,-7.2496,-7.2496,-7.2496,-7.2496,-7.2496,-7.2496,-7.2496,-7.2496,-7.2496,-7.2789,-7.3266,-7.3597,-7.4331,-7.5285,-7.3137,-7.3518,-7.3794,-7.3616,-7.3427,-7.332,-7.3372,-7.3398,-7.3398,-7.3398,-7.3398,-7.3398,-7.3398,-7.3398,-7.2927,-7.1812,-7.1192,-7.0412,-6.9335,-6.8778,-6.78,-6.6165,-6.5274,-6.4419,-6.3616,-6.3082,-6.2264,-6.1187,-6.0593,-5.9775,-5.8698,-5.8698,-5.8698,-5.8698,-5.8698,-5.8846,-5.9069,-5.8809,-5.8846,-5.9144,-5.968,-5.9903,-5.9998,-6.0555,-6.0778,-6.0645,-5.977,-5.9452,-5.9393,-5.8989,-5.927,-5.9832,-5.9952,-6.0927,-6.2207,-6.2878,-6.3051,-6.3051,-6.3051,-6.3002,-6.2953,-6.3002,-6.2904,-6.278,-6.278,-6.278,-6.278,-6.278,-6.278,-6.278,-6.278,-6.278,-6.278,-6.278,-6.278,-6.3099,-6.398,-6.431,-6.4971,-6.6329,-6.6733,-6.71,-6.7677,-6.7687,-6.7687,-6.7687,-6.7687,-6.7687,-6.7687,-6.7944,-6.8678,-7.0036,-7.033,-7.1138,-7.2496,-7.2496,-7.2496,-7.2496,-7.2496,-7.2496,-7.2496,-7.2496,-7.2496,-7.2496,-7.2496,-7.2496,-7.2496,-7.2496,-7.2496,-7.2496,-7.2496,-7.2826,-7.3377,-7.3891,-7.4771,-7.5799,-7.3799,-7.3312,-7.3065,-7.4181,-7.3717,-7.3252,-7.3372,-7.3372,-7.3398,-7.3398,-7.3398,-7.3398,-7.3398,-7.3398,-7.3398,-7.3398,-7.1849,-7.0895,-7.0858,-6.9373,-6.78,-6.6165,-6.525,-6.4433,-6.3616,-6.3602,-6.2822,-6.1187,-6.1187,-6.037,-5.8735,-5.8698,-5.8698,-5.8735,-5.8698,-5.9144,-5.985,-5.9069,-5.9181,-5.9924,-5.9924,-5.9924,-5.9903,-5.9903,-5.9903,-5.9791,-5.8847,-5.8529,-5.8619,-5.9361,-5.9612,-5.976,-6.0549,-6.1292,-6.1947,-6.261,-6.278,-6.278,-6.278,-6.278,-6.283,-6.2978,-6.2904,-6.278,-6.278,-6.278,-6.278,-6.278,-6.278,-6.278,-6.278,-6.278,-6.278,-6.278,-6.278,-6.3099,-6.398,-6.4787,-6.5595,-6.6402,-6.7173,-6.7687,-6.7687,-6.7687,-6.7687,-6.7687,-6.7687,-6.7687,-6.7687,-6.8458,-6.9265,-7.0073,-7.0881,-7.1688,-7.2496,-7.2496,-7.2496,-7.2496,-7.2496,-7.2496,-7.2496,-7.2496,-7.2496,-7.2496,-7.2496,-7.2496,-7.2496,-7.2496,-7.2496,-7.2496,-7.2496,-7.2496,-7.2716,-7.4294,-7.4918,-7.5139,-7.2912,-7.2822,-7.2797,-7.3167,-7.313,-7.3091,-7.3252,-7.3278,-7.3305,-7.3372,-7.3398,-7.3398,-7.3398,-7.3398,-7.3175,-7.2618,-7.1552,-7.0412,-6.9261,-6.8741,-6.78,-6.6165,-6.5868,-6.5051,-6.3639,-6.3602,-6.2822,-6.1187,-6.1187,-6.063,-5.9531,-5.8958,-5.8995,-5.9515,-5.8958,-5.9144,-5.9887,-5.9664,-6.0035,-6.0815,-6.0815,-6.0772,-6.0648,-6.0648,-6.0604,-6.05,-6.0196,-6.0122,-6.0137,-6.0259,-6.0762,-6.1399,-6.2116,-6.2401,-6.2561,-6.2732,-6.278,-6.278,-6.278,-6.278,-6.2805,-6.2855,-6.283,-6.278,-6.278,-6.278,-6.278,-6.278,-6.278,-6.278,-6.278,-6.278,-6.278,-6.278,-6.278,-6.3099,-6.398,-6.431,-6.4971,-6.6329,-6.6696,-6.7063,-6.7677,-6.7687,-6.7687,-6.7687,-6.7687,-6.7687,-6.7687,-6.8458,-6.9265,-7.0073,-7.0881,-7.1688,-7.2496,-7.2496,-7.2496,-7.2496,-7.2496,-7.2496,-7.2496,-7.2496,-7.2496,-7.2496,-7.2496,-7.2496,-7.2496,-7.2496,-7.2496,-7.2496,-7.2496,-7.2826,-7.3377,-7.3891,-7.4771,-7.5799,-7.261,-7.2638,-7.2695,-7.2695,-7.2779,-7.2955,-7.3172,-7.3199,-7.3252,-7.3372,-7.3398,-7.3398,-7.3398,-7.3398,-7.3212,-7.2729,-7.1589,-7.0227,-6.8593,-6.8481,-6.7924,-6.6648,-6.6574,-6.5645,-6.3639,-6.3602,-6.297,-6.167,-6.167,-6.1261,-6.0407,-5.9924,-5.9961,-6.0407,-5.9924,-6.0147,-6.089,-6.0555,-6.0846,-6.1567,-6.127,-6.1056,-6.0944,-6.0944,-6.0862,-6.0794,-6.0748,-6.0725,-6.0739,-6.093,-6.1579,-6.2376,-6.2806,-6.2855,-6.278,-6.278,-6.278,-6.278,-6.278,-6.278,-6.278,-6.278,-6.278,-6.278,-6.278,-6.278,-6.278,-6.278,-6.278,-6.278,-6.278,-6.278,-6.278,-6.278,-6.278,-6.3099,-6.398,-6.409,-6.4677,-6.6292,-6.6512,-6.6806,-6.7614,-6.7687,-6.7687,-6.7687,-6.7687,-6.7687,-6.7687,-6.8752,-6.9596,-7.0073,-7.1211,-7.2018,-7.2496,-7.2496,-7.2496,-7.2496,-7.2496,-7.2496,-7.2496,-7.2496,-7.2496,-7.2496,-7.2496,-7.2496,-7.2496,-7.2496,-7.2496,-7.2496,-7.2496,-7.2789,-7.3266,-7.356,-7.4515,-7.5689,-7.2751,-7.2723,-7.2723,-7.2723,-7.2723,-7.2807,-7.3145,-7.3199,-7.3225,-7.3372,-7.3398,-7.3398,-7.3398,-7.3398,-7.3398,-7.3324,-7.1775,-7.0115,-6.8617,-6.8481,-6.8134,-6.7354,-6.7317,-6.6202,-6.3899,-6.375,-6.3305,-6.2524,-6.245,-6.2041,-6.1298,-6.1224,-6.1261,-6.1298,-6.1224,-6.167,-6.2339,-6.1633,-6.1715,-6.2256,-6.1419,-6.1055,-6.0882,-6.0808,-6.0748,-6.0762,-6.0706,-6.0696,-6.0783,-6.1496,-6.2181,-6.278,-6.289,-6.289,-6.289,-6.289,-6.289,-6.289,-6.289,-6.2853,-6.2817,-6.2915,-6.289,-6.2915,-6.2817,-6.278,-6.278,-6.278,-6.278,-6.278,-6.278,-6.278,-6.278,-6.278,-6.278,-6.3099,-6.387,-6.4053,-6.4677,-6.6219,-6.6476,-6.6806,-6.7614,-6.7687,-6.7687,-6.7687,-6.7687,-6.7687,-6.7687,-6.9229,-7.011,-7.011,-7.1651,-7.2496,-7.2496,-7.2496,-7.2496,-7.2496,-7.2496,-7.2496,-7.2496,-7.2496,-7.2496,-7.2496,-7.2496,-7.2496,-7.2496,-7.2496,-7.2496,-7.2496,-7.2496,-7.2532,-7.2716,-7.3413,-7.4258,-7.5139,-7.2955,-7.2927,-7.2927,-7.2927,-7.2779,-7.2807,-7.3145,-7.3118,-7.3145,-7.3346,-7.3398,-7.3398,-7.3398,-7.3398,-7.3175,-7.2544,-7.092,-6.9521,-6.8556,-6.8481,-6.8134,-6.7354,-6.7317,-6.676,-6.5571,-6.4902,-6.4159,-6.3342,-6.271,-6.2301,-6.2153,-6.1484,-6.1558,-6.2116,-6.1484,-6.167,-6.2413,-6.2227,-6.2576,-6.3222,-6.2316,-6.1869,-6.168,-6.0937,-6.0585,-6.0564,-6.1165,-6.1385,-6.1496,-6.2291,-6.2658,-6.289,-6.3613,-6.3796,-6.3796,-6.3796,-6.3796,-6.3796,-6.3796,-6.3319,-6.2989,-6.3649,-6.3796,-6.3649,-6.2989,-6.278,-6.278,-6.278,-6.278,-6.278,-6.278,-6.278,-6.278,-6.278,-6.278,-6.2879,-6.3062,-6.3686,-6.4457,-6.5448,-6.6109,-6.6806,-6.7614,-6.7687,-6.7687,-6.7687,-6.7687,-6.7687,-6.7687,-6.9229,-7.011,-7.011,-7.1651,-7.2496,-7.2496,-7.2496,-7.2496,-7.2496,-7.2496,-7.2496,-7.2496,-7.2496,-7.2496,-7.2496,-7.2496,-7.2496,-7.2496,-7.2496,-7.2496,-7.2496,-7.2496,-7.2899,-7.345,-7.3634,-7.4625,-7.5946,-7.3118,-7.3091,-7.3064,-7.3009,-7.2927,-7.289,-7.3172,-7.3145,-7.3172,-7.3346,-7.3398,-7.3398,-7.3398,-7.3398,-7.2889,-7.1701,-7.0437,-6.9335,-6.8556,-6.8481,-6.8296,-6.7887,-6.7874,-6.7688,-6.7243,-6.6054,-6.5013,-6.4173,-6.375,-6.3379,-6.297,-6.2562,-6.2562,-6.297,-6.2524,-6.2599,-6.297,-6.297,-6.3185,-6.3474,-6.296,-6.2683,-6.253,-6.2053,-6.1798,-6.1763,-6.2229,-6.2328,-6.2316,-6.2757,-6.3162,-6.3603,-6.3968,-6.4398,-6.4779,-6.4703,-6.4383,-6.4163,-6.4567,-6.3759,-6.3099,-6.4347,-6.4383,-6.398,-6.3503,-6.3429,-6.3429,-6.3429,-6.3429,-6.3429,-6.3429,-6.3723,-6.3991,-6.3991,-6.3686,-6.3539,-6.3943,-6.4053,-6.453,-6.5742,-6.6256,-6.6806,-6.7614,-6.7687,-6.7687,-6.7687,-6.7687,-6.7687,-6.7687,-6.9229,-7.011,-7.011,-7.1651,-7.2496,-7.2496,-7.2496,-7.2496,-7.2496,-7.2496,-7.2496,-7.2496,-7.2496,-7.2496,-7.2496,-7.2496,-7.2496,-7.2496,-7.2496,-7.2496,-7.2496,-7.2496,-7.2973,-7.3707,-7.3707,-7.4698,-7.624,-7.3252,-7.3225,-7.3199,-7.3091,-7.3037,-7.3064,-7.3225,-7.3225,-7.3252,-7.3372,-7.3398,-7.3372,-7.3346,-7.3235,-7.2604,-7.1255,-7.0227,-6.941,-6.8741,-6.8556,-6.8481,-6.8481,-6.8481,-6.8481,-6.8481,-6.7205,-6.6017,-6.5028,-6.473,-6.4248,-6.3602,-6.3602,-6.3602,-6.3602,-6.3602,-6.3602,-6.3602,-6.3602,-6.3534,-6.3405,-6.3382,-6.3312,-6.3218,-6.3194,-6.3194,-6.3194,-6.3194,-6.3099,-6.3002,-6.3002,-6.3555,-6.4266,-6.4288,-6.4938,-6.5676,-6.5547,-6.5044,-6.464,-6.5338,-6.4383,-6.3613,-6.5118,-6.5007,-6.4494,-6.4494,-6.4273,-6.4127,-6.4273,-6.42,-6.4127,-6.4273,-6.4861,-6.5301,-6.5301,-6.4751,-6.453,-6.5228,-6.4824,-6.5007,-6.6329,-6.6623,-6.6953,-6.7614,-6.7687,-6.7687,-6.7687,-6.7687,-6.7687,-6.7687,-6.9229,-7.011,-7.011,-7.1651,-7.2496,-7.2496,-7.2496,-7.2496,-7.2496,-7.2496,-7.2496,-7.2496,-7.2496,-7.2496,-7.2496,-7.2496,-7.2496,-7.2496,-7.2642,-7.2716,-7.2716,-7.2863,-7.3413,-7.4111,-7.4258,-7.5175,-7.6423,-7.3346,-7.3346,-7.3346,-7.332,-7.3252,-7.3225,-7.3346,-7.3278,-7.3252,-7.3372,-7.3398,-7.3383,-7.3252,-7.2558,-7.2092,-7.2035,-7.0623,-6.9633,-6.9521,-6.889,-6.8481,-6.8481,-6.8481,-6.8481,-6.8481,-6.8296,-6.7465,-6.5942,-6.4493,-6.3691,-6.3602,-6.3602,-6.3602,-6.3602,-6.3602,-6.3602,-6.3602,-6.3602,-6.3579,-6.3557,-6.3465,-6.3382,-6.3336,-6.3218,-6.3194,-6.3194,-6.3194,-6.3099,-6.3002,-6.3002,-6.3481,-6.4225,-6.4934,-6.5705,-6.6355,-6.6329,-6.6256,-6.6182,-6.6292,-6.5668,-6.5191,-6.6109,-6.6256,-6.6182,-6.6182,-6.5081,-6.431,-6.5007,-6.4567,-6.431,-6.5007,-6.5228,-6.5301,-6.5301,-6.5228,-6.5191,-6.5301,-6.5815,-6.6256,-6.6476,-6.71,-6.7577,-6.7687,-6.7687,-6.7687,-6.7687,-6.7687,-6.7687,-6.7687,-6.9229,-7.011,-7.011,-7.1651,-7.2496,-7.2496,-7.2496,-7.2496,-7.2496,-7.2496,-7.2496,-7.2496,-7.2496,-7.2496,-7.2496,-7.2496,-7.2496,-7.2569,-7.323,-7.3523,-7.3597,-7.4294,-7.5065,-7.5873,-7.657,-7.6943,-7.7127,-7.3346,-7.3398,-7.3398,-7.3398,-7.332,-7.3357,-7.3372,-7.3357,-7.332,-7.3372,-7.3398,-7.3372,-7.3331,-7.2589,-7.2095,-7.2184,-7.1069,-7.0375,-7.0375,-6.9595,-6.915,-6.915,-6.8741,-6.8481,-6.8481,-6.806,-6.7503,-6.676,-6.5571,-6.4753,-6.4248,-6.3825,-6.3602,-6.3602,-6.3602,-6.3602,-6.3602,-6.3602,-6.3602,-6.3579,-6.3534,-6.3511,-6.3511,-6.3442,-6.3396,-6.3363,-6.3735,-6.3763,-6.3739,-6.4217,-6.4929,-6.5588,-6.5878,-6.6565,-6.7279,-6.72,-6.6843,-6.6586,-6.7026,-6.6256,-6.5595,-6.6843,-6.6843,-6.6623,-6.7063,-6.6256,-6.5521,-6.5888,-6.5705,-6.5558,-6.5888,-6.6329,-6.6623,-6.6623,-6.6256,-6.6145,-6.6586,-6.6549,-6.6659,-6.71,-6.7467,-6.7687,-6.7687,-6.7687,-6.7687,-6.7687,-6.8128,-6.8385,-6.8385,-6.9889,-7.077,-7.077,-7.1908,-7.2496,-7.2496,-7.2496,-7.2496,-7.2496,-7.2496,-7.2496,-7.2532,-7.2973,-7.3156,-7.3156,-7.3156,-7.3156,-7.3193,-7.356,-7.3707,-7.378,-7.4588,-7.5395,-7.6203,-7.698,-7.7273,-7.7273]},{"header":{"parameterUnit":"m.s-1","parameterCategory":1,"la1":30.6,"la2":28.766,"lo1":-90.7593,"lo2":-88.6598,"dy":0.0162,"dx":0.0183,"nx":116,"ny":114,"refTime":"2024-03-29T06:00:00:Z","depth":0,"parameterNumber":3,"parameterNumberName":"V-component_of_WINDS"},"data":[0.0,0.0,0.0,0.0,0.0,0.0,0.0,0.0,0.0,0.0,0.0,0.0,0.0,0.0,0.0,0.0,0.0,0.0,0.0,0.0,0.0,0.0,0.0,0.0,0.0,0.0,0.0,0.0,0.0,0.0,0.0,0.0,0.0,0.0,0.0,0.0,0.0,0.0,0.0,0.0,0.0,0.0,0.0,0.0,0.0,0.0,0.0,0.0,0.0,0.0,0.0,0.0,0.0,0.0,0.0,0.0,0.0,0.0,0.0,0.0,0.0,0.0,0.0,0.0,0.0,0.0,0.0,0.0,0.0,0.0,0.0,0.0,0.0,0.0,0.0,0.0,0.0,0.0,0.0,0.0,0.0,0.0,0.0,0.0,0.0,0.0,0.0,0.0,0.0,0.0,0.0,0.0,0.0,0.0,0.0,0.0,0.0,0.0,0.0,0.0,0.0,0.0,0.0,0.0,0.0,0.0,0.0,0.0,0.0,0.0,0.0,0.0,0.0,0.0,0.0,0.0,0.0,0.0,0.0,0.0,0.0,0.0,0.0,0.0,0.0,0.0,0.0,0.0,0.0,0.0,0.0,0.0,0.0,0.0,0.0,0.0,0.0,0.0,0.0,0.0,0.0,0.0,0.0,0.0,0.0,0.0,0.0,0.0,0.0,0.0,0.0,0.0,0.0,0.0,0.0,0.0,0.0,0.0,0.0,0.0,0.0,0.0,0.0,0.0,0.0,0.0,0.0,0.0,0.0,0.0,0.0,0.0,0.0,0.0,0.0,0.0,0.0,0.0,0.0,0.0,0.0,0.0,0.0,0.0,0.0,0.0,0.0,0.0,0.0,0.0,0.0,0.0,0.0,0.0,0.0,0.0,0.0,0.0,0.0,0.0,0.0,0.0,0.0,0.0,0.0,0.0,0.0,0.0,0.0,0.0,0.0,0.0,0.0,0.0,0.0,0.0,0.0,0.0,0.0,0.0,0.0,0.0,0.0,0.0,0.0,0.0,0.0,0.0,0.0,0.0,0.0,0.0,0.0,0.0,0.0,0.0,0.0,0.0,0.0,0.0,0.0,0.0,0.0,0.0,0.0,0.0,0.0,0.0,0.0,0.0,0.0,0.0,0.0,0.0,0.0,0.0,0.0,0.0,0.0,0.0,0.0,0.0,0.0,0.0,0.0,0.0,0.0,0.0,0.0,0.0,0.0,0.0,0.0,0.0,0.0,0.0,0.0,0.0,0.0,0.0,0.0,0.0,0.0,0.0,0.0,0.0,0.0,0.0,0.0,0.0,0.0,0.0,0.0,0.0,0.0,0.0,0.0,0.0,0.0,0.0,0.0,0.0,0.0,0.0,0.0,0.0,0.0,0.0,0.0,0.0,0.0,0.0,0.0,0.0,0.0,0.0,0.0,0.0,0.0,0.0,0.0,0.0,0.0,0.0,0.0,0.0,0.0,0.0,0.0,0.0,0.0,0.0,0.0,0.0,0.0,0.0,0.0,0.0,0.0,0.0,0.0,0.0,0.0,0.0,0.0,0.0,0.0,0.0,0.0,0.0,0.0,0.0,0.0,0.0,0.0,0.0,0.0,0.0,0.0,0.0,0.0,0.0,0.0,0.0,0.0,0.0,0.0,0.0,0.0,0.0,0.0,0.0,0.0,0.0,0.0,0.0,0.0,0.0,0.0,0.0,0.0,0.0,0.0,0.0,0.0,0.0,0.0,0.0,0.0,0.0,0.0,0.0,0.0,0.0,0.0,0.0,0.0,0.0,0.0,0.0,0.0,0.0,0.0,0.0,0.0,0.0,0.0,0.0,0.0,0.0,0.0,0.0,0.0,0.0,0.0,0.0,0.0,0.0,0.0,0.0,0.0,0.0,0.0,0.0,0.0,0.0,0.0,0.0,0.0,0.0,0.0,0.0,0.0,0.0,0.0,0.0,0.0,0.0,0.0,0.0,0.0,0.0,0.0,0.0,0.0,0.0,0.0,0.0,0.0,0.0,0.0,0.0,0.0,0.0,0.0,0.0,0.0,0.0,0.0,0.0,0.0,0.0,0.0,0.0,0.0,0.0,0.0,0.0,0.0,0.0,0.0,0.0,0.0,0.0,0.0,0.0,0.0,0.0,0.0,0.0,0.0,0.0,0.0,0.0,0.0,0.0,0.0,0.0,0.0,0.0,0.0,0.0,0.0,0.0,0.0,0.0,0.0,0.0,0.0,0.0,0.0,0.0,0.0,0.0,0.0,0.0,0.0,0.0,0.0,0.0,0.0,0.0,0.0,0.0,0.0,0.0,0.0,0.0,0.0,0.0,0.0,0.0,0.0,0.0,0.0,0.0,0.0,0.0,0.0,0.0,0.0,0.0,0.0,0.0,0.0,0.0,0.0,0.0,0.0,0.0,0.0,0.0,0.0,0.0,0.0,0.0,0.0,0.0,0.0,0.0,0.0,0.0,0.0,0.0,0.0,0.0,0.0,0.0,0.0,0.0,0.0,0.0,0.0,0.0,0.0,0.0,0.0,0.0,0.0,0.0,0.0,0.0,0.0,0.0,0.0,0.0,0.0,0.0,0.0,0.0,0.0,0.0,0.0,0.0,0.0,0.0,0.0,0.0,0.0,0.0,0.0,0.0,0.0,0.0,0.0,0.0,0.0,0.0,0.0,0.0,0.0,0.0,0.0,0.0,0.0,0.0,0.0,0.0,0.0,0.0,0.0,0.0,0.0,0.0,0.0,0.0,0.0,0.0,0.0,0.0,0.0,0.0,0.0,0.0,0.0,0.0,0.0,0.0,0.0,0.0,0.0,0.0,0.0,0.0,0.0,0.0,0.0,0.0,0.0,0.0,0.0,0.0,0.0,0.0,0.0,0.0,0.0,0.0,0.0,0.0,0.0,0.0,0.0,0.0,0.0,0.0,0.0,0.0,0.0,0.0,0.0,0.0,0.0,0.0,0.0,0.0,0.0,0.0,0.0,0.0,0.0,0.0,0.0,0.0,0.0,0.0,0.0,0.0,0.0,0.0,0.0,0.0,0.0,0.0,0.0,0.0,0.0,0.0,0.0,0.0,0.0,0.0,0.0,0.0,0.0,0.0,0.0,0.0,0.0,0.0,0.0,0.0,0.0,0.0,0.0,0.0,0.0,0.0,0.0,0.0,0.0,0.0,0.0,0.0,0.0,0.0,0.0,0.0,0.0,0.0,0.0,0.0,0.0,0.0,0.0,0.0,0.0,0.0,0.0,0.0,0.0,0.0,0.0,0.0,0.0,0.0,0.0,0.0,0.0,0.0,0.0,0.0,0.0,0.0,0.0,0.0,0.0,0.0,0.0,0.0,0.0,0.0,0.0,0.0,0.0,0.0,0.0,0.0,0.0,0.0,0.0,0.0,0.0,0.0,0.0,0.0,0.0,0.0,0.0,0.0,0.0,0.0,0.0,0.0,0.0,0.0,0.0,0.0,0.0,0.0,0.0,0.0,0.0,0.0,0.0,0.0,0.0,0.0,0.0,0.0,0.0,0.0,0.0,0.0,0.0,0.0,0.0,0.0,0.0,0.0,0.0,0.0,0.0,0.0,0.0,0.0,0.0,0.0,0.0,0.0,0.0,0.0,0.0,0.0,0.0,0.0,0.0,0.0,0.0,0.0,0.0,0.0,0.0,0.0,0.0,0.0,0.0,0.0,0.0,0.0,0.0,0.0,0.0,0.0,0.0,0.0,0.0,0.0,0.0,0.0,0.0,0.0,0.0,0.0,0.0,0.0,0.0,0.0,0.0,0.0,0.0,0.0,0.0,0.0,0.0,0.0,0.0,0.0,0.0,0.0,0.0,0.0,0.0,0.0,0.0,0.0,0.0,0.0,0.0,0.0,0.0,0.0,0.0,0.0,0.0,0.0,0.0,0.0,0.0,0.0,0.0,0.0,0.0,0.0,0.0,0.0,0.0,0.0,0.0,0.0,0.0,0.0,0.0,0.0,0.0,0.0,0.0,0.0,0.0,0.0,0.0,0.0,0.0,0.0,0.0,0.0,0.0,0.0,0.0,0.0,0.0,0.0,0.0,0.0,0.0,0.0,0.0,0.0,0.0,0.0,0.0,0.0,0.0,0.0,0.0,0.0,0.0,0.0,0.0,0.0,0.0,0.0,0.0,0.0,0.0,0.0,0.0,0.0,0.0,0.0,0.0,0.0,0.0,0.0,0.0,0.0,0.0,0.0,0.0,0.0,0.0,0.0,0.0,0.0,0.0,0.0,0.0,0.0,0.0,0.0,0.0,0.0,0.0,0.0,0.0,0.0,0.0,0.0,0.0,0.0,0.0,0.0,0.0,0.0,0.0,0.0,0.0,0.0,0.0,0.0,0.0,0.0,0.0,0.0,0.0,0.0,0.0,0.0,0.0,0.0,0.0,0.0,0.0,0.0,0.0,0.0,0.0,0.0,0.0,0.0,0.0,0.0,0.0,0.0,0.0,0.0,0.0,0.0,0.0,0.0,0.0,0.0,0.0,0.0,0.0,0.0,0.0,0.0,0.0,0.0,0.0,0.0,0.0,0.0,0.0,0.0,0.0,0.0,0.0,0.0,0.0,0.0,0.0,0.0,0.0,0.0,0.0,0.0,0.0,0.0,0.0,0.0,0.0,0.0,0.0,0.0,0.0,0.0,0.0,0.0,0.0,0.0,0.0,0.0,0.0,0.0,0.0,0.0,0.0,0.0,0.0,0.0,0.0,0.0,0.0,0.0,0.0,0.0,0.0,0.0,0.0,0.0,0.0,0.0,0.0,0.0,0.0,0.0,0.0,0.0,0.0,0.0,0.0,0.0,0.0,0.0,0.0,0.0,0.0,0.0,0.0,0.0,0.0,0.0,0.0,0.0,0.0,0.0,0.0,0.0,0.0,0.0,0.0,0.0,0.0,0.0,0.0,0.0,0.0,0.0,0.0,0.0,0.0,0.0,0.0,0.0,0.0,0.0,0.0,0.0,0.0,0.0,0.0,0.0,0.0,0.0,0.0,0.0,0.0,0.0,0.0,0.0,0.0,0.0,0.0,0.0,0.0,0.0,0.0,0.0,0.0,0.0,0.0,0.0,0.0,0.0,0.0,0.0,0.0,0.0,0.0,0.0,0.0,0.0,0.0,0.0,0.0,0.0,0.0,0.0,0.0,0.0,0.0,0.0,0.0,0.0,0.0,0.0,0.0,0.0,0.0,0.0,0.0,0.0,0.0,0.0,0.0,0.0,0.0,0.0,0.0,0.0,0.0,0.0,0.0,0.0,0.0,0.0,0.0,0.0,0.0,0.0,0.0,0.0,0.0,0.0,0.0,0.0,0.0,0.0,0.0,0.0,0.0,0.0,0.0,0.0,0.0,0.0,0.0,0.0,0.0,0.0,0.0,0.0,0.0,0.0,0.0,0.0,0.0,0.0,0.0,0.0,0.0,0.0,0.0,0.0,0.0,0.0,0.0,0.0,0.0,0.0,0.0,0.0,0.0,0.0,0.0,0.0,0.0,0.0,0.0,0.0,0.0,0.0,0.0,0.0,0.0,0.0,0.0,0.0,0.0,0.0,0.0,0.0,0.0,0.0,0.0,0.0,0.0,0.0,0.0,0.0,0.0,0.0,0.0,0.0,0.0,0.0,0.0,0.0,0.0,0.0,0.0,0.0,0.0,0.0,0.0,0.0,0.0,0.0,0.0,0.0,0.0,0.0,0.0,0.0,0.0,0.0,0.0,0.0,0.0,0.0,0.0,0.0,0.0,0.0,0.0,0.0,0.0,0.0,0.0,0.0,0.0,0.0,0.0,0.0,0.0,0.0,0.0,0.0,0.0,0.0,0.0,0.0,0.0,0.0,0.0,0.0,0.0,0.0,0.0,0.0,0.0,0.0,0.0,0.0,0.0,0.0,0.0,0.0,0.0,0.0,0.0,0.0,0.0,0.0,0.0,0.0,0.0,0.0,0.0,0.0,0.0,0.0,0.0,0.0,0.0,0.0,0.0,0.0,0.0,0.0,0.0,0.0,0.0,0.0,0.0,0.0,0.0,0.0,0.0,0.0,0.0,0.0,0.0,0.0,0.0,0.0,0.0,0.0,0.0,0.0,0.0,0.0,0.0,0.0,0.0,0.0,0.0,0.0,1.0677,0.0,0.0,0.0,0.0,0.0,0.0,0.0,0.0,0.0,0.0,0.0,0.0,0.0,0.0,0.0,0.0,0.0,0.0,0.0,0.0,0.0,0.0,0.0,0.0,1.0717,1.0717,1.0717,1.0717,1.0717,1.0717,0.0,0.0,0.0,0.0,0.0,1.0602,1.0527,1.0493,1.0493,1.0493,1.0527,1.0602,1.0527,1.0493,1.0493,0.0,0.0,0.0,0.0,0.0,0.0,0.0,0.0,0.0,0.0,0.0,0.0,0.0,0.0,0.0,0.0,0.0,0.0,0.0,0.0,0.0,0.0,0.0,0.0,0.0,0.0,0.0,0.0,0.0,0.0,0.0,0.0,0.0,0.0,0.0,0.0,0.0,0.0,0.0,0.0,0.0,0.0,0.0,0.0,0.0,0.0,0.0,0.0,0.0,0.0,0.0,0.0,0.0,0.0,0.0,0.0,0.0,0.0,0.0,0.0,0.0,0.0,0.0,0.0,0.0,0.0,0.0,0.0,0.0,0.0,0.0,1.0953,0.0,0.0,0.0,0.0,0.0,0.0,0.0,0.0,0.0,0.0,0.0,0.0,0.0,0.0,0.0,0.0,0.0,0.0,0.0,0.0,0.0,1.0717,1.0717,1.0717,1.0717,1.0717,1.0717,1.0717,1.0717,1.0717,0.0,0.0,1.0717,1.0717,1.0717,1.0717,1.0717,1.0717,1.0744,1.0772,1.0799,1.0799,1.0812,1.0833,1.0758,0.0,0.0,0.0,0.0,0.0,0.0,0.0,0.0,0.0,0.0,0.0,0.0,0.0,0.0,0.0,0.0,0.0,0.0,0.0,0.0,0.0,0.0,0.0,0.0,0.0,0.0,0.0,0.0,0.0,0.0,0.0,0.0,0.0,0.0,0.0,0.0,0.0,0.0,0.0,0.0,0.0,0.0,0.0,0.0,0.0,0.0,0.0,0.0,0.0,0.0,0.0,0.0,0.0,0.0,0.0,0.0,0.0,0.0,0.0,0.0,0.0,0.0,0.0,1.1613,1.1708,1.185,1.185,1.1986,1.2265,1.166,1.1248,1.0888,0.0,0.0,0.0,0.0,0.0,0.0,0.0,0.0,0.0,0.0,0.0,0.0,0.0,0.0,0.0,0.0,0.0,0.0,0.0,0.0,1.0717,1.0717,1.0717,1.0717,1.0717,1.0717,1.0717,1.0717,1.0717,1.0717,1.0717,1.0717,1.0717,1.0717,1.0717,1.0717,1.0717,1.0786,1.0982,1.1104,1.1104,1.1172,1.1287,1.0894,1.0717,1.0717,0.0,0.0,0.0,0.0,0.0,0.0,0.0,0.0,0.0,0.0,0.0,0.0,0.0,0.0,0.0,0.0,0.0,0.0,0.0,0.0,0.0,0.0,0.0,0.0,0.0,0.0,0.0,0.0,0.0,0.0,0.0,0.0,0.0,0.0,0.0,0.0,0.0,0.0,0.0,0.0,0.0,1.0717,1.0717,0.0,0.0,0.0,0.0,0.0,0.0,0.0,0.0,0.0,0.0,0.0,0.0,0.0,0.0,1.1619,1.1965,1.221,1.2359,1.2488,1.2637,1.2786,1.2786,1.2807,1.2834,1.2617,0.0,1.1851,1.1575,0.0,0.0,0.0,0.0,0.0,0.0,0.0,0.0,0.0,0.0,0.0,0.0,0.0,0.0,0.0,0.0,0.0,0.0,0.0,0.0,0.0,1.0799,1.0779,1.0779,1.1002,1.1029,1.0793,1.0921,1.0894,1.0724,1.0717,1.0717,1.0717,1.0717,1.0799,1.0968,1.1206,1.1396,1.1538,1.1626,1.1701,1.1828,1.2455,1.1978,1.0846,1.0758,0.0,0.0,0.0,0.0,0.0,0.0,0.0,0.0,0.0,0.0,0.0,0.0,0.0,0.0,0.0,0.0,0.0,0.0,0.0,0.0,0.0,0.0,0.0,0.0,0.0,0.0,0.0,0.0,0.0,0.0,0.0,0.0,0.0,0.0,0.0,0.0,0.0,0.0,0.0,1.0677,1.0717,1.0717,1.0717,1.0717,0.0,0.0,0.0,0.0,0.0,0.0,0.0,0.0,0.0,1.1732,1.1959,1.2196,1.2372,1.2569,1.2739,1.2881,1.2949,1.3057,1.3207,1.3207,1.3254,1.3329,1.3173,1.2949,1.2637,1.1999,1.1613,1.1389,0.0,0.0,0.0,0.0,0.0,1.1104,0.0,0.0,0.0,0.0,0.0,0.0,0.0,0.0,0.0,0.0,0.0,0.0,1.0772,1.0914,1.1002,1.1002,1.1206,1.1226,1.09,1.1009,1.0948,1.0731,1.0717,1.0717,1.0717,1.0792,1.0962,1.1219,1.1565,1.1823,1.2006,1.2271,1.2422,1.245,1.3652,1.3205,1.1646,1.1918,1.2332,1.2947,0.0,0.0,0.0,0.0,0.0,0.0,0.0,0.0,0.0,0.0,0.0,0.0,0.0,0.0,0.0,0.0,0.0,0.0,0.0,0.0,0.0,0.0,0.0,0.0,0.0,0.0,0.0,0.0,0.0,0.0,0.0,0.0,0.0,0.0,0.0,0.0,0.0,1.0704,1.0765,1.0724,1.0758,1.0765,0.0,0.0,0.0,0.0,0.0,0.0,1.1096,1.1565,1.1925,1.2223,1.2522,1.2786,1.301,1.3091,1.3207,1.3342,1.3383,1.3485,1.3627,1.3627,1.3675,1.3736,1.358,1.3403,1.3173,1.2386,1.1932,1.1694,1.128,1.1029,1.1077,1.1226,1.128,1.1321,0.0,0.0,0.0,0.0,0.0,0.0,0.0,0.0,0.0,0.0,0.0,1.0778,1.0853,1.1063,1.1151,1.1151,1.1165,1.1111,1.0894,1.0819,1.0738,1.0717,1.0717,1.0717,1.0717,1.0995,1.1219,1.1382,1.1823,1.2189,1.2467,1.2944,1.3184,1.3319,1.3541,1.3703,1.3815,1.4973,1.4567,1.3252,1.4331,0.0,0.0,0.0,0.0,0.0,0.0,0.0,0.0,0.0,0.0,0.0,0.0,0.0,0.0,0.0,0.0,0.0,0.0,0.0,0.0,0.0,0.0,0.0,0.0,0.0,0.0,0.0,0.0,0.0,0.0,0.0,0.0,0.0,0.0,0.0,0.0,0.0,0.0,1.0738,1.0779,0.0,0.0,0.0,0.0,1.086,1.107,1.1341,1.1762,1.2088,1.2393,1.2684,1.2983,1.3146,1.3159,1.3451,1.3668,1.381,1.396,1.4109,1.4251,1.4251,1.4183,1.4041,1.3885,1.3654,1.3356,1.2881,1.2427,1.2006,1.1708,1.1497,1.1389,1.1538,1.1599,1.164,0.0,0.0,0.0,0.0,0.0,1.0717,1.0717,1.0717,1.0717,1.0717,1.0717,1.0812,1.1056,1.1307,1.1531,1.1728,1.1814,1.164,1.1396,1.1145,1.0921,1.0731,1.0717,1.0765,1.0799,1.1158,1.1477,1.1823,1.2271,1.28,1.3335,1.37,1.4073,1.4445,1.5498,1.5847,1.571,1.5248,1.5124,1.5375,1.6226,1.6786,0.0,0.0,0.0,0.0,0.0,0.0,0.0,0.0,0.0,0.0,0.0,0.0,0.0,0.0,0.0,0.0,0.0,0.0,0.0,0.0,0.0,0.0,0.0,0.0,0.0,0.0,0.0,0.0,0.0,0.0,0.0,0.0,0.0,0.0,0.0,0.0,0.0,1.1145,1.1287,0.0,1.143,1.1436,1.1497,1.1653,1.1891,1.2135,1.2393,1.2691,1.2996,1.3302,1.3498,1.3695,1.3899,1.4007,1.4089,1.4136,1.419,1.4245,1.4299,1.4299,1.4217,1.4068,1.4014,1.3824,1.3526,1.3268,1.284,1.2318,1.202,1.1809,1.1681,1.1735,1.1755,1.1782,0.0,0.0,0.0,0.0,1.1007,1.0643,1.0643,1.0643,1.0643,1.0643,1.069,1.0873,1.1274,1.1538,1.1809,1.2115,1.2047,1.1857,1.1558,1.1212,1.0928,1.0731,1.0717,1.0812,1.1016,1.1362,1.1762,1.221,1.2814,1.3332,1.391,1.4448,1.4831,1.5302,1.6419,1.6755,1.6508,1.6496,1.6638,1.6894,1.7586,1.8469,1.9354,0.0,0.0,0.0,0.0,0.0,0.0,0.0,0.0,0.0,0.0,0.0,0.0,0.0,0.0,0.0,0.0,0.0,0.0,0.0,0.0,0.0,0.0,0.0,0.0,0.0,0.0,0.0,0.0,0.0,0.0,0.0,0.0,0.0,0.0,0.0,1.1389,1.1592,1.1796,1.1952,1.2047,1.2054,1.2121,1.2277,1.2515,1.2745,1.2942,1.3234,1.3512,1.377,1.3919,1.4095,1.4299,1.4299,1.4299,1.4299,1.4299,1.4299,1.4299,1.4299,1.4217,1.4068,1.4014,1.3858,1.3614,1.3464,1.3132,1.2691,1.2345,1.2149,1.2054,1.2006,1.1986,1.1993,0.0,0.0,0.0,1.3062,1.1497,1.0487,1.0487,1.0487,1.0493,1.0493,1.0629,1.0955,1.1558,1.1755,1.1965,1.2277,1.202,1.1714,1.1416,1.0975,1.0724,1.0724,1.0731,1.0873,1.1179,1.1619,1.2067,1.2515,1.3363,1.3917,1.4156,1.4991,1.5498,1.5745,1.6157,1.6227,1.6213,1.9075,1.926,1.7745,1.8435,1.8787,1.9041,0.0,0.0,0.0,0.0,0.0,0.0,0.0,0.0,0.0,0.0,0.0,0.0,0.0,0.0,0.0,0.0,0.0,0.0,0.0,0.0,0.0,0.0,0.0,0.0,0.0,0.0,0.0,0.0,0.0,0.0,0.0,0.0,0.0,1.0894,1.1355,1.1755,1.2054,1.2352,1.2528,1.2535,1.2535,1.2603,1.2752,1.2908,1.3125,1.341,1.3702,1.3926,1.4075,1.4224,1.4299,1.4299,1.4299,1.4299,1.4299,1.4299,1.4299,1.4299,1.4299,1.4211,1.4055,1.3905,1.3756,1.3607,1.3458,1.3308,1.3125,1.2684,1.2515,1.2488,1.2345,1.2291,1.2271,0.0,0.0,1.3032,1.245,1.1342,1.046,1.0351,1.0426,1.0493,1.0493,1.0724,1.1042,1.1708,1.2006,1.2284,1.2583,1.2237,1.187,1.1579,1.1029,1.0772,1.0813,1.0982,1.1233,1.164,1.1986,1.2532,1.3296,1.3743,1.4246,1.4656,1.5223,1.5622,1.6012,1.7528,1.7588,1.6763,1.9753,2.0569,1.9849,2.091,2.1154,2.075,0.0,0.0,0.0,0.0,0.0,0.0,0.0,0.0,0.0,0.0,0.0,0.0,0.0,0.0,0.0,0.0,0.0,0.0,0.0,0.0,0.0,0.0,0.0,0.0,0.0,0.0,0.0,0.0,0.0,0.0,0.0,0.0,1.1267,1.1267,1.1843,1.2372,1.2678,1.2976,1.32,1.3308,1.3322,1.3376,1.3526,1.3682,1.3851,1.4041,1.4129,1.419,1.4238,1.4278,1.4299,1.4299,1.4299,1.4299,1.4299,1.4299,1.4299,1.4299,1.4299,1.4156,1.3899,1.3858,1.3695,1.3451,1.3302,1.3214,1.3152,1.2922,1.2766,1.2651,1.2494,1.2379,1.2271,0.0,1.5783,1.3979,1.3241,1.1988,1.0904,1.0258,1.031,1.0405,1.0405,1.0724,1.1103,1.1762,1.1938,1.2155,1.2515,1.2074,1.1681,1.1443,1.1043,1.088,1.1029,1.124,1.1592,1.2101,1.2352,1.2961,1.3881,1.4066,1.4488,1.4986,1.5198,1.541,1.5884,1.6918,1.7021,1.6741,2.0002,2.1161,2.0989,2.303,2.3377,2.2516,2.1641,2.1275,2.1145,2.0573,2.0391,2.0326,1.9714,0.0,0.0,0.0,0.0,0.0,0.0,0.0,0.0,0.0,0.0,0.0,0.0,0.0,0.0,0.0,0.0,0.0,0.0,0.0,0.0,0.0,0.0,0.0,0.0,1.1491,1.1837,1.202,1.242,1.2854,1.3281,1.3539,1.3743,1.3899,1.3912,1.3946,1.4027,1.4116,1.4204,1.4292,1.4299,1.4299,1.4299,1.4299,1.4299,1.4299,1.4299,1.4299,1.4299,1.4299,1.4265,1.4204,1.4204,1.4068,0.0,1.3777,1.3654,1.3478,1.3261,1.3173,0.0,0.0,0.0,0.0,0.0,1.2318,1.2176,0.0,1.7418,1.6092,1.4533,1.2969,1.151,1.0211,1.0154,1.0263,1.0276,1.0656,1.1076,1.1714,1.1687,1.1789,1.2203,1.1721,1.1321,1.1151,1.105,1.1077,1.1253,1.1572,1.2013,1.2589,1.2752,1.3341,1.4315,1.4337,1.4578,1.5135,1.5016,1.502,1.5357,1.541,1.5863,1.6695,2.0246,2.165,2.1702,2.4784,2.5304,2.4096,2.3047,2.2736,2.2797,2.1906,2.1424,2.1089,2.0338,0.0,0.0,0.0,0.0,0.0,0.0,0.0,0.0,0.0,0.0,0.0,0.0,0.0,0.0,0.0,0.0,0.0,0.0,0.0,0.0,0.0,0.0,0.0,0.0,1.1959,1.2508,1.299,1.3078,1.3281,1.3804,1.4,1.415,1.4285,1.4299,1.4299,1.4299,1.4299,1.4299,1.4299,0.0,0.0,0.0,0.0,1.4299,1.4299,1.4299,1.4299,1.4299,1.4299,1.4217,1.4075,1.4089,1.3994,1.381,1.3702,1.3634,1.358,1.3275,1.3125,1.3071,1.2827,1.2718,1.2671,1.2393,1.2196,0.0,0.0,1.7104,1.551,1.4058,1.2795,1.1533,1.0066,0.9936,1.0141,1.0263,1.0561,1.0948,1.1423,1.1558,1.1701,1.1904,1.1592,1.1274,1.1009,1.1185,1.1477,1.1944,1.2291,1.2739,1.3214,1.3376,1.3734,1.4486,1.4614,1.4715,1.4622,1.4844,1.5002,1.5032,1.6586,1.7774,1.8853,2.2267,2.3874,2.4353,2.5801,2.5598,2.4429,2.4029,2.3763,2.3492,2.2771,2.2475,2.2306,2.1165,2.0753,2.056,2.0118,1.8407,0.0,0.0,0.0,0.0,0.0,0.0,0.0,0.0,0.0,0.0,0.0,0.0,0.0,0.0,0.0,0.0,0.0,0.0,0.0,1.1823,1.2332,1.2888,1.3573,1.3777,1.3899,1.4014,1.4163,1.4265,1.4299,1.4299,1.4299,1.4299,1.4299,1.4299,1.4299,1.4299,0.0,1.4299,1.4299,1.4299,1.4299,1.4299,1.4299,1.4299,0.0,0.0,1.4075,1.4197,1.4041,1.3675,1.3763,1.3661,1.3424,1.3125,1.2854,1.2637,1.2705,1.2657,1.2522,1.2352,1.2196,1.204,0.0,1.672,1.529,1.3923,1.2664,1.1362,1.0011,0.9889,1.0044,1.0263,1.0534,1.086,1.124,1.128,1.1314,1.1312,1.1111,1.0941,1.088,1.1362,1.1809,1.2264,1.2786,1.3241,1.3614,1.3695,1.4016,1.4764,1.451,1.4545,1.4885,1.4615,1.4569,1.4734,1.5775,1.6745,1.7701,2.1464,2.3235,2.3752,2.5985,2.6386,2.5678,2.5251,2.4354,2.34,2.3935,2.2797,2.0983,2.0892,2.0102,1.9025,1.8657,1.726,1.5934,0.0,0.0,0.0,0.0,0.0,0.0,0.0,0.0,0.0,0.0,0.0,0.0,0.0,0.0,1.0744,1.0812,0.0,1.1728,1.24,1.282,1.3275,1.3871,1.4089,1.4183,1.4183,1.4251,1.4299,1.4299,1.4299,1.4299,1.4299,1.4299,1.4299,1.4299,1.4299,1.4299,1.4299,1.4299,1.4299,1.4299,1.4299,1.4299,1.4299,1.4299,1.4217,1.4075,1.4068,1.3905,1.3627,1.362,1.3539,1.3383,1.3159,1.2888,1.2623,1.2698,1.2589,1.2379,1.223,1.2081,1.1925,0.0,1.6501,1.5213,1.3904,1.2826,1.1571,1.0004,0.9862,1.0059,1.0215,1.0466,1.0724,1.1036,1.0914,1.0779,1.0819,1.0643,1.0663,1.0968,1.1545,1.2101,1.261,1.318,1.3627,1.3926,1.3933,1.4235,1.4864,1.4393,1.4455,1.5047,1.4448,1.4272,1.4462,1.4664,1.5323,1.6481,1.9855,2.1828,2.3083,2.5778,2.6835,2.6854,2.6004,2.479,2.3686,2.4993,2.2917,1.9713,2.0505,1.9145,1.7182,1.7073,1.6285,1.5442,1.5482,1.4874,0.0,0.0,0.0,0.0,0.0,0.0,0.0,0.0,0.0,1.0412,1.0588,1.0867,1.1124,1.1267,1.1782,1.2372,1.2915,1.3275,1.3634,1.4055,1.4224,1.4299,1.4299,1.4299,1.4299,1.4299,1.4299,1.4299,1.4299,1.4299,1.4299,1.4299,1.4299,1.4299,1.4299,1.4299,1.4299,1.4299,1.4299,1.4299,1.4299,1.4299,1.4204,1.4021,1.3933,1.3777,1.358,1.3451,1.3383,1.3349,1.322,1.2996,1.2732,1.2732,1.2569,1.2311,1.2162,1.2006,1.1857,0.0,1.6615,1.5213,1.3904,1.3605,1.2646,1.0179,0.9836,0.9903,0.999,1.0222,1.0344,1.0378,1.048,1.0493,1.0365,1.0561,1.0819,1.1118,1.1701,1.2352,1.3064,1.3546,1.3933,1.4245,1.4251,1.4326,1.4578,1.4468,1.4482,1.4599,1.4475,1.4414,1.4326,1.438,1.5763,1.8209,1.8645,2.1221,2.5058,2.5215,2.6052,2.7012,2.5294,2.5012,2.5593,2.5242,2.3417,2.111,2.0602,1.8822,1.6859,1.7113,1.5833,1.4245,1.4173,1.2832,1.1292,1.0489,1.017,1.0073,0.9998,0.9977,1.0058,0.0,0.0,1.0751,1.1029,1.1328,1.1586,1.1728,1.225,1.2766,1.3091,1.3512,1.3905,1.4231,1.4292,1.4299,1.4299,1.4299,1.4299,1.4299,1.4299,1.4299,1.4299,1.4299,1.4299,1.4299,1.4299,1.4299,1.4299,1.4299,1.4299,1.4299,1.4299,1.4299,1.4299,1.4299,1.415,1.3871,1.3994,1.3817,1.3424,1.341,1.3322,1.32,1.318,1.2996,1.2732,1.2732,1.2623,1.2461,1.2318,1.2169,1.2013,0.0,0.0,1.6053,1.4023,1.3066,1.1924,1.0065,0.9822,0.9876,0.997,1.0044,1.0181,1.027,1.0256,1.0209,1.0148,1.0344,1.0704,1.126,1.1938,1.2651,1.3403,1.3865,1.417,1.4299,1.4299,1.4326,1.4387,1.4387,1.4428,1.4509,1.4428,1.4401,1.4421,1.4599,1.5521,1.692,1.8042,1.9768,2.1825,2.2352,2.2961,2.3458,2.2259,2.1966,2.2259,2.3117,2.0523,0.0,1.9381,1.7577,1.4521,1.5458,1.4295,1.2612,1.2435,1.1505,1.0515,1.0169,1.0005,0.9909,0.997,1.0179,1.0429,1.0711,1.0941,1.1192,1.1491,1.1796,1.2081,1.2311,1.2773,1.322,0.0,1.3797,1.4055,1.4272,1.4224,1.4102,1.3933,1.3912,1.4014,1.4278,1.4299,1.4299,1.4299,1.4299,1.4299,1.4299,1.4299,1.4299,1.4299,1.4299,1.4299,1.4299,1.4299,1.4299,1.4299,1.4299,1.4183,1.3973,1.3946,1.3743,1.3403,1.3403,1.3315,1.3173,1.3173,1.2996,1.2732,1.2732,1.2637,1.2481,1.2345,1.2196,1.204,0.0,0.0,0.0,1.4143,1.2886,1.1692,1.0058,0.9822,0.9863,0.9909,0.9963,1.0031,1.0202,1.008,0.9923,0.9923,1.0127,1.05,1.1165,1.1864,1.2596,1.3349,1.3851,1.417,1.4299,1.4299,1.434,1.4421,1.438,1.4434,1.457,1.4428,1.4414,1.4502,1.4715,1.5087,1.5616,1.7088,1.8305,1.9255,2.0143,2.0731,2.0881,1.9792,1.8966,1.8767,2.0848,1.8428,1.4742,1.8172,1.644,1.2922,1.4,1.3034,1.1508,1.1708,1.1292,1.0692,1.0204,1.008,1.0078,1.0199,1.0575,1.09,1.1069,1.1389,1.166,1.1952,1.2223,1.2488,1.2745,1.3159,1.3532,1.3749,1.398,1.4156,1.4231,1.4068,1.3851,1.3593,1.3458,1.3539,1.3946,1.4068,1.415,1.4231,1.4238,1.4258,1.4299,1.4299,1.4299,1.4299,1.4299,1.4299,1.4299,1.4299,1.4299,1.4299,1.4299,1.4197,1.4,1.381,1.36,1.3403,1.3403,1.3336,1.3234,1.3234,1.3057,1.2793,1.2793,1.2671,1.2488,1.2386,1.223,1.204,0.0,0.0,0.0,0.0,1.3665,1.2766,1.0179,0.9822,0.9822,0.9829,0.9896,0.999,0.9997,0.9856,0.9829,0.9829,0.9909,1.0186,1.0711,1.1307,1.1979,1.2725,1.3329,1.3851,1.4292,1.4299,1.4441,1.4726,1.4577,1.4584,1.4726,1.4577,1.4509,1.4502,1.436,1.4557,1.508,1.5528,1.7096,1.9255,1.9484,2.0236,2.0892,1.8645,1.7088,1.642,1.9039,1.836,1.6435,1.7438,1.5751,1.3221,1.3459,1.2363,1.1264,1.254,1.2477,1.1649,1.0356,1.0161,1.0378,1.0812,1.1036,1.1267,1.1701,1.1925,1.2128,1.242,1.261,1.2766,1.2929,1.3322,1.3627,1.3634,1.4007,1.4245,1.4095,1.3824,1.3587,1.3424,1.3024,1.2874,0.0,1.3478,1.377,1.4055,1.4082,1.4143,1.4292,1.4299,1.4299,1.4299,1.4299,1.4299,1.4299,1.4299,1.4299,1.4299,1.4299,1.4143,1.3838,1.3546,1.341,1.3403,1.3403,1.3397,1.3397,1.3397,1.322,1.2956,1.2956,1.2766,1.2501,1.2494,1.2311,1.204,0.0,0.0,0.0,0.0,0.0,1.1804,1.0058,0.9822,0.9822,0.9822,0.9869,0.0,0.0,0.0,0.0,0.0,0.9903,1.0179,1.069,1.1287,1.1816,1.2271,1.3051,1.3498,1.3553,1.3844,1.4041,1.4143,1.4197,1.4197,1.415,1.4299,1.4319,1.4224,1.4278,1.4564,1.4985,1.471,1.5088,1.5869,1.6759,1.6483,1.5685,1.5595,1.4648,1.3521,0.0,1.461,1.4413,1.6282,1.4953,1.2734,1.3887,1.2504,1.0605,1.0783,1.0783,1.0626,1.0301,1.046,1.0785,1.1029,1.1348,1.1674,1.1925,1.2101,1.2271,1.2461,1.2467,1.2454,1.2508,1.2718,1.2949,1.3152,1.3566,1.3838,1.3783,1.3777,1.3492,1.2752,1.2705,0.0,0.0,0.0,0.0,1.3885,1.3919,1.4027,1.4285,1.4299,1.4299,1.4299,1.4299,1.4299,1.4299,1.4299,1.4299,1.4299,1.4095,1.3939,1.3831,1.3532,1.3342,1.3254,1.3356,1.3288,1.3119,1.3214,1.3078,1.2807,1.2807,1.2684,1.2501,1.2501,1.2379,1.2189,0.0,0.0,0.0,0.0,0.0,0.0,0.0,0.0,0.0,0.0,0.0,0.0,0.0,0.0,0.0,0.0,0.0,1.0051,1.046,1.0941,1.1348,1.1653,1.2372,1.2766,1.2773,1.3057,1.3234,1.3288,1.339,1.3383,1.3295,1.3539,1.3634,1.3593,1.3695,1.3933,1.423,1.3992,1.3846,1.387,1.4686,1.437,1.3563,1.4043,1.3782,0.0,1.2583,1.283,1.3602,1.5017,1.4013,1.2354,1.3297,1.2277,1.0679,1.0066,1.0314,1.0748,1.0575,1.0806,1.1165,1.1423,1.1742,1.2047,1.225,1.2332,1.2393,1.2481,1.2298,1.2108,1.206,1.2169,1.2325,1.2522,1.2935,1.3268,1.3376,1.3281,1.3017,1.2508,1.2379,1.2244,0.0,0.0,0.0,1.3553,1.3702,1.3899,1.4204,1.4272,1.4299,1.4299,1.4299,1.4299,1.4299,1.4299,1.4272,1.4217,1.396,1.3732,1.3756,1.3512,1.3349,1.3261,1.3356,1.3295,1.3125,1.3214,1.3078,1.282,1.2868,1.2732,1.2508,1.2562,1.2461,1.2277,0.0,0.0,0.0,0.0,0.0,0.0,0.0,0.0,0.0,0.0,0.0,0.0,0.0,0.0,0.0,0.0,0.0,0.0,0.9963,1.0317,1.0609,1.082,1.1348,1.1721,1.1999,1.2026,1.2108,1.2244,1.225,1.225,1.2237,1.2386,1.2528,1.2664,1.2671,1.2759,1.2974,1.3211,1.3297,1.3318,1.3372,1.3738,1.425,1.39,1.4106,1.4416,1.2716,1.2826,1.3844,1.3665,1.2955,1.213,1.1752,1.1639,1.1376,1.0321,1.1047,1.1923,1.1114,1.1192,1.1531,1.1965,1.2182,1.2359,1.263,1.2576,1.2461,1.244,1.2088,1.1742,0.0,0.0,1.1789,1.1823,1.221,1.261,1.2915,1.2488,1.2284,0.0,0.0,0.0,0.0,0.0,0.0,1.3119,0.0,1.3749,1.4055,1.4217,1.4299,1.4299,1.4299,1.4299,1.4299,1.4292,1.4217,1.4068,1.3905,1.3756,1.3627,1.3471,1.3397,1.339,1.3397,1.3397,1.339,1.3397,1.3227,1.2976,1.3112,1.2895,1.2522,1.2664,1.2542,1.2298,0.0,0.0,0.0,0.0,0.0,0.0,0.0,0.0,0.0,0.0,0.0,0.0,0.0,0.0,0.0,0.0,0.0,0.0,0.9876,1.0168,1.0317,1.022,1.0921,1.1267,1.1233,1.1558,1.1694,1.1619,1.1735,1.1674,1.1457,1.1721,1.1803,1.1735,1.185,1.1986,1.2108,1.2039,1.1914,1.183,1.2974,1.2685,1.1652,1.2578,1.2291,1.1384,1.0679,1.0604,1.1027,1.1924,1.2137,1.1861,1.064,1.0325,1.039,1.0238,1.0656,1.1094,1.1227,1.1579,1.1945,1.2176,1.2264,1.2277,1.2244,1.2115,1.1904,1.1572,1.1328,1.1055,0.0,0.0,0.0,1.1742,1.221,0.0,1.2915,1.3119,0.0,1.261,0.0,1.2535,1.2311,1.2454,0.0,0.0,1.3349,1.3641,1.4048,1.4217,1.4299,1.4299,1.4299,1.4299,1.4299,1.419,1.4109,1.4068,1.381,1.3661,1.3627,1.3471,1.3342,1.3241,1.3349,1.3336,1.3241,1.3356,1.3227,1.2963,1.3003,1.2807,1.2508,1.2549,1.2515,1.2447,0.0,0.0,0.0,0.0,0.0,0.0,0.0,0.0,0.0,0.0,0.0,0.0,0.0,0.0,0.0,0.0,0.0,0.0,0.0,0.9985,1.0039,0.9889,1.0351,1.0534,1.0388,1.0704,1.0819,1.0799,1.0819,1.0778,1.0677,1.0778,1.0853,1.0907,1.0995,1.1145,1.1335,1.1185,1.1023,0.0,0.0,1.1614,1.1209,1.1922,1.2015,1.1683,1.0906,1.024,0.989,1.0691,0.0,1.0977,1.035,1.0175,1.0297,1.0582,1.088,1.1212,1.1667,1.2067,1.2379,1.2461,1.2386,1.223,1.2013,1.1742,1.143,1.105,1.0799,0.0,1.0541,1.0527,0.0,0.0,0.0,0.0,1.2603,1.2881,1.2983,0.0,1.2834,0.0,1.2691,1.2773,1.2983,0.0,1.3451,1.3668,1.4048,1.4217,1.4299,1.4299,1.4299,1.4299,1.4299,1.415,1.4075,1.4068,1.3831,1.3688,1.3627,1.3539,1.3417,1.3275,0.0,1.3349,1.3281,1.3363,1.3261,1.3057,1.3125,1.2969,1.2712,1.2773,1.2712,1.261,0.0,0.0,0.0,0.0,0.0,0.0,0.0,0.0,0.0,0.0,0.9836,0.9822,0.0,0.0,0.0,0.0,0.0,0.0,0.0,0.0,0.9822,0.9822,0.9822,0.9822,0.9822,0.9822,0.9876,0.993,0.9856,0.9849,0.9896,0.9822,0.9903,1.0161,1.0161,1.031,1.0561,1.0432,1.0385,1.0378,1.0058,1.0692,1.1717,0.0,1.2165,1.3006,1.1872,1.0725,0.9849,0.9957,1.0031,1.0092,1.0432,1.0548,1.067,1.1118,1.1457,1.1775,1.223,1.2549,1.2752,1.2732,1.2494,1.2176,1.185,1.1423,1.1016,1.0697,0.0,1.0256,1.0276,1.0283,1.0399,1.0751,0.0,1.1633,1.2237,1.2352,1.2576,1.3112,1.2983,1.2942,1.318,1.3125,1.3241,1.3627,1.3675,1.3804,1.4055,1.4217,1.4299,1.4299,1.4299,1.4299,1.4299,1.415,1.4061,1.4041,1.3905,1.377,1.3627,1.3648,1.3573,1.3431,0.0,0.0,1.3403,1.3403,1.3308,1.3186,1.3315,1.32,1.2976,1.3098,1.2969,1.2752,0.0,0.0,0.0,0.0,0.0,0.0,0.0,0.0,0.0,0.0,0.9835,0.9822,0.0,0.0,0.0,0.0,0.0,0.0,0.0,0.0,0.0,0.9822,0.9822,0.9822,0.9822,0.9822,0.9774,0.9686,0.9659,0.9598,0.9496,0.9469,0.9483,0.9537,0.9537,0.9639,0.9802,0.9774,0.9829,0.993,0.9883,0.9978,1.0161,1.0133,0.0,0.0,1.0179,1.0004,0.9863,1.0148,1.0317,1.0446,1.0622,1.0853,1.1131,1.1586,1.1843,1.2081,1.2528,1.2786,1.2888,1.2759,1.2413,1.1993,1.1565,1.1118,0.0,0.0,1.0065,1.0127,1.0256,1.0283,1.05,1.1165,1.145,1.1789,1.2379,1.2684,1.2929,0.0,1.3349,1.3444,0.0,0.0,0.0,0.0,0.0,0.0,1.4068,1.4217,1.4299,1.4299,1.4299,1.4299,1.4299,1.415,1.4007,1.3878,1.3851,1.377,1.3634,1.3749,1.3729,1.3587,0.0,0.0,1.3403,1.3403,1.3308,1.3173,1.32,1.3112,1.2963,1.307,1.2881,1.2732,0.0,0.0,0.0,0.0,0.0,0.0,0.0,0.9936,1.0017,1.0161,1.0107,1.0032,0.9889,1.0012,0.9998,0.0,0.0,0.0,0.0,0.0,0.0,0.0,0.0,0.0,0.9822,0.9822,0.9829,0.9836,0.0,0.9612,0.9605,0.9456,0.9422,0.9503,0.9503,0.9585,0.972,0.972,0.9761,0.9822,0.9822,0.9822,0.9822,0.0,0.0,0.0,0.0,0.9822,0.9869,1.0175,1.0371,1.0534,1.0765,1.1043,1.1369,1.1816,1.2115,1.2406,1.2935,1.3132,1.3132,1.2908,1.2454,1.1904,1.1301,0.0,0.0,0.0,0.9869,0.9978,1.0134,1.0222,0.0,1.0962,1.1301,1.1681,1.2203,1.2603,0.0,1.3146,1.337,0.0,0.0,0.0,0.0,0.0,0.0,0.0,1.4183,1.4258,1.4265,1.4183,1.4258,1.4265,1.4183,1.4109,1.4075,1.4082,1.4,1.3926,1.3858,1.3933,1.3878,1.3736,1.3661,0.0,1.3512,1.3437,1.3356,1.3295,1.3295,1.3247,1.3193,1.3193,1.3044,1.2861,0.0,0.0,0.0,0.0,0.0,0.0,0.9963,1.0017,1.0154,1.0304,1.0351,1.0317,1.0161,1.0222,1.0181,0.0,0.0,0.0,0.0,0.0,0.0,0.0,0.0,0.0,0.0,0.0,0.0,0.0,0.0,0.0,0.0,0.0,0.0,0.0,0.0,0.0,0.9822,0.9822,0.9822,0.0,0.0,0.0,0.0,0.0,0.0,0.0,0.0,0.9849,0.9863,1.0141,1.0331,1.0487,1.0731,1.1077,1.147,1.1891,1.2244,1.2617,1.3159,1.3356,1.3322,1.2996,1.2481,1.1864,1.1049,1.0602,0.0,0.9883,0.9849,0.9917,1.0073,1.0222,1.0426,0.0,1.1063,1.145,1.1904,1.2352,1.2745,0.0,1.3302,0.0,0.0,0.0,0.0,0.0,0.0,0.0,1.4238,1.4217,1.4177,1.4122,1.4204,1.4211,1.4122,1.4089,1.4129,1.4251,1.4129,1.4075,1.4075,1.4102,1.4034,1.3878,1.3736,0.0,0.0,1.3464,1.3403,1.3403,1.3403,1.3403,1.3403,1.3403,1.3234,1.3017,0.0,0.0,0.0,0.0,0.0,0.0,0.9963,1.0168,1.031,1.0453,1.0595,1.0622,1.0466,1.0351,1.027,0.0,0.0,0.0,0.0,0.0,0.0,0.0,0.0,0.0,0.0,0.0,0.0,0.0,0.0,0.0,0.0,0.0,0.0,0.0,0.0,0.0,0.0,0.9822,0.0,0.0,0.0,0.0,0.0,0.0,0.0,0.0,0.0,0.9876,0.9849,0.995,0.0,1.0304,1.0331,1.0826,1.145,1.1762,0.0,0.0,1.2908,1.32,1.3295,1.2861,1.2406,1.1864,1.1049,0.0,1.0195,0.9883,0.9869,1.0011,1.0229,1.0378,1.0575,1.0813,1.0894,1.1076,1.1599,1.2047,1.244,1.2732,0.0,0.0,0.0,0.0,0.0,0.0,0.0,0.0,0.0,1.396,1.4007,1.4272,1.4156,1.415,1.4278,1.4143,1.4082,1.4095,1.4082,1.4075,1.4075,1.4217,1.4197,1.4041,0.0,0.0,0.0,1.3464,1.3403,1.3403,1.3403,1.3403,1.3403,1.3403,1.3295,1.3139,0.0,0.0,0.0,0.0,0.0,0.0,1.0148,1.0243,1.0365,1.0602,1.0683,1.0697,1.0636,1.0582,1.0473,1.0297,0.0,0.0,0.0,0.0,0.0,0.0,0.0,0.0,0.0,0.0,1.0188,1.0188,1.0249,0.0,0.0,0.0,0.0,0.0,0.0,0.0,0.0,0.0,0.0,0.0,0.0,0.0,0.0,0.0,0.0,0.0,0.0,0.0,1.0107,1.0168,0.0,0.0,1.0168,1.0405,0.0,0.0,1.1748,1.2223,1.2807,1.3112,1.3159,1.2705,1.2325,1.1843,1.1002,0.0,1.0243,1.012,1.0073,1.0038,1.0249,1.0399,1.0534,1.0656,1.0751,0.0,1.1294,1.1579,1.1959,0.0,0.0,0.0,0.0,0.0,0.0,0.0,0.0,0.0,0.0,1.3831,1.3858,1.3899,1.4007,1.4055,1.4027,1.415,1.4211,1.4211,1.4211,1.4211,1.4211,1.4272,1.4265,1.4197,0.0,0.0,0.0,1.3498,1.3403,1.3403,1.3403,1.3403,1.3403,1.3403,1.3302,1.3166,0.0,0.0,0.0,0.0,0.0,0.991,1.0175,1.0249,1.0371,1.0622,1.069,1.0717,1.0717,1.0717,1.0636,1.0426,1.05,0.0,0.0,0.0,0.0,0.0,0.0,0.0,0.0,0.0,1.0344,1.0344,1.0385,1.0412,0.0,0.0,0.0,0.0,0.0,0.0,0.0,0.0,0.0,0.0,0.0,0.0,0.0,0.0,0.0,0.0,0.0,0.0,0.0,0.0,0.0,1.0256,1.0038,1.0127,1.031,1.0819,1.128,1.1789,1.2501,1.28,1.2827,1.2461,1.2149,1.1721,0.0,0.0,1.0331,1.029,1.0229,1.0215,1.0324,1.046,1.0561,1.0561,1.0649,1.0806,1.1063,1.1267,0.0,0.0,0.0,0.0,0.0,0.0,0.0,0.0,0.0,0.0,0.0,1.3654,1.3729,1.3756,1.3878,1.3953,1.3973,1.4102,1.4211,1.4299,1.4251,1.4258,1.4299,1.4251,1.4231,1.4217,0.0,0.0,0.0,1.3505,1.3403,1.3403,1.3403,1.3403,1.3403,1.3403,1.3336,1.3234,0.0,0.0,0.0,0.0,0.0,0.9876,0.9963,1.0181,1.0331,1.0473,1.0622,1.0717,1.0717,1.0717,1.0717,1.0717,1.0717,0.0,0.0,0.0,0.0,0.0,0.0,0.0,0.0,0.0,1.0487,1.0487,1.0643,1.0717,1.0711,1.0561,1.0412,0.0,0.0,0.0,0.0,0.0,0.0,0.0,0.0,0.0,1.0487,0.0,0.0,0.0,0.0,0.0,0.0,0.0,0.0,0.0,0.0,0.999,1.0051,1.0412,1.0819,1.1371,1.1904,1.2182,1.2264,1.2108,1.1843,1.1463,0.0,1.0602,1.0453,1.031,1.0392,1.0487,1.0487,1.0616,1.0717,1.0717,1.0717,1.0772,1.086,1.1206,0.0,0.0,0.0,0.0,0.0,0.0,0.0,0.0,0.0,0.0,0.0,1.3403,1.3607,1.4055,1.3783,1.3844,1.4292,1.3994,1.4,1.4299,1.415,1.4156,1.4292,1.4143,1.4075,0.0,0.0,0.0,0.0,1.3464,1.3403,1.3403,1.3403,1.3403,1.3403,1.3403,1.3397,1.3376,0.0,0.0,0.0,0.0,0.0,0.0,0.9963,1.0181,1.0331,1.0473,1.0622,1.0717,1.0717,1.0717,1.0717,1.0717,1.0717,0.0,0.0,0.0,0.0,0.0,0.0,0.0,0.0,1.0622,1.0649,1.0649,1.0697,1.0717,1.0717,1.067,1.0514,1.0276,1.0229,0.0,0.0,0.0,0.0,0.0,0.0,1.0405,1.0507,0.0,0.0,0.0,0.0,0.0,0.0,0.0,0.0,0.0,0.0,0.0,0.0,1.0432,1.0663,1.0968,1.147,1.1789,1.1918,1.1667,1.1531,1.1335,1.0833,1.0602,1.0507,1.0568,1.0534,1.0521,1.0629,1.0683,1.0717,1.0717,1.0717,0.0,0.0,0.0,0.0,0.0,0.0,0.0,0.0,0.0,0.0,0.0,0.0,0.0,0.0,1.3403,1.3512,1.3763,1.3682,1.3797,1.4143,1.4048,1.4102,1.4299,1.4251,1.4251,1.4292,1.4143,0.0,0.0,0.0,0.0,0.0,1.3464,1.3403,1.3403,1.3403,1.3403,1.3403,1.3403,1.3403,1.3397,0.0,0.0,0.0,0.0,0.0,0.0,0.9889,1.0141,1.031,1.0399,1.0595,1.0717,1.0717,1.0717,1.0717,1.0717,1.0717,0.0,0.0,0.0,0.0,0.0,0.0,0.0,1.0717,1.0717,1.0717,1.0717,1.0717,1.0717,1.0717,1.0717,1.0588,1.0358,1.0304,1.0141,0.0,0.0,0.0,0.0,1.0399,1.0527,1.0588,0.0,0.0,0.0,0.0,0.0,0.0,0.0,0.0,0.0,0.0,0.0,0.0,0.0,1.0561,1.0731,1.1185,1.1402,1.147,1.1335,1.1267,1.1138,1.0799,1.0649,1.0602,1.0704,1.0643,1.0609,1.0704,1.0717,1.0717,1.0717,1.0717,0.0,0.0,0.0,0.0,0.0,0.0,0.0,0.0,0.0,0.0,0.0,0.0,0.0,0.0,0.0,1.3553,1.3702,1.3654,1.377,1.4068,1.4075,1.415,1.4299,1.4299,1.4272,1.4211,1.4055,0.0,0.0,0.0,0.0,0.0,1.3437,1.3403,1.3403,1.3403,1.3403,1.3403,1.3403,1.3403,1.3403,0.0,0.0,0.0,0.0,0.0,0.0,0.0,1.0093,1.0283,1.0297,1.0541,1.0717,1.0717,1.0717,1.0717,1.0717,1.0717,0.0,0.0,0.0,0.0,0.0,0.0,0.0,1.0717,1.0717,1.0717,1.0717,1.0717,1.0717,1.0717,1.0717,1.0636,1.0487,1.0351,1.0209,1.0004,1.0011,1.0161,1.031,1.0453,1.0595,0.0,0.0,0.0,0.0,0.0,0.0,0.0,0.0,0.0,0.0,0.0,0.0,0.0,0.0,0.0,0.0,0.0,1.1036,1.0894,1.1097,1.1029,1.0826,1.0751,1.0717,0.0,1.0717,1.0717,1.0717,1.0717,1.0717,1.0717,1.0717,0.0,0.0,0.0,0.0,0.0,0.0,0.0,0.0,0.0,0.0,0.0,0.0,0.0,0.0,0.0,0.0,1.3675,1.3804,1.3695,1.377,1.4068,1.4048,1.4122,1.4285,1.4272,1.4197,1.4068,1.3899,0.0,0.0,0.0,0.0,0.0,1.3403,1.3403,1.3403,1.3403,1.3403,1.3403,1.3403,1.3403,1.3403,0.0,0.0,0.0,0.0,0.0,0.0,0.0,0.0,0.0,0.0,1.0602,1.0717,1.0717,1.0717,1.0717,0.0,0.0,0.0,0.0,0.0,0.0,0.0,0.0,0.0,1.0717,1.0717,1.0717,1.0717,1.0717,1.0717,1.0717,1.0717,1.0636,1.0487,1.046,1.0365,1.0236,1.0344,1.0405,1.0453,1.0609,1.069,0.0,0.0,0.0,0.0,1.0717,1.0717,0.0,0.0,0.0,0.0,0.0,0.0,0.0,0.0,1.0663,1.069,1.0792,0.0,1.0778,1.0819,1.0799,1.0765,0.0,1.0717,1.0717,1.0717,1.0717,1.0717,1.0717,1.0717,0.0,0.0,0.0,0.0,0.0,0.0,0.0,0.0,0.0,0.0,0.0,0.0,0.0,0.0,0.0,0.0,0.0,0.0,1.3471,1.3505,1.3587,1.377,1.4068,1.3844,1.3865,1.4122,1.4007,1.3994,1.4061,1.3797,0.0,0.0,0.0,0.0,1.3403,1.3403,1.3403,1.3403,1.3403,1.3403,1.3403,1.3403,1.3403,1.3403,0.0,0.0,0.0,0.0,0.0,0.0,0.0,0.0,0.0,0.0,1.0622,1.0717,1.0717,1.0717,1.0717,0.0,0.0,0.0,0.0,0.0,0.0,0.0,0.0,1.0717,1.0717,1.0717,1.0717,1.0717,1.0717,1.0717,1.0717,1.0717,1.0677,1.0595,1.0521,1.0412,1.029,1.0432,1.0493,1.0507,1.0656,0.0,0.0,0.0,0.0,0.0,1.0717,1.0717,0.0,1.0717,1.0717,1.0717,0.0,0.0,0.0,0.0,1.0717,1.0717,1.0717,1.0717,1.0717,1.0717,1.0717,1.0717,1.0717,1.0717,1.0717,1.0717,1.0717,1.0717,1.0717,0.0,0.0,0.0,0.0,0.0,0.0,0.0,0.0,0.0,0.0,0.0,0.0,0.0,0.0,0.0,0.0,0.0,0.0,0.0,1.3505,1.3505,1.3519,1.3634,1.3865,1.3777,1.381,1.3966,1.3878,1.3851,1.3865,1.3702,0.0,0.0,0.0,0.0,1.3403,1.3403,1.3403,1.3403,1.3403,1.3403,1.3403,1.3403,1.3403,1.3403,0.0,0.0,0.0,0.0,0.0,0.0,0.0,0.0,0.0,0.0,0.0,0.0,0.0,0.0,0.0,0.0,0.0,0.0,0.0,0.0,0.0,0.0,1.0717,1.0717,1.0717,1.0717,1.0717,1.0717,1.0765,1.0785,1.0785,1.0785,1.0765,1.0717,1.0582,1.046,1.0358,1.0473,1.0527,1.0534,1.067,0.0,0.0,0.0,0.0,0.0,0.0,0.0,0.0,1.0717,1.0717,1.0717,1.0717,0.0,0.0,0.0,0.0,0.0,1.0717,1.0717,1.0717,1.0717,1.0717,1.0717,1.0717,1.0717,1.0717,1.0717,1.0717,1.0717,1.0717,1.0717,0.0,0.0,0.0,0.0,0.0,0.0,0.0,0.0,0.0,0.0,0.0,0.0,0.0,0.0,0.0,0.0,0.0,0.0,0.0,1.3593,1.3471,1.3464,1.3593,1.3715,1.3783,1.381,1.3783,1.3722,1.3627,1.3607,1.3526,0.0,0.0,0.0,1.3403,1.3403,1.3403,1.3403,1.3403,1.3403,1.3403,1.3403,1.3403,1.3403,0.0,0.0,0.0,0.0,0.0,0.0,0.0,0.0,0.0,0.0,0.0,0.0,0.0,0.0,0.0,0.0,0.0,0.0,0.0,0.0,0.0,1.0717,1.0717,1.0717,1.0717,1.0717,1.0717,1.0717,1.0968,1.1097,1.1097,1.1097,1.0962,1.0717,1.0697,1.067,1.0656,1.0677,1.0683,1.0683,1.0711,0.0,0.0,0.0,0.0,0.0,0.0,0.0,0.0,1.0717,1.0717,1.0717,1.0717,0.0,0.0,0.0,0.0,0.0,1.0717,1.0717,1.0717,1.0717,1.0717,1.0717,1.0717,1.0717,1.0717,1.0717,1.0717,1.0717,1.0717,1.0717,1.0717,0.0,0.0,0.0,0.0,0.0,0.0,0.0,0.0,0.0,0.0,0.0,0.0,0.0,0.0,0.0,0.0,0.0,0.0,1.3437,1.341,1.341,1.3437,1.3458,1.3532,1.3661,1.3532,1.3526,1.3627,1.3498,1.3424,0.0,0.0,1.3403,1.3403,1.3403,1.3403,1.3403,1.3403,1.3403,1.3403,1.3403,1.3403,1.3403,0.0,0.0,0.0,0.0,0.0,0.0,0.0,0.0,0.0,0.0,0.0,0.0,0.0,0.0,0.0,0.0,0.0,0.0,0.0,0.0,1.0717,1.0717,1.0717,1.0717,1.0717,1.0717,1.0799,1.0962,1.1179,1.1328,1.1402,1.124,1.1002,1.0717,1.0717,1.0717,1.0717,1.0717,1.0717,1.0717,0.0,0.0,0.0,0.0,0.0,0.0,0.0,0.0,0.0,0.0,1.0717,1.0717,1.0717,0.0,0.0,0.0,0.0,0.0,1.0916,1.1247,1.1637,1.0916,1.0717,1.0717,1.0717,1.0717,1.0717,1.0717,1.0717,1.0717,0.0,0.0,1.0894,1.1056,0.0,0.0,0.0,0.0,0.0,0.0,0.0,0.0,0.0,0.0,0.0,0.0,0.0,0.0,0.0,0.0,0.0,0.0,1.3403,1.3403,1.3403,1.3403,1.3437,1.3505,1.3437,1.3437,1.3505,1.3431,1.3403,1.3403,0.0,1.3403,1.3403,1.3403,1.3403,1.3403,1.3403,1.3403,1.3403,1.3403,1.3403,1.3403,0.0,0.0,0.0,0.0,0.0,0.0,0.0,0.0,0.0,0.0,0.0,0.0,0.0,0.0,0.0,0.0,0.0,0.0,0.0,1.0717,1.0717,1.0717,1.0717,1.0717,1.0717,1.0826,1.1009,1.1267,1.1525,1.1653,1.166,1.1396,1.1077,1.0717,1.0717,1.0717,1.0717,1.0717,1.0717,1.0717,0.0,0.0,0.0,0.0,0.0,0.0,0.0,0.0,0.0,0.0,0.0,0.0,0.0,0.0,0.0,1.0717,1.1703,1.2487,1.1049,1.1703,1.2487,1.1049,1.0717,1.0717,1.0717,1.0717,1.0717,1.0717,1.0717,1.0717,0.0,1.0779,0.0,0.0,0.0,0.0,0.0,0.0,0.0,0.0,0.0,0.0,0.0,0.0,0.0,0.0,0.0,0.0,0.0,0.0,0.0,0.0,1.3349,1.3349,1.3349,1.3315,1.3336,1.3403,1.3403,1.3403,1.3403,1.3403,1.3403,1.3403,1.3403,1.3403,1.3403,1.3403,1.3403,1.3397,1.3363,1.3349,1.3349,1.339,1.3403,1.3403,0.0,0.0,0.0,0.0,0.0,0.0,0.0,0.0,0.0,0.0,0.0,0.0,0.0,0.0,0.0,0.0,0.0,0.0,0.0,1.0717,1.0717,1.0717,1.0717,1.0717,1.0717,1.1131,1.1423,1.1586,1.2149,1.2216,1.1809,1.166,1.128,1.0717,1.0717,1.0717,1.0717,1.0717,1.0717,1.0717,1.0717,0.0,0.0,0.0,0.0,0.0,0.0,0.0,0.0,0.0,0.0,0.0,0.0,0.0,1.0717,1.0717,1.1703,1.2487,1.1049,1.1703,1.2487,1.1049,1.0717,1.0717,1.0717,1.0717,1.0717,1.0717,1.0717,1.0717,0.0,1.0779,0.0,0.0,0.0,0.0,0.0,0.0,0.0,0.0,0.0,0.0,0.0,0.0,0.0,0.0,0.0,0.0,0.0,0.0,0.0,0.0,0.0,1.3186,1.3186,1.3057,1.3132,1.3403,1.3403,1.3403,1.3403,1.3403,1.3403,1.3403,1.3403,1.3403,1.3403,1.3403,1.3403,1.339,1.3247,1.3186,1.3207,1.3349,1.3403,1.3403,0.0,0.0,0.0,0.0,0.0,0.0,0.0,0.0,0.0,0.0,0.0,0.0,0.0,0.0,0.0,0.0,0.0,0.0,0.0,1.0717,1.0717,1.0717,1.0717,1.0717,1.0717,1.1158,1.1647,1.2169,1.2305,1.2237,1.1965,1.1538,1.1118,1.0717,1.0717,1.0717,1.0717,1.0717,1.0717,1.0717,1.0717,1.0717,0.0,0.0,0.0,0.0,0.0,0.0,0.0,0.0,1.0717,1.0717,1.0717,1.0717,1.085,1.1769,1.2355,1.2684,1.2157,1.2355,1.2487,1.1049,1.0717,1.0744,1.0839,1.1731,1.2172,1.1082,1.1818,1.2331,0.0,0.0,0.0,0.0,0.0,0.0,0.0,0.0,0.0,0.0,0.0,0.0,0.0,0.0,0.0,0.0,0.0,0.0,0.0,0.0,0.0,0.0,0.0,1.3044,1.3044,1.307,1.3017,1.3125,1.3214,1.3261,1.3261,1.3356,1.3349,1.3261,1.3261,1.3261,1.3261,1.3261,1.3261,1.3254,1.3193,1.3173,1.3193,1.3342,1.3342,1.3275,0.0,0.0,0.0,0.0,0.0,0.0,0.0,0.0,0.0,0.0,0.0,0.0,0.0,0.0,0.0,0.0,0.0,0.0,1.0717,1.0717,1.0717,1.0717,1.0717,1.0785,1.0928,1.1328,1.1823,1.2433,1.2481,1.2305,1.1911,1.145,1.105,1.0717,1.0717,1.0717,1.0717,1.0717,1.0717,1.0717,1.0717,1.0717,0.0,0.0,0.0,0.0,0.0,0.0,0.0,0.0,1.0717,1.0717,1.0717,1.0717,1.0982,1.2355,1.3079,1.3341,1.2947,1.3144,1.3013,1.1181,1.1049,1.143,1.1639,1.2649,1.3243,1.1915,1.2337,1.2596,1.1386,0.0,0.0,0.0,0.0,0.0,0.0,0.0,0.0,0.0,0.0,0.0,0.0,0.0,0.0,0.0,0.0,0.0,0.0,0.0,0.0,0.0,0.0,0.0,1.2888,1.284,1.284,1.2888,1.299,1.3057,1.3112,1.3214,1.3207,1.3105,1.3105,1.3105,1.3112,1.3152,1.3146,1.3105,1.3105,1.3105,1.3125,1.3275,1.3295,1.3261,0.0,0.0,0.0,0.0,0.0,0.0,0.0,0.0,1.0717,1.0717,1.0717,0.0,0.0,0.0,0.0,0.0,0.0,0.0,1.0717,1.0717,1.0717,1.0717,1.0717,1.0928,1.1375,1.1674,1.1979,1.2291,1.2732,1.2494,1.1613,1.1457,1.1145,1.0724,1.0717,1.0717,1.0724,1.0717,1.0717,1.0717,1.0717,1.0717,1.0717,0.0,0.0,0.0,0.0,0.0,0.0,0.0,1.0717,1.0717,1.0717,1.0717,1.0982,1.2355,1.3801,1.4586,1.321,1.3801,1.4193,1.1372,1.1769,1.2913,1.3339,1.3549,1.3549,1.3352,1.2192,1.1165,1.1234,1.1241,0.0,0.0,0.0,0.0,0.0,0.0,0.0,0.0,0.0,0.0,0.0,0.0,0.0,0.0,0.0,0.0,0.0,0.0,0.0,0.0,0.0,0.0,1.2725,1.2576,1.2576,1.2725,1.2725,1.2807,1.3043,1.2963,1.2963,1.3043,1.3043,1.3043,1.2969,1.3112,1.3085,1.2963,1.3043,1.3043,1.2976,1.3119,1.3268,1.3397,0.0,0.0,0.0,0.0,0.0,0.0,0.0,0.0,1.0717,1.0717,1.0717,0.0,0.0,0.0,0.0,0.0,0.0,0.0,1.0717,1.0717,1.0717,1.0717,1.0717,1.0785,1.0914,1.1314,1.1823,1.244,1.2366,1.2033,1.145,1.109,1.0907,1.0806,1.0765,1.0778,1.0806,1.0765,1.0717,1.0717,1.0717,1.0717,1.0717,0.0,0.0,0.0,0.0,0.0,0.0,0.0,0.0,0.0,1.0717,1.0717,1.0982,1.2355,1.2355,1.2099,1.2618,1.2355,1.1769,1.0916,1.1917,1.3361,1.4477,1.4873,1.4886,1.4177,1.2686,1.1511,1.1613,0.0,0.0,0.0,0.0,0.0,0.0,0.0,0.0,0.0,0.0,0.0,0.0,0.0,0.0,0.0,0.0,0.0,0.0,0.0,0.0,0.0,0.0,0.0,1.2569,1.2522,1.2522,1.2569,1.2569,1.2651,1.28,1.2908,1.2901,1.28,1.28,1.28,1.28,1.284,1.2901,1.2949,1.284,1.28,1.282,1.2969,1.2983,1.2942,0.0,0.0,0.0,0.0,0.0,0.0,0.0,0.0,1.0717,1.0717,1.0717,1.0717,0.0,0.0,0.0,0.0,0.0,0.0,1.0717,1.0717,1.0717,1.0717,1.0717,1.0772,1.0894,1.1219,1.1579,1.1972,1.1911,1.1653,1.1212,1.0995,1.0914,1.088,1.0914,1.0914,1.0873,1.0786,1.0778,1.0717,1.0717,1.0717,1.0717,0.0,0.0,0.0,0.0,0.0,0.0,0.0,0.0,0.0,1.0717,1.0717,1.1115,1.3079,1.2618,1.1835,1.3276,1.2618,1.1505,1.1505,1.2813,1.4299,1.5175,1.5621,1.5643,0.0,1.361,1.2758,1.2853,0.0,0.0,0.0,0.0,0.0,0.0,0.0,0.0,0.0,0.0,0.0,0.0,0.0,0.0,0.0,0.0,0.0,0.0,0.0,0.0,0.0,0.0,0.0,1.242,1.242,1.2447,1.2501,1.2447,1.2494,1.2644,1.2739,1.2725,1.2637,1.2637,1.2671,1.2725,1.2664,1.2732,1.2854,1.2698,1.2678,1.2739,1.2834,1.2847,1.2834,0.0,0.0,1.0717,1.0717,0.0,0.0,0.0,0.0,1.0717,1.0717,1.0717,1.0717,0.0,0.0,0.0,0.0,0.0,0.0,0.0,1.0717,1.0717,1.0717,1.0717,1.0846,1.1118,1.126,1.126,1.1124,1.1443,1.1369,1.086,1.1077,1.1084,1.0907,1.109,1.1077,1.09,1.0873,1.0779,1.0717,1.0717,1.0717,1.0717,1.0717,0.0,0.0,0.0,0.0,0.0,0.0,0.0,0.0,1.0717,1.0717,1.1181,1.3801,1.3604,1.2882,1.4193,1.3613,1.2642,1.2758,1.4148,1.5567,1.5536,1.5896,1.5949,1.5068,0.0,1.4605,0.0,0.0,0.0,0.0,0.0,0.0,0.0,0.0,0.0,0.0,0.0,0.0,0.0,0.0,0.0,0.0,0.0,0.0,0.0,0.0,0.0,0.0,0.0,0.0,1.2271,1.2284,1.2352,0.0,1.2352,1.2359,1.2481,1.2494,1.2501,1.2501,1.2501,1.2583,1.2698,1.2562,1.2583,1.2698,1.2556,1.2583,1.2712,1.2712,1.28,1.2922,0.0,0.0,1.0717,1.0717,0.0,0.0,0.0,0.0,0.0,1.0717,1.0717,0.0,0.0,0.0,0.0,0.0,0.0,0.0,0.0,1.0717,1.0717,1.0717,1.0717,1.0751,1.0812,1.0846,1.0846,1.0819,1.1233,1.1212,1.0772,1.0928,1.1036,1.1111,1.1029,1.1036,1.1104,1.0867,1.0751,1.0717,1.0717,1.0717,1.0717,1.0717,1.0717,0.0,0.0,0.0,0.0,0.0,0.0,0.0,1.0717,1.0717,1.085,1.1439,1.138,1.1247,1.1505,1.1466,1.1538,1.2526,1.5053,1.7099,1.6343,1.6286,1.5985,1.4725,1.4661,0.0,0.0,0.0,0.0,0.0,0.0,0.0,0.0,0.0,0.0,0.0,0.0,0.0,0.0,0.0,0.0,0.0,0.0,0.0,0.0,0.0,0.0,0.0,0.0,1.2108,1.2108,1.223,1.2305,0.0,1.2305,1.2305,1.2338,1.2447,1.2501,1.2501,1.2501,1.2522,1.2549,1.2515,1.2522,1.2549,1.2515,1.2522,1.2549,1.2549,1.2569,1.2603,0.0,0.0,0.0,0.0,0.0,0.0,0.0,0.0,0.0,0.0,0.0,0.0,0.0,0.0,0.0,0.0,0.0,0.0,0.0,0.0,1.0717,1.0717,1.0717,1.0717,1.0717,1.0717,1.0717,1.0717,1.0955,1.0948,1.0724,1.0806,1.1023,1.1227,1.1084,1.109,1.1151,1.0928,1.0785,1.0717,1.0717,1.0717,1.0717,1.0717,1.0717,1.0717,1.0717,0.0,0.0,0.0,0.0,0.0,0.0,0.0,1.085,1.1505,1.1247,1.085,1.1505,1.1238,1.1316,1.3645,0.0,1.8541,1.76,1.7388,1.7233,1.6596,0.0,0.0,0.0,0.0,0.0,0.0,0.0,0.0,0.0,0.0,0.0,0.0,0.0,0.0,0.0,0.0,0.0,0.0,0.0,0.0,0.0,0.0,0.0,0.0,1.1952,1.1952,1.1952,1.2033,1.2108,1.2182,1.2108,1.2108,1.2182,1.2257,1.2366,1.2501,1.2427,1.244,1.2501,1.2501,1.2501,1.2501,1.2501,1.2501,1.2501,1.2501,1.2501,1.2501,0.0,0.0,0.0,0.0,0.0,0.0,0.0,0.0,0.0,0.0,0.0,0.0,0.0,0.0,0.0,0.0,0.0,0.0,0.0,0.0,0.0,1.0717,1.0717,1.0717,1.0717,1.0717,1.0717,1.0717,1.0717,1.0717,1.0724,1.0806,1.1016,1.1124,1.1124,1.1124,1.1118,1.0968,1.0766,1.0717,1.0717,1.0717,1.0717,1.0717,1.0717,1.0717,1.0717,1.0717,1.0717,1.0717,0.0,0.0,0.0,0.0,1.0916,1.2099,1.1637,1.0982,1.2099,1.1967,1.2117,1.4986,1.7801,0.0,1.8293,1.8269,1.8539,0.0,0.0,0.0,0.0,0.0,0.0,0.0,0.0,0.0,0.0,0.0,0.0,0.0,0.0,0.0,0.0,0.0,0.0,0.0,0.0,0.0,0.0,0.0,1.1863,1.1789,1.1796,1.1796,1.1796,1.1816,1.1898,1.202,1.1891,1.1898,1.202,1.1999,1.2149,1.242,1.2332,1.2359,1.2467,1.2488,1.2501,1.2501,1.2501,1.2501,1.2501,1.2501,1.2501,1.2501,0.0,0.0,0.0,0.0,0.0,0.0,0.0,0.0,0.0,0.0,1.0717,1.0717,0.0,0.0,0.0,0.0,0.0,0.0,1.0717,0.0,0.0,1.0717,1.0717,1.0717,1.0717,1.0717,1.0717,1.0717,1.0717,1.0717,1.0724,1.0806,1.0894,1.0907,1.0907,1.0907,1.09,1.0812,1.0738,1.0717,1.0717,1.0717,1.0717,1.0717,1.0717,1.0717,1.0717,1.0717,1.0717,1.0717,1.0717,0.0,0.0,0.0,1.0717,1.0916,1.085,1.0717,1.0916,1.2618,1.4592,0.0,1.792,1.9261,0.0,0.0,1.8023,0.0,0.0,0.0,0.0,0.0,0.0,0.0,0.0,0.0,0.0,0.0,0.0,0.0,0.0,0.0,0.0,0.0,0.0,0.0,0.0,0.0,0.0,1.3483,1.2753,1.164,1.1647,1.1647,1.1647,1.1769,1.1843,1.1864,1.1843,1.1843,1.1857,1.1735,1.1843,1.2128,1.2244,1.2298,1.2325,1.2447,1.2501,1.2501,1.2501,1.2501,1.2501,1.2501,1.2501,1.2501,0.0,0.0,0.0,0.0,0.0,0.0,0.0,0.0,0.0,0.0,0.0,1.0717,0.0,0.0,0.0,1.0717,1.0717,1.0717,1.0717,1.0717,1.0717,1.0717,1.0717,1.0717,1.0717,1.0717,1.0717,1.0717,1.0717,1.0717,1.0724,1.0806,1.0989,1.1063,1.0914,1.0995,1.1056,1.0907,1.0799,1.0717,1.0717,1.0717,1.0717,1.0717,1.0717,1.0717,1.0717,1.0717,1.0717,1.0717,1.0717,1.0717,1.0717,0.0,0.0,0.0,1.0717,1.085,1.1637,1.3341,1.5204,0.0,1.8362,1.9642,1.8683,0.0,0.0,0.0,0.0,0.0,0.0,0.0,0.0,0.0,0.0,0.0,0.0,0.0,0.0,0.0,0.0,0.0,0.0,0.0,0.0,0.0,0.0,0.0,1.4744,1.3944,1.2888,1.1562,1.1572,1.1619,1.1619,1.1681,1.2142,1.2994,1.2994,1.3418,1.4129,1.2431,1.1782,1.2135,1.204,1.2128,1.2298,1.2359,1.2427,1.2501,1.2501,1.2501,1.2501,1.2501,1.2501,1.2501,0.0,0.0,0.0,0.0,0.0,0.0,0.0,0.0,0.0,0.0,0.0,0.0,0.0,0.0,0.0,0.0,1.0717,1.0717,1.0717,1.0717,1.0717,1.0717,1.0717,1.0717,1.0717,1.0717,1.0717,1.0717,1.0717,1.0717,1.0724,1.0772,1.0989,1.1158,1.105,1.1063,1.122,1.1009,1.0813,1.0772,1.0738,1.0717,1.0717,1.0717,1.0717,1.0717,1.0717,1.0717,1.0717,1.0717,1.0717,1.0717,1.0717,1.0717,0.0,0.0,0.0,1.1439,1.2487,0.0,1.5221,1.6557,1.8095,1.9244,0.0,0.0,0.0,0.0,0.0,0.0,0.0,0.0,0.0,0.0,0.0,0.0,0.0,0.0,0.0,0.0,0.0,0.0,0.0,0.0,0.0,0.0,0.0,0.0,1.543,1.45,1.3137,1.1405,1.1518,1.1599,1.1558,1.1951,1.2968,1.4441,1.4093,1.4654,1.599,1.296,1.1953,1.2529,1.201,1.1986,1.2237,1.2277,1.2372,1.2501,1.2501,1.2501,1.2501,1.2501,1.2501,1.2501,0.0,0.0,0.0,0.0,0.0,0.0,0.0,0.0,0.0,0.0,0.0,0.0,1.0717,1.0717,1.0717,1.0717,1.0717,1.0717,1.0717,1.0717,1.0717,1.0717,1.0717,0.0,1.0717,1.0717,1.0717,1.0717,1.0717,1.0717,1.0717,1.0731,1.0887,1.1234,1.1158,1.1158,1.122,1.1009,1.0873,1.0853,1.0778,1.0717,1.0717,1.0717,1.0717,1.0717,1.0717,1.0717,1.0717,1.0717,1.0717,1.0717,1.0717,1.0717,1.0717,0.0,0.0,0.0,0.0,1.3801,0.0,1.53,1.6486,0.0,0.0,0.0,0.0,0.0,0.0,0.0,0.0,0.0,0.0,0.0,0.0,0.0,0.0,0.0,0.0,0.0,0.0,0.0,0.0,0.0,0.0,0.0,0.0,0.0,1.5556,1.5323,1.3968,1.131,1.1463,1.1552,1.1402,1.3026,1.4512,1.599,1.4583,1.4654,1.599,1.296,1.2409,1.3706,1.2351,1.1925,1.2088,1.223,1.2372,1.2501,1.2501,1.2501,1.2501,1.2501,1.2501,1.2501,0.0,0.0,0.0,0.0,0.0,0.0,0.0,0.0,0.0,0.0,0.0,0.0,0.0,1.0717,1.0717,1.0717,1.0717,1.0717,1.0717,1.0717,1.0717,1.0717,1.0717,1.0717,1.0717,1.0717,1.0717,1.0717,1.0717,1.0717,1.0724,1.0819,1.0975,1.1158,1.1063,1.1077,1.122,1.1009,1.0826,1.0799,1.0744,1.0717,1.0717,1.0717,1.0717,1.0731,0.0,0.0,0.0,0.0,0.0,0.0,0.0,0.0,0.0,0.0,1.1703,1.2816,0.0,0.0,0.0,1.4997,1.6242,1.7037,0.0,0.0,0.0,0.0,0.0,0.0,0.0,0.0,0.0,0.0,0.0,0.0,0.0,0.0,0.0,0.0,0.0,0.0,0.0,0.0,0.0,0.0,0.0,0.0,1.5186,1.5241,1.4028,1.1303,1.244,1.35,1.441,1.5962,1.7057,1.7549,1.7067,1.7549,1.889,1.4867,1.388,1.5159,1.2844,1.1864,1.1925,1.2081,1.223,1.2372,1.2467,1.2501,1.2501,1.2501,1.2501,1.2501,0.0,0.0,0.0,1.2289,0.0,1.0717,1.0717,1.0717,1.0717,1.0717,0.0,0.0,0.0,0.0,1.0717,1.0717,1.0717,1.0717,1.0717,1.0717,1.0717,1.0717,1.0717,1.0717,1.0717,1.067,1.067,1.0717,1.067,1.067,1.0724,1.0759,1.0948,1.1084,1.0934,1.1036,1.1301,1.1104,1.0962,1.086,1.0758,1.0717,1.0724,1.0778,1.0799,0.0,0.0,0.0,0.0,0.0,0.0,0.0,0.0,0.0,0.0,0.0,0.0,0.0,1.3407,0.0,0.0,0.0,1.6447,1.7031,0.0,0.0,0.0,0.0,0.0,0.0,0.0,0.0,0.0,0.0,0.0,0.0,0.0,0.0,0.0,0.0,0.0,0.0,0.0,0.0,0.0,0.0,0.0,0.0,1.5684,1.5892,1.5105,1.2897,1.3974,1.53,1.6836,1.791,1.8692,1.9181,1.8622,1.9181,2.0527,1.6003,1.4748,1.6041,1.3145,1.1911,1.1918,1.2074,1.223,1.2372,1.2467,1.2501,1.2501,1.2501,1.2501,1.2501,2.0043,1.7496,1.5414,1.5414,1.2873,1.085,1.085,1.085,1.0784,1.0784,0.0,0.0,0.0,0.0,0.0,1.0717,1.0717,1.0717,1.0717,1.0717,1.0717,1.0717,1.0717,1.0717,1.0717,1.0575,1.0568,1.0717,1.0568,1.0575,1.0717,1.0717,1.0806,1.0873,1.0725,1.1056,1.1586,1.128,1.1158,1.1131,1.0846,1.0738,1.0758,1.084,0.0,0.0,1.1294,1.1396,0.0,1.1389,0.0,0.0,0.0,0.0,0.0,0.0,0.0,0.0,0.0,0.0,0.0,0.0,0.0,0.0,1.698,0.0,0.0,0.0,0.0,0.0,0.0,0.0,0.0,0.0,0.0,0.0,0.0,0.0,0.0,0.0,0.0,0.0,0.0,0.0,0.0,0.0,0.0,1.8495,1.7109,1.7366,1.7145,1.6183,1.6012,1.6778,1.8482,1.8482,1.9181,2.0665,1.9181,1.9262,2.0551,1.6224,1.509,1.6327,1.3466,1.2216,1.223,1.2306,1.2372,1.2494,1.2501,1.2501,1.2501,1.2501,1.2501,1.2501,1.7893,1.6333,1.5033,1.5033,1.4315,1.3735,1.3735,1.3735,1.3341,0.0,0.0,0.0,1.0784,1.0717,1.0717,1.0717,1.0717,1.0717,1.0717,1.0717,1.0717,1.0717,1.0717,1.0717,1.0717,1.0677,1.0677,1.0717,1.0677,1.0677,1.0717,1.0717,1.0806,1.088,1.084,1.1036,1.1274,1.109,1.1009,1.1009,1.1029,1.1104,0.0,0.0,0.0,0.0,0.0,1.1484,1.1389,0.0,1.1287,1.1118,0.0,0.0,1.2445,0.0,0.0,1.5684,1.5043,0.0,0.0,0.0,0.0,0.0,1.5684,1.7378,0.0,0.0,0.0,0.0,0.0,0.0,0.0,0.0,0.0,0.0,0.0,0.0,0.0,0.0,0.0,0.0,0.0,0.0,0.0,0.0,1.9253,1.8682,1.712,1.6425,1.6598,1.7749,1.7708,1.8487,2.0028,2.0028,2.0318,2.0665,2.0249,2.0413,2.0885,1.8581,1.7837,1.8363,1.6592,1.579,1.5575,1.3242,1.2311,1.2359,1.2461,1.2501,1.2501,1.2501,1.2501,1.2501,1.8716,1.7485,1.6387,1.6387,1.5674,1.5127,1.5279,1.509,1.4679,0.0,0.0,0.0,1.1028,1.0853,1.0745,1.0745,1.1283,1.1306,1.0717,1.1247,1.1306,1.0717,1.0717,1.0717,1.0717,1.0656,1.0656,1.0717,1.0656,1.0656,1.0717,1.0717,1.0765,1.0786,1.0786,1.09,1.0982,1.1023,1.1002,1.0887,1.1036,0.0,0.0,1.1341,1.1389,0.0,0.0,0.0,1.1586,1.1647,1.191,0.0,0.0,0.0,0.0,0.0,0.0,1.6073,1.5814,1.6398,1.6915,0.0,0.0,0.0,1.6861,1.7905,1.888,0.0,0.0,0.0,0.0,0.0,0.0,0.0,0.0,0.0,0.0,0.0,0.0,0.0,0.0,0.0,0.0,0.0,0.0,0.0,1.9326,1.9167,1.8424,1.7825,1.8082,1.9309,1.932,1.982,2.0665,2.0665,2.0665,2.0665,2.0665,2.088,2.1064,1.958,1.9036,1.9189,1.7852,1.7265,1.7124,1.5244,1.4418,1.4273,1.3,1.2881,1.3414,1.2733,1.2501,1.2501,0.0,1.975,1.8704,1.8704,1.7173,1.6035,1.6237,1.5712,1.5269,0.0,1.3804,1.2406,1.1283,1.1036,1.088,1.088,1.1932,1.2033,1.0784,1.1901,1.2033,1.0717,1.085,1.085,1.0717,1.0713,1.0713,1.0717,1.0582,1.0588,1.0717,1.0717,1.0717,1.0717,1.0717,1.0717,1.0738,1.1002,1.1056,1.0907,1.0941,1.0954,0.0,0.0,1.1443,1.1477,1.1735,1.1823,1.1823,1.1945,1.2598,0.0,0.0,0.0,0.0,0.0,1.4987,1.5434,1.6882,1.7282,1.7616,0.0,0.0,0.0,1.912,1.9096,1.9072,0.0,0.0,0.0,0.0,0.0,0.0,0.0,0.0,0.0,0.0,0.0,0.0,0.0,0.0,0.0,0.0,0.0,1.9072,1.9072,1.9326,1.9778,2.0291,2.0291,2.04,2.0653,2.0665,2.0665,2.0665,2.0665,2.0665,2.0665,2.0702,2.0847,2.1112,1.9854,1.943,1.9669,1.8436,1.791,1.791,1.7759,1.7531,1.7074,1.4184,1.3953,1.502,1.3568,1.2958,1.2804,2.0297,2.003,1.9775,1.9775,1.9628,1.9398,1.9197,1.8091,1.682,1.5471,1.2949,1.1267,1.1214,1.1036,1.088,1.088,1.1006,1.0982,1.0717,1.0982,1.0982,1.0717,1.1769,1.1835,1.0717,1.1805,1.1805,1.0717,1.069,1.069,1.0717,1.0717,1.0717,1.0717,1.0717,1.0717,1.0724,1.0785,0.0,1.1145,1.1389,0.0,1.1504,1.1681,1.1742,1.1755,1.1809,1.1755,1.1647,1.1552,1.1759,1.1938,0.0,0.0,0.0,0.0,0.0,0.0,0.0,0.0,0.0,0.0,0.0,0.0,1.9386,1.9229,1.9072,0.0,0.0,0.0,0.0,0.0,0.0,0.0,0.0,0.0,0.0,0.0,0.0,0.0,0.0,0.0,0.0,0.0,1.9072,1.9072,1.9326,1.9863,2.0557,2.0388,2.04,2.0653,2.0665,2.0665,2.0665,2.0665,2.0665,2.0665,2.0953,2.1124,2.1402,2.1376,2.1479,2.1727,2.1475,2.1337,2.1262,1.9887,1.8592,1.7303,1.6694,1.6617,1.6846,1.6541,1.5625,1.4406,2.0602,2.0602,2.0552,2.0361,2.0349,2.0232,2.0058,1.9285,1.8538,1.7859,1.527,1.3306,1.2702,1.174,1.1138,1.1063,1.1514,1.1555,1.0833,1.1423,1.1439,1.0717,1.1372,1.1439,1.0717,1.138,1.1439,1.0717,1.0717,1.0717,1.0717,1.0717,1.0717,1.0717,1.0717,1.0765,1.0839,1.0914,1.0989,1.1077,1.1301,0.0,1.1626,1.1701,1.1728,1.1728,1.1728,1.1728,1.1904,1.3216,1.3169,0.0,0.0,1.4905,1.5701,0.0,1.7973,1.863,0.0,0.0,0.0,1.9857,0.0,0.0,0.0,1.9265,1.9072,0.0,0.0,0.0,0.0,0.0,0.0,0.0,0.0,0.0,0.0,0.0,0.0,0.0,0.0,0.0,0.0,0.0,1.9193,1.9458,1.9724,2.0098,2.0641,2.0545,2.0533,2.0665,2.0665,2.0665,2.0665,2.0665,2.0807,2.0929,2.1074,2.1281,2.1679,2.1812,2.2017,2.2334,2.2334,2.2334,2.2259,2.1412,2.0575,1.9661,1.8062,1.791,1.8517,1.7683,1.6846,1.616,2.1109,2.1109,2.0982,2.0729,2.0527,2.0323,2.0228,1.973,1.9256,1.9004,1.6708,1.4727,1.3689,1.2277,1.1321,1.1253,1.2096,1.2203,1.1098,1.1926,1.1931,1.0724,1.0982,1.0982,1.0717,1.0982,1.0982,1.0717,1.0717,1.0717,1.0717,1.0717,1.0717,1.0724,1.0751,1.0752,1.0847,1.109,0.0,1.1022,0.0,1.1382,1.1579,1.164,1.1804,1.2086,1.2338,1.2547,1.2967,1.5167,0.0,1.4523,1.6775,1.7391,0.0,0.0,0.0,0.0,0.0,0.0,0.0,0.0,0.0,1.9603,0.0,0.0,0.0,0.0,0.0,0.0,0.0,0.0,0.0,0.0,0.0,0.0,0.0,0.0,0.0,0.0,0.0,0.0,0.0,0.0,1.941,1.9857,2.0134,2.0388,2.0653,2.0665,2.0665,2.0665,2.0665,2.0665,2.0665,2.0714,2.0917,2.1135,2.116,2.145,2.1873,2.1921,2.214,2.2334,2.2334,2.2334,2.2334,2.2334,2.2334,2.2035,1.9359,1.9132,2.0113,1.883,1.8138,1.7834,2.1109,2.1109,2.1109,2.1046,2.1272,2.1316,2.0968,1.954,1.7455,1.4505,1.2581,1.153,1.1664,1.142,1.1294,1.1545,1.144,1.14,1.1335,1.1214,1.0994,1.0724,1.1901,1.1967,1.0717,1.1901,1.1967,1.0717,1.0717,1.0717,1.0717,1.0717,1.0717,1.0724,1.0793,1.0793,1.0765,0.0,1.1307,0.0,1.1558,1.1504,0.0,1.1708,1.2605,1.3954,1.5141,1.5584,1.5664,0.0,1.5971,1.591,0.0,1.6221,1.6353,0.0,0.0,0.0,0.0,0.0,0.0,0.0,2.0388,0.0,0.0,0.0,0.0,0.0,0.0,0.0,0.0,0.0,0.0,0.0,0.0,0.0,0.0,0.0,0.0,0.0,0.0,0.0,0.0,0.0,0.0,1.9881,2.0134,2.0388,2.0653,2.0665,2.0665,2.0665,2.0665,2.0665,2.0665,2.0965,2.1098,2.1135,2.1547,2.1812,2.1873,2.2188,2.2309,2.2334,2.2334,2.2334,2.2334,2.2334,2.2334,2.2259,2.1873,2.1873,2.1948,2.1798,2.08,1.951,2.1109,2.1109,2.1046,2.0856,2.1029,2.1045,2.0284,1.9813,1.9136,1.8077,1.652,1.5273,1.4618,1.3563,0.0,1.1801,0.0,1.1382,0.0,0.0,1.0813,1.0724,1.1333,1.1407,1.0724,1.1333,1.134,1.0717,1.0717,1.0717,1.0717,1.0717,1.0717,1.0724,1.0813,0.0,1.0989,0.0,1.1369,0.0,0.0,0.0,0.0,1.2692,1.3574,1.414,1.4707,1.5029,1.5397,0.0,1.7023,0.0,0.0,0.0,0.0,0.0,0.0,0.0,0.0,0.0,0.0,0.0,0.0,0.0,2.0134,0.0,1.9676,0.0,0.0,0.0,0.0,0.0,0.0,0.0,0.0,0.0,0.0,0.0,0.0,0.0,0.0,0.0,0.0,0.0,0.0,0.0,0.0,2.0388,2.0653,2.0665,2.0665,2.0665,2.0665,2.0738,2.0965,2.1074,2.1292,2.1607,2.1764,2.1945,2.2176,2.2285,2.2334,2.2334,2.2334,2.2334,2.2334,2.2334,2.2334,2.2334,2.2334,2.2334,2.2334,2.2334,2.1873,2.1262,2.1109,2.1109,2.1046,2.0792,2.09,2.0773,1.9992,1.9817,1.9953,2.0416,1.9107,0.0,1.6909,1.5279,0.0,0.0,1.2157,1.1667,0.0,0.0,1.0962,0.0,0.0,0.0,0.0,1.0786,1.0833,1.0717,1.0717,1.0744,1.0778,1.0738,1.0765,1.0846,1.0962,1.1063,1.1241,0.0,1.1477,1.1538,1.187,1.2164,1.241,1.3655,1.4124,1.4228,1.5018,1.5468,1.5985,1.8367,1.8517,0.0,2.0087,0.0,0.0,0.0,0.0,0.0,2.0436,0.0,0.0,0.0,0.0,0.0,0.0,0.0,0.0,0.0,0.0,0.0,0.0,0.0,0.0,0.0,0.0,0.0,0.0,0.0,0.0,0.0,0.0,0.0,0.0,0.0,0.0,0.0,2.0086,0.0,2.0557,2.0629,2.0665,2.0665,2.0738,2.0871,2.1122,2.128,2.1486,2.1873,2.1945,2.2078,2.2334,2.2334,2.2334,2.2334,2.2334,2.2334,2.2334,2.2334,2.2334,2.2483,2.2334,2.2334,2.2483,2.2334,2.2334,2.2334,2.1109,2.1109,2.1109,2.1109,2.1122,2.0996,2.0602,1.9444,1.8501,1.8288,0.0,0.0,0.0,0.0,0.0,0.0,0.0,1.2108,1.2244,0.0,1.122,0.0,0.0,1.0792,0.0,0.0,1.0724,1.0717,1.0717,1.0799,1.0873,1.0785,1.0873,1.1151,1.122,1.1158,1.1255,1.1484,1.1694,1.1816,1.183,1.2707,1.4019,0.0,1.4221,1.4511,1.7377,0.0,0.0,2.0122,2.0608,0.0,0.0,0.0,0.0,0.0,0.0,0.0,0.0,0.0,0.0,2.0665,0.0,0.0,0.0,0.0,2.0195,0.0,0.0,0.0,0.0,0.0,0.0,1.9596,0.0,0.0,0.0,0.0,0.0,0.0,0.0,0.0,0.0,0.0,0.0,1.9507,1.9977,0.0,2.0291,2.0533,2.0665,2.0665,2.0919,2.1122,2.1135,2.1583,2.1848,2.1873,2.2126,2.2259,2.2334,2.2334,2.2334,2.2334,2.2334,2.2334,2.2334,2.2334,2.2558,2.2856,2.2483,2.2558,2.2856,2.2408,2.2334,2.2334,2.1109,2.1269,2.1336,2.1149,2.1269,2.1275,2.0953,1.9314,1.8668,0.0,0.0,0.0,0.0,1.9198,1.8494,0.0,0.0,1.5497,1.3784,1.3473,0.0,0.0,0.0,1.105,0.0,0.0,0.0,0.0,1.0717,1.0799,1.088,1.0792,1.0826,1.1023,0.0,1.1077,0.0,0.0,0.0,0.0,0.0,1.1942,1.2561,0.0,0.0,1.5346,1.5543,1.6874,0.0,1.9355,2.0213,2.0931,2.0931,2.081,2.0641,2.046,2.0533,0.0,0.0,0.0,2.0665,2.0665,0.0,0.0,0.0,0.0,0.0,0.0,0.0,0.0,0.0,0.0,2.0376,2.0279,2.0178,0.0,0.0,0.0,0.0,0.0,0.0,0.0,0.0,0.0,0.0,1.9536,1.9808,2.0098,0.0,2.0521,2.0665,2.0665,2.0989,2.1219,2.1329,2.1983,2.2252,2.22,2.2521,2.2558,2.2334,2.2334,2.2334,2.2334,2.2334,2.2334,2.2334,2.2558,2.2781,2.2881,2.2904,2.2965,2.3016,2.2469,2.2443,2.2624,2.1269,2.1336,2.1336,2.1149,2.1269,2.1261,2.094,0.0,0.0,0.0,2.0222,0.0,2.0175,0.0,1.8888,0.0,1.7601,1.6364,1.3979,1.4784,0.0,1.1275,1.2296,0.0,0.0,0.0,0.0,0.0,0.0,1.2164,1.1913,1.1627,1.1372,1.1104,0.0,1.1077,1.1241,0.0,1.1396,0.0,0.0,1.1837,0.0,0.0,1.3571,1.5239,0.0,1.6839,1.8578,1.931,2.0202,2.0989,2.0989,2.088,2.0641,2.046,2.0533,2.0629,2.046,2.0545,0.0,0.0,2.0665,0.0,2.0665,0.0,0.0,0.0,0.0,0.0,0.0,0.0,0.0,2.0665,2.0448,2.0146,0.0,1.9748,0.0,0.0,0.0,0.0,0.0,0.0,1.9487,1.9338,1.9676,1.9965,0.0,0.0,2.0714,2.088,2.1064,2.1341,2.1619,2.2313,2.2534,2.2334,2.2707,2.2707,2.2334,2.2334,2.2334,2.2346,2.258,2.2629,2.2704,2.308,2.3229,2.3242,2.3178,2.3177,2.3164,2.2712,2.2721,2.2891,2.1601,2.1296,2.1109,0.0,2.1122,0.0,0.0,0.0,2.1358,0.0,2.0132,2.0304,1.8654,1.7331,1.6518,1.6612,1.6254,1.508,1.301,1.5496,0.0,0.0,1.4206,1.4267,1.1365,0.0,0.0,0.0,0.0,0.0,1.3813,1.3298,1.2513,1.1523,1.1365,0.0,1.1241,1.131,1.1392,1.153,1.1538,1.2357,1.3534,1.3518,0.0,1.4257,1.7168,1.8229,1.8508,2.0179,2.0678,2.0665,2.0759,2.0678,2.0665,2.0665,2.0665,2.0665,2.0665,2.0665,2.0665,2.0665,0.0,0.0,0.0,0.0,2.0665,0.0,0.0,0.0,0.0,0.0,0.0,2.0665,2.0448,2.0098,0.0,0.0,0.0,0.0,0.0,0.0,0.0,0.0,1.9374,1.9096,1.9579,1.9881,0.0,0.0,0.0,2.1122,2.1341,2.1619,2.1873,2.2571,2.2707,2.2334,2.2707,2.2707,2.2334,2.2334,2.2346,2.2445,2.3065,2.3341,2.3341,2.3795,2.3946,2.3871,2.3416,2.3214,2.3187,2.3125,2.3133,2.3145,2.1269,2.1162,2.1176,0.0,2.1256,2.1062,0.0,0.0,0.0,0.0,2.0891,2.1022,1.9646,2.0367,2.0318,1.8678,1.8429,0.0,0.0,0.0,0.0,1.221,1.3749,1.4022,1.2811,1.3632,0.0,1.4748,0.0,0.0,1.5334,1.4718,1.3949,1.3114,0.0,0.0,1.1405,1.244,1.2874,1.2735,1.1678,1.215,0.0,0.0,1.5271,1.6435,1.766,1.864,1.9616,2.0623,2.0822,2.0702,2.0895,2.0892,2.0665,2.0665,2.0665,2.0665,2.0665,2.0665,2.0665,2.0665,2.0665,2.0665,0.0,0.0,0.0,0.0,0.0,0.0,0.0,0.0,0.0,0.0,0.0,0.0,0.0,0.0,0.0,2.0183,0.0,0.0,0.0,1.982,1.9579,1.9108,1.9579,1.9881,0.0,0.0,0.0,2.1122,2.1523,2.18,2.1873,2.2794,2.293,2.2334,2.293,2.3079,2.2781,2.2781,2.3042,2.353,2.3681,2.3719,2.3795,2.4173,2.416,2.3795,2.3934,2.3798,2.3605,2.3393,2.3345,2.3369,2.1336,2.1296,0.0,2.1683,0.0,0.0,2.1225,0.0,0.0,1.9886,2.0906,0.0,1.958,2.0739,2.1002,1.9628,2.003,0.0,1.6031,0.0,0.0,1.2464,1.4136,1.4394,1.2512,1.3819,0.0,1.4878,0.0,0.0,1.56,1.4891,1.4011,1.292,0.0,1.2141,1.1459,1.2153,1.2481,1.2383,1.2103,0.0,0.0,1.546,1.6771,1.8089,1.8473,1.9142,1.9808,2.0484,2.0617,2.0545,2.088,2.0786,2.0665,2.0665,2.0665,2.0665,2.0665,2.0665,2.0665,2.0665,2.0665,2.0665,2.0665,2.0665,2.0665,0.0,0.0,0.0,0.0,0.0,0.0,0.0,0.0,0.0,0.0,0.0,0.0,0.0,0.0,0.0,0.0,2.0111,1.9907,1.933,1.9771,0.0,0.0,0.0,0.0,2.1505,2.1679,2.1959,2.2547,2.314,2.3154,2.2558,2.3302,2.3377,2.293,2.3204,2.3568,2.3959,2.4354,2.4469,2.4366,2.4953,2.4851,2.429,2.4341,2.4409,2.4387,2.4239,2.4019,2.3964,2.1681,0.0,0.0,0.0,0.0,0.0,0.0,2.1765,0.0,1.9607,0.0,2.1168,1.8976,1.9819,2.0365,1.9807,0.0,2.001,1.6456,1.8647,1.787,1.2957,1.4975,1.4779,1.1776,1.4018,0.0,0.0,0.0,0.0,1.5937,1.5219,0.0,0.0,0.0,0.0,0.0,1.1434,1.1413,0.0,1.2653,1.3921,1.5489,1.6689,1.7956,1.9108,1.9338,1.9499,1.9555,2.0098,2.0279,2.0327,2.0593,2.0665,2.0665,2.0665,2.0665,2.0665,2.0665,2.0665,2.0665,2.0665,2.0665,2.0665,2.0665,2.0665,2.0665,2.0665,2.0665,0.0,0.0,0.0,0.0,0.0,0.0,0.0,0.0,0.0,0.0,0.0,0.0,0.0,0.0,0.0,0.0,0.0,0.0,0.0,0.0,0.0,0.0,0.0,2.1824,0.0,2.3215,0.0,2.3228,2.293,2.36,2.3612,2.3142,2.3681,2.406,2.4226,2.5075,2.5308,2.5124,2.5657,2.554,2.4983,2.479,2.4901,2.513,2.513,2.497,2.4731,2.1911,0.0,0.0,0.0,0.0,2.2319,2.2603,2.3154,2.2901,2.1089,2.2934,2.3028,1.9454,2.0752,2.1214,1.9457,1.9541,0.0,0.0,0.0,0.0,1.5265,1.5082,1.4505,1.3349,1.3792,1.4937,0.0,0.0,0.0,1.9427,1.9072,0.0,0.0,0.0,0.0,1.4779,1.2251,0.0,1.417,1.3361,1.4497,1.6709,1.6904,1.7863,1.9084,1.9132,1.9289,1.9555,2.0098,2.0279,2.0327,2.0593,2.0665,2.0665,2.0665,2.0665,2.0665,2.0665,2.0665,2.0665,2.0665,2.0665,2.0665,2.0665,2.0665,2.0665,2.0665,2.0665,2.0665,2.0665,0.0,0.0,0.0,0.0,0.0,0.0,0.0,0.0,0.0,0.0,0.0,0.0,0.0,0.0,0.0,0.0,0.0,0.0,0.0,0.0,0.0,0.0,0.0,0.0,0.0,0.0,2.293,2.3302,2.3789,2.4246,2.4373,2.4888,2.5644,2.5498,2.5628,2.5788,2.5678,2.5474,2.5192,2.5097,2.5092,2.513,2.5514,2.5594,2.5514,0.0,0.0,0.0,0.0,0.0,0.0,0.0,2.3729,0.0,2.2148,2.2499,2.2096,2.016,2.1526,2.2118,2.0956,2.1589,2.1546,2.0516,1.9264,1.813,1.6969,1.623,0.0,1.5167,1.4081,1.4716,1.7076,0.0,0.0,1.8655,1.8397,0.0,1.7256,0.0,1.5495,0.0,0.0,0.0,1.394,1.3998,1.5184,1.7109,1.7829,1.8483,1.9072,1.9072,1.9157,1.935,1.9893,2.0074,2.0146,2.0545,2.0665,2.0665,2.0665,2.0665,2.0665,2.0665,2.0665,2.0665,2.0665,2.0665,2.0735,2.0943,2.0943,2.1012,2.122,2.1289,2.1358,2.1484,2.122,0.0,0.0,0.0,0.0,0.0,0.0,0.0,0.0,0.0,0.0,0.0,0.0,0.0,0.0,0.0,0.0,0.0,0.0,0.0,0.0,0.0,0.0,0.0,0.0,0.0,2.3451,2.3822,2.4188,2.4475,2.4859,2.5391,2.6037,2.5959,2.5959,2.6023,2.5798,2.5828,2.5872,2.578,2.5766,2.5845,2.599,2.607,2.607,0.0,2.2871,0.0,0.0,2.3843,0.0,2.3674,2.3922,2.3852,2.3019,2.2167,2.1563,2.1508,2.2194,2.2556,2.2319,2.2972,2.2925,2.1692,2.0697,1.9686,1.8642,1.7473,1.6708,1.6534,1.4736,1.4698,0.0,0.0,0.0,0.0,0.0,0.0,0.0,0.0,0.0,0.0,0.0,1.2801,1.3927,1.4969,1.6203,1.756,1.8676,1.9072,1.9072,1.9072,1.9072,1.9145,1.9627,1.9833,1.9977,2.0496,2.0665,2.0665,2.0665,2.0665,2.0665,2.0665,2.0665,2.0665,2.0665,2.0665,2.0735,2.1012,2.1069,2.1207,2.1553,2.176,2.1897,2.2242,2.176,0.0,0.0,0.0,0.0,0.0,0.0,0.0,0.0,0.0,0.0,0.0,0.0,0.0,0.0,0.0,0.0,0.0,0.0,0.0,0.0,0.0,0.0,2.4267,0.0,2.3896,0.0,2.4407,2.4666,2.473,2.5325,2.5772,2.6052,2.6226,2.6172,2.6037,2.6026,2.6186,2.6386,2.6386,2.6386,2.6386,2.6386,2.6386,2.6386,0.0,0.0,0.0,0.0,0.0,0.0,0.0,2.3763,2.376,2.3744,2.4028,2.4173,2.3934,2.2938,2.2234,2.2081,2.0604,2.0253,2.1527,1.9855,1.9283,2.032,1.8224,1.6859,1.6534,1.57,1.5374,0.0,0.0,0.0,0.0,0.0,0.0,0.0,0.0,0.0,0.0,1.5357,1.5361,1.6613,1.6796,1.7636,1.8944,1.9072,1.9072,1.9072,1.9072,1.9072,1.912,1.941,1.9676,1.9977,2.0496,2.0665,2.0665,2.0665,2.0665,2.0665,2.0665,2.0665,2.0665,2.0665,2.0665,2.0735,2.0735,2.0735,2.0873,2.122,2.1553,2.1897,2.2242,2.1966,2.176,0.0,0.0,0.0,0.0,0.0,0.0,0.0,0.0,0.0,0.0,0.0,0.0,0.0,0.0,0.0,0.0,0.0,0.0,2.211,0.0,2.2999,2.3079,2.3302,0.0,2.397,2.438,2.4806,2.5401,2.5785,2.6079,2.6333,2.6106,2.5985,2.605,2.6239,2.636,2.6386,2.6386,2.6386,2.6386,2.6386,2.6386,2.6386,0.0,0.0,0.0,0.0,0.0,0.0,0.0,2.4029,2.3941,2.3784,2.3121,2.254,2.2439,2.2086,2.1836,2.1739,2.1012,2.0815,2.1465,2.0241,1.9798,2.0317,1.9938,1.9613,1.9498,1.7787,1.7375,0.0,0.0,0.0,0.0,0.0,0.0,0.0,0.0,1.7443,1.7194,1.5695,1.5803,1.698,1.698,1.7829,1.9072,1.9072,1.9072,1.9072,1.9072,1.9072,1.912,1.9374,1.9543,1.9724,2.0267,2.0436,2.046,2.0617,2.0665,2.0665,2.0665,2.0665,2.0665,2.0665,2.0665,2.0735,2.0943,2.1012,2.1081,2.1484,2.1829,2.2173,2.231,2.2173,2.2173,0.0,0.0,0.0,0.0,0.0,0.0,0.0,0.0,0.0,0.0,0.0,0.0,0.0,0.0,0.0,0.0,0.0,0.0,2.2325,0.0,2.3515,2.36,2.3896,2.4284,2.4679,2.4798,2.5179,2.5785,2.5905,2.6119,2.6386,2.6266,2.6213,2.6226,2.6346,2.6386,2.6386,2.6386,2.6386,2.6386,2.6386,2.6386,2.6386,2.3694,0.0,2.4185,0.0,2.4406,2.4603,2.4118,2.4037,2.3977,2.3784,2.2694,2.1981,2.2059,2.1873,2.1663,2.1599,2.1019,2.0811,2.1313,2.063,2.0506,2.1044,2.1331,0.0,2.1474,1.9519,1.8879,1.9537,1.9002,0.0,0.0,0.0,0.0,0.0,1.8502,1.7928,1.7683,1.6661,1.6804,1.7636,1.7636,1.8226,1.9072,1.9072,1.9072,1.9072,1.9072,1.9072,1.9108,1.9289,1.935,1.9458,2.0086,2.0279,2.0327,2.0593,2.0665,2.0665,2.0665,2.0665,2.0665,2.0665,2.0665,2.0735,2.1012,2.1081,2.122,2.1703,2.2035,2.231,2.2448,2.2448,2.2516,0.0,0.0,0.0,0.0,0.0,0.0,0.0,0.0,2.1691,2.1897,0.0,0.0,0.0,0.0,0.0,0.0,0.0,0.0,0.0,0.0,0.0,0.0,0.0,2.4877,2.5077,2.5251,2.5558,2.6037,2.6039,2.6199,2.6386,2.6386,2.6386,2.6386,2.6386,2.6386,2.6386,2.6386,2.6386,2.6386,2.6386,2.6386,2.6386,2.4532,2.4391,2.4221,2.4162,2.4344,2.4332,2.3852,2.3772,2.3772,2.376,2.376,2.3856,2.4121,2.2797,2.1836,2.1609,1.9931,1.9502,2.1071,2.0701,2.1224,0.0,0.0,2.1474,2.1474,2.069,1.9457,1.7836,0.0,0.0,1.7055,0.0,0.0,1.9524,1.9193,1.9229,1.9446,1.9193,1.9072,1.9072,1.9072,1.9072,1.9072,1.9072,1.9072,1.9072,1.9072,1.9072,1.9072,1.9084,1.9084,1.9217,2.0026,2.0279,2.0327,2.0593,2.0665,2.0665,2.0665,2.0665,2.0665,2.0665,2.0665,2.0665,2.0735,2.0735,2.0943,2.1622,2.2035,2.2448,2.2791,2.2859,2.2791,2.2379,0.0,0.0,0.0,0.0,0.0,0.0,2.1622,2.1484,2.2242,0.0,0.0,0.0,0.0,0.0,0.0,0.0,0.0,2.3184,2.3471,0.0,2.4031,2.4706,2.5077,2.509,2.5665,2.6023,2.605,2.6253,2.6386,2.6386,2.6386,2.6386,2.6386,2.6386,2.6386,2.6386,2.6386,2.6386,2.6386,2.6386,2.6386,2.6386,2.4544,2.4589,2.4579,2.4271,2.4392,2.4486,2.4142,2.4025,2.4045,2.3784,2.376,2.3796,2.3961,2.3468,2.3156,0.0,2.1221,2.0279,0.0,2.0307,1.9732,1.9264,2.0649,2.0957,1.9849,2.0121,1.9943,1.9201,0.0,0.0,0.0,1.952,1.9548,1.9193,1.9108,1.912,1.9193,1.9108,1.9072,1.9072,1.9072,1.9072,1.9072,1.9072,1.9072,1.9072,1.9072,1.9072,1.9072,1.9072,1.9072,1.9181,1.9808,2.0014,2.0098,2.0533,2.0665,2.0665,2.0665,2.0665,2.0735,2.1012,2.1012,2.1081,2.1427,2.1427,2.1496,2.1772,2.2035,2.231,2.2448,2.2722,2.2859,2.2722,0.0,0.0,0.0,0.0,0.0,0.0,0.0,2.2448,0.0,2.2242,0.0,0.0,0.0,0.0,0.0,0.0,0.0,0.0,2.3615,0.0,2.4031,2.4706,2.5184,2.5384,2.5772,2.6066,2.6253,2.6346,2.6386,2.6386,2.6386,2.6386,2.6386,2.6386,2.6386,2.6386,2.6386,2.6386,2.6386,2.6386,2.6386,2.6386,2.505,2.4949,2.4901,2.4578,2.4551,2.4519,2.4361,2.4174,2.4033,2.3784,2.3676,2.3616,2.3616,2.3611,0.0,2.3604,2.2437,2.1659,2.1557,2.1097,2.0362,1.9283,2.0715,2.0982,1.9786,0.0,0.0,2.0038,2.0086,1.9907,1.9637,1.9637,1.9487,1.9072,1.9072,1.9072,1.9072,1.9072,1.9072,1.9072,1.9072,1.9072,1.9072,1.9072,1.9072,1.9072,1.9072,1.9072,1.9072,1.9072,1.9072,1.9157,1.9591,1.9808,1.9989,2.0521,2.0665,2.0665,2.0665,2.0804,2.0943,2.1138,2.1276,2.1484,2.176,2.176,2.1841,2.1966,2.2173,2.2379,2.2516,2.2722,2.2928,2.2928,0.0,2.2928,0.0,0.0,0.0,0.0,0.0,0.0,0.0,2.2513,0.0,0.0,0.0,0.0,0.0,0.0,0.0,2.3196,2.3918,0.0,2.4267,2.4887,2.5331,2.5518,2.5919,2.6213,2.6386,2.6386,2.6386,2.6386,2.6386,2.6386,2.6386,2.6386,2.6386,2.6386,2.6386,2.6386,2.6386,2.6386,2.6386,2.6386,2.5753,2.5368,0.0,0.0,2.4731,0.0,2.4492,2.4068,2.3748,2.376,2.3519,2.3363,2.3399,2.3225,2.3152,2.3327,0.0,0.0,0.0,2.2842,2.2512,2.2121,2.1752,0.0,2.0946,2.081,2.0533,2.0255,1.97,1.9314,1.9072,1.9072,1.9072,1.9072,1.9072,1.9072,1.9072,1.9072,1.9072,1.9072,1.9072,1.9072,1.9072,1.9072,1.9072,1.9072,1.9072,1.9072,1.9072,1.9072,1.9072,1.912,1.9451,1.9652,1.9965,2.0484,2.0653,2.0665,2.0665,2.0943,2.1207,2.1207,2.1553,2.1897,2.1897,2.1897,2.1966,2.231,2.231,2.2448,2.2859,2.2928,2.2928,2.2928,2.2928,2.2928,2.2928,0.0,0.0,0.0,0.0,0.0,0.0,2.2575,2.2592,0.0,0.0,0.0,0.0,0.0,2.3543,2.4195,2.4489,2.4649,2.4663,2.5224,2.5531,2.5585,2.6132,2.6386,2.6386,2.6386,2.6386,2.6386,2.6386,2.6386,2.6386,2.6386,2.6386,2.6386,2.6386,2.6386,2.6386,2.6386,2.6386,2.6386,0.0,0.0,2.4891,2.4252,2.4332,2.4412,2.4012,2.3671,2.3531,2.3736,2.343,2.3297,2.3707,2.3333,2.3145,2.314,2.2959,2.2814,2.283,2.2576,2.1794,2.0425,2.1082,2.0861,1.9543,2.0262,2.0448,1.9977,1.9434,1.9132,1.9072,1.9072,1.9072,1.9072,1.9072,1.9072,1.9072,1.9072,1.9072,1.9072,1.9072,1.9072,1.9072,1.9072,1.9072,1.9072,1.9072,1.9072,1.9072,1.9072,1.9072,1.912,1.9451,1.9507,1.9676,2.0219,2.0509,2.0665,2.0665,2.0943,2.1276,2.1553,2.2173,2.2654,2.2654,2.2654,2.2654,2.2722,2.2791,2.2791,2.2859,2.2928,2.2928,2.2928,2.2928,2.2928,2.2928,0.0,0.0,0.0,2.2935,2.3107,2.3174,2.3121,2.3107,0.0,0.0,0.0,0.0,0.0,2.383,2.4195,2.4489,2.4743,2.497,2.5331,2.5745,2.6186,2.6319,2.6386,2.6386,2.6386,2.6386,2.6386,2.6386,2.6386,2.6386,2.6386,2.6386,2.6386,2.6386,2.6386,2.6386,2.6386,2.6386,2.6386,2.5197,2.513,2.497,2.4492,2.4412,2.4412,2.4172,2.3799,2.3604,2.3748,2.349,2.3345,2.3556,2.3297,2.3072,2.2951,2.2806,2.2673,2.2564,2.2418,2.1766,2.0632,2.1183,2.0995,1.981,2.0391,2.0412,1.9881,1.9591,1.9314,1.9072,1.9072,1.9072,1.9072,1.9072,1.9072,1.9072,1.9072,1.9072,1.9072,1.9072,1.9072,1.9072,1.9072,1.9072,1.9072,1.9072,1.9072,1.9072,1.9072,1.9072,1.9096,1.9241,1.9458,1.9688,1.9857,2.0183,2.0521,2.0641,2.0943,2.1346,2.1897,2.231,2.2654,2.2859,2.2928,2.2928,2.2928,2.2928,2.2928,2.2928,2.2928,2.2928,2.2928,2.2928,2.2928,2.2928,2.2928,0.0,2.2928,2.314,2.338,2.3514,2.3527,2.3581,2.3714,0.0,0.0,2.3941,2.3968,2.4102,2.4396,2.4556,2.4783,2.5077,2.5504,2.5945,2.6386,2.6386,2.6386,2.6386,2.6386,2.6386,2.6386,2.6386,2.6386,2.6386,2.6386,2.6386,2.6386,2.6386,2.6386,2.6386,2.6386,2.6386,2.6386,2.5646,2.5314,2.497,2.4891,2.4652,2.4492,2.4412,2.4056,2.3724,2.376,2.3575,2.3339,2.3423,2.3225,2.3048,2.279,2.2782,2.2612,2.2358,2.2334,2.214,2.1619,2.1523,2.1257,2.0798,2.0629,2.0315,1.982,1.9784,1.9531,1.9072,1.9072,1.9072,1.9072,1.9072,1.9072,1.9072,1.9072,1.9072,1.9072,1.9072,1.9072,1.9072,1.9072,1.9072,1.9072,1.9072,1.9072,1.9072,1.9072,1.9072,1.9072,1.9072,1.9398,1.9736,1.9579,1.9857,2.0267,2.0484,2.0845,2.1296,2.2091,2.231,2.2379,2.2791,2.2928,2.2928,2.2928,2.2928,2.2928,2.2928,2.2928,2.2928,2.2928,2.2928,2.2928,2.2928,0.0,2.2954,2.2926,2.3207,2.3514,2.3808,2.3834,2.3941,2.4182,2.3928,0.0,0.0,2.4209,2.4342,2.4623,2.4636,2.4796,2.5144,2.5732,2.6146,2.6386,2.6386,2.6386,2.6386,2.6386,2.6386,2.6386,2.6386,2.6386,2.6386,2.6386,2.6386,2.6386,2.6386,2.6386,2.6386,2.6386,2.6386,2.64,2.5032,2.4801,2.4492,2.4092,2.4252,2.4332,2.4,2.3659,2.3519,2.3736,2.3418,2.3285,2.3652,2.3345,2.3116,2.3309,2.2911,2.2612,2.2358,2.2334,2.2223,2.2138,2.1716,2.1438,2.1354,2.0472,1.9857,1.9531,1.9314,1.9157,1.9072,1.9072,1.9072,1.9072,1.9072,1.9072,1.9072,1.9072,1.9072,1.9072,1.9072,1.9072,1.9072,1.9072,1.9072,1.9072,1.9072,1.9072,1.9072,1.9072,1.9072,1.9072,1.9072,1.9132,1.9289,1.97,1.9881,1.9953,2.0002,2.0429,2.1059,2.2039,2.231,2.2379,2.2791,2.2928,2.2928,2.2928,2.2928,2.2928,2.2928,2.2928,2.2928,2.2928,2.2928,2.2928,0.0,0.0,2.2953,2.322,2.3514,2.3821,2.4115,2.4142,2.4155,2.4195,2.3928,2.3901,2.4195,2.4209,2.4342,2.4623,2.4636,2.489,2.5438,2.6026,2.6346,2.6386,2.6386,2.6386,2.6386,2.6386,2.6386,2.6386,2.6386,2.6386,2.6386,2.6386,2.6386,2.6386,2.6386,2.6386,2.6386,2.6386,2.6386,2.6426,2.5092,2.461,2.4251,2.3864,2.4012,2.4092,2.384,2.3664,2.3628,2.3748,2.3635,2.3575,2.3816,2.3623,2.3406,2.3249,2.3007,2.277,2.2358,2.2334,2.2138,2.1848,2.1607,2.1341,2.1052,2.0424,1.9965,1.9688,1.9422,1.9217,1.9072,1.9072,1.9072,1.9072,1.9072,1.9072,1.9072,1.9072,1.9072,1.9072,1.9072,1.9072,1.9072,1.9072,1.9072,1.9072,1.9072,1.9072,1.9072,1.9072,1.9072,1.9072,1.9072,1.9277,1.9531,1.9627,1.9965,2.0303,2.0303,2.0661,2.1196,2.1872,2.2173,2.2379,2.2791,2.2928,2.2928,2.2928,2.2928,2.2928,2.2928,2.2928,2.2928,2.2928,2.2928,0.0,0.0,2.2928,2.2979,2.3287,2.3594,2.3888,2.4168,2.4342,2.4436,2.4436,2.4315,2.4289,2.4436,2.4436,2.4502,2.4636,2.4943,2.5317,2.5745,2.6172,2.6386,2.6386,2.6386,2.6386,2.6386,2.6386,2.6386,2.6386,2.6386,2.6386,2.6386,2.6386,2.6386,2.6386,2.6386,2.6386,2.6386,2.6386,2.6493,2.664,2.5346,2.474,2.4187,2.3961,2.3808,2.376,2.376,2.376,2.376,2.376,2.376,2.376,2.376,2.376,2.3683,2.3261,2.3193,2.2951,2.2539,2.2406,2.2054,2.1595,2.145,2.1124,2.0593,2.0388,2.0122,1.9784,1.9567,1.9338,1.9072,1.9072,1.9072,1.9072,1.9072,1.9072,1.9072,1.9072,1.9072,1.9084,1.9145,1.9169,1.9169,1.9169,1.9169,1.9157,1.9096,1.9072,1.9072,1.9072,1.9072,1.9072,1.9072,1.9463,1.9893,1.9735,2.0288,2.0931,2.0662,2.0845,2.1202,2.1678,2.2035,2.2379,2.2791,2.2928,2.2928,2.2928,2.2928,2.2928,2.2928,2.2928,2.2928,2.2928,0.0,0.0,0.0,2.2926,2.3086,2.3394,2.3688,2.3981,2.4275,2.4502,2.4636,2.4636,2.4636,2.4636,2.4636,2.4636,2.4629,2.4836,2.5277,2.5651,2.6037,2.6239,2.6386,2.6386,2.6386,2.6386,2.6386,2.6386,2.6386,2.6386,2.6386,2.6386,2.6386,2.6386,2.6386,2.6386,2.6386,2.6386,2.64,2.6466,2.6627,2.6841,2.5885,2.5175,2.4431,2.4247,2.4009,2.376,2.376,2.376,2.376,2.376,2.376,2.376,2.376,2.376,2.3828,2.3792,2.3333,2.3109,2.306,2.2612,2.2138,2.1848,2.1354,2.0917,2.0315,2.0291,2.0026,1.9495,1.9536,1.9338,1.9072,1.9072,1.9072,1.9072,1.9072,1.9072,1.9072,1.9072,1.9072,1.9096,1.9338,1.9499,1.9499,1.9499,1.9499,1.9475,1.9169,1.9072,1.9072,1.9072,1.9072,1.9072,1.9072,1.9524,2.0055,2.0236,2.0977,2.1502,2.0569,2.0576,2.0966,2.164,2.2035,2.2379,2.2791,2.2928,2.2928,2.2928,2.2928,2.2928,2.2928,2.2928,2.2928,2.2928,0.0,0.0,2.2928,2.3113,2.3407,2.3701,2.3995,2.4289,2.4569,2.4623,2.4636,2.4636,2.4636,2.4636,2.4636,2.4636,2.489,2.5438,2.5491,2.5651,2.6037,2.6239,2.6386,2.6386,2.6386,2.6386,2.6386,2.6386,2.6386,2.6386,2.6386,2.6386,2.6386,2.6386,2.6386,2.6386,2.6386,2.6386,2.6426,2.6694,2.68,2.6894,2.5918,2.5248,2.4634,2.4412,2.4073,2.376,2.376,2.376,2.376,2.376,2.376,2.376,2.376,2.376,2.3707,2.3381,2.3164,2.2988,2.2661,2.2443,2.2152,2.1643,2.134,2.0965,2.0533,2.0364,2.0098,1.9724,1.9555,1.9338,1.9072,1.9072,1.9072,1.9072,1.9072,1.9072,1.9072,1.9072,1.9072,1.9096,1.9362,1.9536,1.9548,1.9664,1.9724,1.9688,1.9422,1.9378,1.9354,1.9377,1.9374,1.9443,1.9844,2.0207,2.0617,2.1094,2.1526,2.1747,2.1302,2.147,2.1769,2.2078,2.2379,2.2722,2.2859,2.2928,2.2928,2.2928,2.2928,2.2928,2.2928,2.2928,2.2928,2.2928,0.0,2.2926,2.3126,2.3247,2.35,2.3981,2.4142,2.4315,2.4609,2.4636,2.4636,2.4636,2.4636,2.4636,2.4636,2.4636,2.4903,2.5491,2.5518,2.5745,2.6226,2.6333,2.6386,2.6386,2.6386,2.6386,2.6386,2.6386,2.6386,2.6386,2.6386,2.6386,2.6386,2.6386,2.6386,2.6386,2.6386,2.6493,2.6667,2.6787,2.7054,2.7402,2.5989,2.5494,2.505,2.4721,2.4301,2.4,2.384,2.376,2.376,2.376,2.376,2.376,2.376,2.376,2.3695,2.3333,2.3218,2.2963,2.2612,2.243,2.2029,2.1498,2.1209,2.0931,2.0747,2.0496,2.0231,1.9881,1.9688,1.9422,1.9072,1.9072,1.9072,1.9072,1.9072,1.912,1.9193,1.9108,1.912,1.9217,1.9463,1.9536,1.9495,1.9676,1.9748,1.9778,1.9565,1.9532,1.9585,1.9809,1.9831,1.9875,2.0497,2.0905,2.1268,2.1958,2.2173,2.2173,2.2173,2.231,2.2448,2.231,2.2585,2.2928,2.2928,2.2928,2.2928,2.2928,2.2928,2.2928,2.2928,2.2928,2.2928,2.2928,2.2928,2.2966,2.3287,2.3407,2.3647,2.4142,2.4289,2.4422,2.4549,2.4636,2.4636,2.4636,2.4636,2.4636,2.4636,2.473,2.4997,2.5491,2.5598,2.5892,2.6386,2.6386,2.6386,2.6386,2.6386,2.6386,2.6386,2.6386,2.6386,2.6386,2.6386,2.6386,2.6386,2.6386,2.6386,2.6386,2.6386,2.6507,2.6707,2.6894,2.7215,2.7589,2.6224,2.5961,2.5605,2.5001,2.4665,2.4332,2.384,2.384,2.376,2.376,2.376,2.376,2.376,2.376,2.376,2.376,2.3345,2.3121,2.3109,2.2624,2.2029,2.1498,2.128,2.1013,2.0747,2.0665,2.0412,1.9881,1.9881,1.9615,1.9084,1.9072,1.9072,1.9084,1.9072,1.9217,1.9446,1.9193,1.9229,1.947,1.947,1.947,1.9536,1.9536,1.9536,1.9499,1.9619,1.9584,1.9685,2.0295,2.0526,2.0577,2.0923,2.1404,2.2013,2.2711,2.2928,2.2928,2.2928,2.2928,2.2791,2.2379,2.2585,2.2928,2.2928,2.2928,2.2928,2.2928,2.2928,2.2928,2.2928,2.2928,2.2928,2.2928,2.2928,2.2966,2.3287,2.3581,2.3875,2.4168,2.4449,2.4636,2.4636,2.4636,2.4636,2.4636,2.4636,2.4636,2.4636,2.4917,2.5211,2.5504,2.5798,2.6092,2.6386,2.6386,2.6386,2.6386,2.6386,2.6386,2.6386,2.6386,2.6386,2.6386,2.6386,2.6386,2.6386,2.6386,2.6386,2.6386,2.6386,2.6386,2.6466,2.7041,2.7268,2.7348,2.6268,2.6056,2.5779,2.5551,2.5181,2.4811,2.4332,2.4252,2.4172,2.384,2.376,2.376,2.376,2.376,2.3688,2.3507,2.3249,2.2963,2.2588,2.2418,2.2029,2.1498,2.1402,2.1136,2.0678,2.0665,2.0412,1.9881,1.9881,1.97,1.9415,1.9157,1.9169,1.9338,1.9157,1.9217,1.9458,1.9386,1.9507,1.976,1.976,1.9893,2.0145,2.0145,2.0278,2.0463,2.0507,2.0482,2.056,2.1043,2.1145,2.1216,2.1768,2.2251,2.2616,2.2832,2.2928,2.2928,2.2928,2.2928,2.2859,2.2722,2.2791,2.2928,2.2928,2.2928,2.2928,2.2928,2.2928,2.2928,2.2928,2.2928,2.2928,2.2928,2.2928,2.2966,2.3287,2.3407,2.3647,2.4142,2.4275,2.4409,2.4549,2.4636,2.4636,2.4636,2.4636,2.4636,2.4636,2.4917,2.5211,2.5504,2.5798,2.6092,2.6386,2.6386,2.6386,2.6386,2.6386,2.6386,2.6386,2.6386,2.6386,2.6386,2.6386,2.6386,2.6386,2.6386,2.6386,2.6386,2.6386,2.6507,2.6707,2.6894,2.7215,2.7589,2.607,2.599,2.5832,2.5832,2.5594,2.5209,2.4572,2.4492,2.4332,2.384,2.376,2.376,2.376,2.376,2.37,2.3544,2.3261,2.2903,2.237,2.2334,2.2152,2.1655,2.1631,2.1329,2.0678,2.0665,2.046,2.0038,2.0038,1.9905,1.9627,1.947,1.9483,1.9627,1.947,1.9543,1.9784,1.9676,1.9917,2.0227,2.013,2.0281,2.0614,2.0614,2.0734,2.0933,2.1066,2.1132,2.1211,2.1726,2.1882,2.2089,2.2395,2.2722,2.2928,2.2928,2.2928,2.2928,2.2928,2.2928,2.2928,2.2928,2.2928,2.2928,2.2928,2.2928,2.2928,2.2928,2.2928,2.2928,2.2928,2.2928,2.2928,2.2928,2.2928,2.2966,2.3287,2.3327,2.3541,2.4128,2.4209,2.4315,2.4609,2.4636,2.4636,2.4636,2.4636,2.4636,2.4636,2.5024,2.5331,2.5504,2.5919,2.6213,2.6386,2.6386,2.6386,2.6386,2.6386,2.6386,2.6386,2.6386,2.6386,2.6386,2.6386,2.6386,2.6386,2.6386,2.6386,2.6386,2.6386,2.6493,2.6667,2.6774,2.7121,2.7549,2.5673,2.5753,2.5753,2.5753,2.5753,2.5514,2.4652,2.4492,2.4412,2.384,2.376,2.376,2.376,2.376,2.376,2.3736,2.3321,2.2866,2.2295,2.2334,2.2138,2.1885,2.1873,2.151,2.0762,2.0714,2.0569,2.0315,2.0291,2.0158,1.9917,1.9893,1.9905,1.9917,1.9893,2.0038,2.0255,2.0026,2.0276,2.0755,2.055,2.0651,2.1038,2.1012,2.1066,2.1145,2.1423,2.1568,2.1674,2.2231,2.2632,2.2928,2.2968,2.2968,2.2968,2.2968,2.2968,2.2968,2.2968,2.2954,2.2941,2.2899,2.2968,2.2899,2.2941,2.2928,2.2928,2.2928,2.2928,2.2928,2.2928,2.2928,2.2928,2.2928,2.2928,2.2966,2.3247,2.3313,2.3541,2.4102,2.4195,2.4315,2.4609,2.4636,2.4636,2.4636,2.4636,2.4636,2.4636,2.5197,2.5518,2.5518,2.6079,2.6386,2.6386,2.6386,2.6386,2.6386,2.6386,2.6386,2.6386,2.6386,2.6386,2.6386,2.6386,2.6386,2.6386,2.6386,2.6386,2.6386,2.6386,2.64,2.6466,2.672,2.7028,2.7348,2.5209,2.5289,2.5289,2.5289,2.5594,2.5514,2.4652,2.4731,2.4652,2.392,2.376,2.376,2.376,2.376,2.3688,2.3483,2.3043,2.2673,2.2358,2.2334,2.2138,2.1885,2.1873,2.1691,2.1305,2.1088,2.0847,2.0581,2.0376,2.0243,2.0195,1.9977,2.0002,2.0183,1.9977,2.0038,2.0279,2.0219,2.0408,2.0695,2.07,2.0926,2.1238,2.1355,2.1529,2.1819,2.2111,2.2191,2.2231,2.2672,2.2806,2.2968,2.3153,2.322,2.322,2.322,2.322,2.322,2.322,2.3046,2.2926,2.3166,2.322,2.3166,2.2926,2.2928,2.2928,2.2928,2.2928,2.2928,2.2928,2.2928,2.2928,2.2928,2.2928,2.2886,2.2953,2.318,2.346,2.3821,2.4062,2.4315,2.4609,2.4636,2.4636,2.4636,2.4636,2.4636,2.4636,2.5197,2.5518,2.5518,2.6079,2.6386,2.6386,2.6386,2.6386,2.6386,2.6386,2.6386,2.6386,2.6386,2.6386,2.6386,2.6386,2.6386,2.6386,2.6386,2.6386,2.6386,2.6386,2.6533,2.6734,2.68,2.7161,2.7642,2.4731,2.4811,2.4891,2.505,2.5289,2.5276,2.4572,2.4652,2.4572,2.392,2.376,2.376,2.376,2.376,2.3683,2.3297,2.2887,2.2612,2.2358,2.2334,2.2273,2.214,2.2054,2.1993,2.1848,2.1462,2.1124,2.0929,2.0714,2.0593,2.046,2.0327,2.0327,2.046,2.0315,2.034,2.046,2.046,2.0683,2.0931,2.099,2.1202,2.1531,2.1594,2.1732,2.1947,2.2036,2.2225,2.2374,2.2532,2.2677,2.2836,2.3204,2.328,2.3258,2.347,2.3434,2.3354,2.35,2.3207,2.2966,2.342,2.3434,2.3287,2.3113,2.3086,2.3086,2.3086,2.3086,2.3086,2.3086,2.3193,2.337,2.337,2.318,2.3126,2.3273,2.3313,2.3487,2.3928,2.4115,2.4315,2.4609,2.4636,2.4636,2.4636,2.4636,2.4636,2.4636,2.5197,2.5518,2.5518,2.6079,2.6386,2.6386,2.6386,2.6386,2.6386,2.6386,2.6386,2.6386,2.6386,2.6386,2.6386,2.6386,2.6386,2.6386,2.6386,2.6386,2.6386,2.6386,2.656,2.6827,2.6827,2.7188,2.7749,2.4332,2.4412,2.4492,2.4811,2.497,2.4891,2.4412,2.4412,2.4332,2.384,2.376,2.384,2.392,2.3884,2.3678,2.3152,2.2903,2.2636,2.2418,2.2358,2.2334,2.2334,2.2334,2.2334,2.2334,2.1836,2.145,2.1207,2.111,2.0953,2.0665,2.0665,2.0665,2.0665,2.0665,2.0665,2.0665,2.0665,2.0873,2.1138,2.1207,2.1415,2.1691,2.176,2.176,2.176,2.176,2.2035,2.231,2.231,2.2506,2.2837,2.324,2.3395,2.3418,2.3776,2.3674,2.3527,2.3781,2.3434,2.3153,2.3701,2.3661,2.3474,2.3474,2.3394,2.334,2.3394,2.3367,2.334,2.3394,2.3607,2.3768,2.3768,2.3567,2.3487,2.3741,2.3594,2.3661,2.4142,2.4249,2.4369,2.4609,2.4636,2.4636,2.4636,2.4636,2.4636,2.4636,2.5197,2.5518,2.5518,2.6079,2.6386,2.6386,2.6386,2.6386,2.6386,2.6386,2.6386,2.6386,2.6386,2.6386,2.6386,2.6386,2.6386,2.6386,2.644,2.6466,2.6466,2.652,2.672,2.6974,2.7028,2.7362,2.7816,2.392,2.392,2.392,2.4,2.4332,2.4412,2.392,2.4252,2.4332,2.384,2.376,2.3932,2.4332,2.419,2.3859,2.3406,2.2947,2.2709,2.2673,2.2467,2.2334,2.2334,2.2334,2.2334,2.2334,2.2273,2.1921,2.1426,2.0955,2.0771,2.0665,2.0665,2.0665,2.0665,2.0665,2.0665,2.0665,2.0665,2.0735,2.0804,2.1081,2.1207,2.1346,2.1691,2.176,2.176,2.176,2.2035,2.231,2.231,2.2714,2.3297,2.3634,2.3915,2.4069,2.4142,2.4115,2.4088,2.4128,2.3901,2.3728,2.4062,2.4115,2.4088,2.4088,2.3688,2.3407,2.3661,2.35,2.3407,2.3661,2.3741,2.3768,2.3768,2.3741,2.3728,2.3768,2.3955,2.4115,2.4195,2.4422,2.4596,2.4636,2.4636,2.4636,2.4636,2.4636,2.4636,2.4636,2.5197,2.5518,2.5518,2.6079,2.6386,2.6386,2.6386,2.6386,2.6386,2.6386,2.6386,2.6386,2.6386,2.6386,2.6386,2.6386,2.6386,2.6413,2.6653,2.676,2.6787,2.7041,2.7321,2.7615,2.7869,2.81,2.8167,2.392,2.376,2.376,2.376,2.4,2.4012,2.384,2.4012,2.4,2.384,2.376,2.384,2.4092,2.3848,2.3599,2.3454,2.3092,2.2951,2.2951,2.2697,2.2552,2.2552,2.2418,2.2334,2.2334,2.2114,2.1933,2.1691,2.1305,2.104,2.0953,2.0738,2.0665,2.0665,2.0665,2.0665,2.0665,2.0665,2.0665,2.0735,2.0873,2.0943,2.0943,2.1151,2.1289,2.1509,2.1868,2.2267,2.2571,2.2741,2.3072,2.3549,2.3896,2.4063,2.4156,2.4376,2.4329,2.4235,2.4396,2.4115,2.3875,2.4329,2.4329,2.4249,2.4409,2.4115,2.3848,2.3981,2.3915,2.3861,2.3981,2.4142,2.4249,2.4249,2.4115,2.4075,2.4235,2.4222,2.4262,2.4422,2.4556,2.4636,2.4636,2.4636,2.4636,2.4636,2.4796,2.489,2.489,2.5438,2.5758,2.5758,2.6172,2.6386,2.6386,2.6386,2.6386,2.6386,2.6386,2.6386,2.64,2.656,2.6627,2.6627,2.6627,2.6627,2.664,2.6774,2.6827,2.6854,2.7148,2.7442,2.7736,2.8114,2.8221,2.8221]}]]